GFSGL_700_spd_000.txt.gz
Wind_Speed
42 42 41 39 38 41 48 47 47 49 47 47 46 46 46 45 44 44 44 44 44 45 45 45 44 45 48 45 44 47 48 50 55 58 56 57 56 65 64 39 56 43 59
41 39 40 39 44 43 42 45 46 46 46 46 46 46 45 44 45 46 47 46 46 46 46 46 47 47 50 52 48 49 51 50 53 58 57 58 57 49 47 54 51 44 53
38 39 44 39 38 40 43 44 46 47 47 46 47 46 46 46 46 48 48 48 49 49 49 49 48 47 52 54 53 50 51 52 50 55 58 57 57 55 50 50 67 55 46
39 42 37 36 39 39 43 45 47 46 47 46 46 46 46 47 48 48 49 51 52 52 51 49 48 48 50 53 49 49 51 52 49 50 51 56 54 56 52 48 50 63 47
39 37 34 35 37 41 44 48 48 46 45 45 46 46 47 48 49 49 51 52 53 52 49 48 47 48 49 50 52 50 49 52 50 44 45 49 52 54 55 52 45 42 53
35 33 31 35 39 42 45 48 46 46 44 45 45 47 48 48 49 50 49 48 46 46 45 43 43 44 46 48 52 52 50 54 54 50 44 43 46 50 54 54 50 43 47
29 28 33 37 41 42 47 47 46 44 44 45 46 48 48 50 48 46 42 42 42 41 38 36 36 36 37 41 47 51 54 54 58 56 50 39 43 37 49 53 52 46 45
23 29 36 39 42 44 48 46 44 45 45 45 46 46 49 46 41 37 35 36 37 37 37 37 37 38 38 38 39 42 49 52 56 58 55 50 38 34 37 48 49 46 45
26 32 37 40 41 45 45 44 45 46 45 44 43 46 45 40 34 32 33 35 38 39 38 38 37 37 37 38 38 39 42 47 50 54 55 52 48 44 42 41 47 47 48
28 33 36 39 43 42 43 43 44 45 43 41 43 43 38 35 30 32 34 38 40 39 37 35 32 30 28 31 37 38 39 40 44 48 48 49 48 47 48 43 43 43 46
30 34 38 38 40 41 41 42 43 41 39 41 42 35 30 31 32 30 30 32 33 34 33 32 31 31 31 29 30 37 37 35 39 43 47 48 46 46 46 43 43 40 43
31 36 36 37 39 40 40 41 39 38 40 41 38 28 27 28 27 29 31 31 32 35 34 33 30 29 30 30 31 33 32 36 38 38 40 43 43 45 47 44 42 39 39
32 34 35 36 37 38 40 38 35 37 40 40 31 27 27 24 29 30 28 25 23 24 24 24 24 25 27 27 28 32 30 35 38 39 30 35 37 40 45 44 42 40 36
31 33 34 35 35 36 35 33 35 37 40 34 27 26 25 26 27 27 23 20 17 15 14 14 14 15 16 12 12 23 29 33 35 35 35 23 25 36 41 41 41 40 36
30 31 33 33 34 32 30 31 33 35 39 31 26 26 26 24 23 23 21 19 15 11 7 5 6 9 6 3 10 17 24 28 31 31 30 33 31 33 36 38 39 40 42
29 31 31 32 31 30 29 28 30 34 33 24 21 21 20 20 18 18 17 16 12 7 5 4 4 4 4 4 8 14 21 25 26 29 32 31 30 33 35 36 36 37 40
28 28 30 30 29 28 28 29 29 30 27 19 16 14 14 12 11 14 17 22 23 20 14 10 7 5 1 5 11 15 17 21 23 24 23 24 26 30 33 36 37 38 40
26 27 28 28 28 27 27 27 29 31 22 11 8 7 6 8 12 15 16 21 21 20 22 21 20 18 12 5 9 13 15 16 18 18 20 22 25 26 28 33 36 37 36
25 26 26 26 27 26 25 25 27 28 20 10 5 6 3 7 11 14 14 18 22 24 25 26 26 24 21 20 16 13 14 17 19 20 20 20 22 23 31 30 33 31 33
24 23 23 24 26 24 23 22 24 24 18 8 2 2 3 8 9 10 13 17 20 25 28 30 33 33 31 29 25 23 25 26 26 24 21 21 19 16 15 17 22 27 29
21 23 22 23 26 24 21 20 21 21 17 6 1 1 3 5 7 10 12 16 18 22 25 27 28 30 30 29 29 28 27 26 26 26 27 28 25 24 24 25 27 29 31
20 22 21 21 23 23 20 18 17 18 15 6 1 2 4 5 6 8 10 14 16 18 18 19 20 22 23 24 23 22 22 22 22 23 23 24 25 25 24 24 23 22 21
19 21 20 19 21 21 18 16 15 14 12 7 1 2 3 5 8 9 10 11 12 13 13 12 12 14 15 16 16 16 15 15 15 15 14 14 14 13 12 12 12 12 12
18 20 18 18 18 19 18 15 13 11 10 7 2 2 3 4 5 7 8 9 8 7 7 6 6 7 9 10 9 9 9 9 9 9 9 9 8 8 8 7 7 8 10
18 18 15 16 16 16 16 14 12 10 9 7 4 1 4 4 5 5 5 5 5 5 4 3 3 4 6 6 6 6 7 7 6 6 5 5 5 5 6 7 8 10 11
17 14 14 15 14 13 13 12 12 10 8 7 6 4 2 4 5 4 3 2 2 2 1 2 3 4 4 4 4 4 3 2 1 1 1 2 4 5 7 9 10 12 14

GFSGL_700_spd_003.txt.gz
Wind_Speed
43 48 47 50 48 50 48 45 45 48 49 48 47 48 48 47 45 45 44 42 41 41 40 41 41 41 41 42 41 45 51 52 50 55 47 51 47 48 54 61 71 53 61
46 44 48 47 49 50 46 47 47 43 44 46 48 50 49 47 46 45 43 42 42 44 44 44 44 43 43 43 45 48 50 52 52 49 48 46 40 43 52 56 58 62 60
41 44 47 47 49 43 46 42 40 42 45 48 51 51 48 47 46 44 45 45 47 47 47 47 47 45 45 44 45 49 51 52 52 52 54 51 45 41 40 53 58 62 67
41 43 45 45 42 45 39 38 39 43 47 49 51 49 48 46 46 46 47 49 49 50 52 53 51 49 48 47 48 48 52 54 52 53 53 51 48 43 42 47 52 56 59
40 42 42 42 43 36 36 37 42 46 48 52 51 47 44 46 46 48 49 49 52 54 53 50 48 46 44 43 45 49 51 47 50 49 51 52 48 42 41 43 46 49 52
39 43 43 36 32 32 36 41 45 48 51 49 46 45 46 46 47 47 47 51 52 50 48 44 41 41 41 40 41 44 47 53 54 49 47 49 49 45 41 40 42 42 44
39 41 29 29 30 35 41 45 47 50 49 46 45 46 47 45 44 46 47 49 47 44 42 39 36 34 35 36 37 38 41 47 52 54 56 49 46 43 38 35 40 38 40
39 28 26 28 32 39 42 45 48 46 46 45 46 46 43 43 44 46 44 42 41 39 39 38 38 36 36 37 38 39 40 40 42 50 56 56 50 44 39 36 37 39 36
24 25 26 30 37 41 44 43 44 45 44 46 44 41 44 44 44 39 37 37 39 39 39 38 38 38 37 36 38 40 41 41 39 41 45 54 55 52 45 40 42 39 38
25 26 30 35 40 43 42 42 43 43 46 42 39 42 44 42 33 32 34 36 38 39 38 36 32 30 27 27 31 34 38 39 37 39 39 43 51 54 47 45 42 42 40
25 29 34 37 40 40 41 41 42 44 41 37 39 41 39 30 29 29 30 34 36 37 37 39 37 33 31 30 31 33 34 30 32 34 36 34 42 46 51 49 46 43 33
29 32 35 37 36 38 40 40 41 38 38 39 39 39 28 25 26 29 31 32 32 32 31 28 26 28 30 31 32 32 33 34 30 32 31 35 34 38 42 46 48 46 43
30 33 34 34 35 37 39 39 36 36 38 39 41 33 23 21 24 27 29 31 29 27 24 22 19 20 23 26 28 32 33 34 33 33 29 27 26 32 36 41 49 48 44
31 32 31 32 34 35 36 35 34 35 38 38 39 26 21 20 24 27 29 27 22 19 18 18 17 18 20 21 21 19 22 28 30 31 29 22 21 22 30 36 40 41 39
30 30 30 32 33 34 33 33 31 32 36 38 31 23 21 22 23 24 26 26 20 15 14 15 15 16 17 14 8 6 9 18 23 24 25 27 23 22 23 31 35 42 42
28 29 31 32 33 33 32 31 30 30 31 32 22 18 17 19 18 19 22 21 21 19 15 13 14 14 12 9 3 2 6 12 16 20 21 25 26 24 23 27 31 38 42
26 28 30 31 31 31 31 30 28 27 29 26 18 13 15 13 15 17 20 21 20 19 19 19 19 13 6 3 1 4 11 14 15 21 21 20 23 25 23 26 28 33 35
27 29 30 29 29 29 31 28 26 28 27 18 12 10 8 9 11 14 16 16 18 20 21 23 24 24 15 2 4 7 8 11 16 18 25 28 24 23 24 26 29 28 31
28 28 28 28 28 28 30 26 23 24 24 17 9 10 7 7 8 11 12 15 20 22 24 26 27 27 25 16 3 6 8 10 12 15 16 16 17 18 19 22 28 31 33
28 27 25 27 26 27 28 25 22 22 21 15 9 8 4 3 6 6 8 12 17 21 23 25 26 27 27 24 19 10 8 9 10 11 15 16 18 19 22 23 22 22 27
25 24 24 26 25 25 26 23 20 19 18 13 8 7 4 2 3 3 6 10 13 16 20 22 24 24 25 24 24 21 18 15 14 14 14 14 12 13 17 20 19 21 21
23 22 23 24 23 24 24 22 18 16 15 12 7 6 4 2 1 1 3 5 8 10 14 17 20 22 21 21 20 20 19 17 16 17 18 17 16 16 16 14 15 16 16
20 20 22 22 22 22 22 21 17 13 12 11 6 5 5 2 3 2 3 3 3 5 9 13 15 17 17 16 16 16 16 16 16 15 14 14 14 14 14 15 16 18 20
19 20 21 19 20 20 18 19 16 11 11 10 7 5 4 3 2 3 2 1 1 3 7 9 12 13 15 14 13 13 12 12 12 12 12 13 12 11 11 11 10 10 9
17 19 18 18 19 18 16 16 14 12 10 10 7 5 6 4 2 1 1 1 1 2 5 6 8 10 11 11 11 11 11 10 9 8 8 7 6 6 5 5 4 4 4
17 17 15 17 17 16 15 14 13 11 10 9 8 5 3 4 5 3 1 1 1 1 3 5 7 7 7 7 7 7 7 7 6 5 5 4 3 2 1 1 2 4 6

GFSGL_700_spd_006.txt.gz
Wind_Speed
41 41 45 46 45 45 51 53 54 53 51 45 41 41 42 45 46 47 47 44 43 42 40 39 40 39 41 42 42 45 46 46 51 58 54 56 55 55 49 54 47 48 57
46 47 47 44 39 42 47 51 50 44 42 42 39 41 44 47 48 49 46 43 41 41 40 40 40 40 42 42 42 43 46 49 52 55 51 52 53 54 50 40 54 53 50
49 49 47 42 39 39 43 43 43 43 39 38 39 42 46 48 51 46 42 41 41 42 42 43 44 44 44 43 43 44 44 46 49 54 54 51 50 52 56 53 45 55 52
48 47 44 39 39 40 40 43 39 36 37 39 42 45 48 50 46 42 43 45 45 45 45 46 47 47 48 48 46 47 47 48 49 52 54 50 51 51 53 54 49 44 54
46 41 37 40 38 38 43 34 34 35 39 43 46 47 47 46 43 44 46 46 45 45 46 48 50 50 50 48 47 46 46 49 51 54 52 53 53 54 54 52 51 44 41
42 41 36 32 34 36 29 33 34 40 43 45 46 45 45 43 45 45 44 43 45 48 49 49 47 44 41 39 39 40 41 44 48 52 56 58 57 56 52 48 47 44 44
39 36 34 34 35 31 33 33 38 42 45 45 44 44 44 45 43 41 43 47 48 47 45 41 39 36 35 34 34 35 36 37 40 43 51 57 59 53 49 45 45 46 45
34 37 39 32 32 31 34 37 41 44 44 44 43 44 44 40 41 44 46 46 42 38 36 36 37 36 35 35 36 37 38 37 38 39 43 46 52 57 52 48 46 44 45
34 30 28 30 30 33 38 40 41 42 43 42 43 40 40 42 42 44 39 36 37 37 35 36 36 36 33 30 32 35 38 40 39 39 40 41 42 48 54 54 51 45 44
24 24 27 30 34 36 39 39 39 40 41 42 39 38 40 42 42 33 30 33 34 37 37 37 35 34 32 30 30 30 34 33 33 36 39 40 40 42 44 56 56 50 43
25 28 30 33 35 37 37 37 39 40 40 39 38 39 40 41 31 27 27 32 35 37 36 33 30 27 27 27 28 32 31 28 30 32 32 35 39 40 40 45 59 55 47
27 32 33 34 35 34 36 36 37 38 38 38 39 39 39 28 24 25 27 28 31 34 32 27 24 21 20 19 22 25 27 29 31 33 34 32 32 34 31 35 46 56 48
30 31 33 32 32 33 35 36 37 37 37 37 39 39 30 20 21 22 24 28 29 27 22 19 18 18 17 17 20 22 24 27 30 34 35 32 27 26 17 24 29 41 50
30 31 31 31 32 33 34 35 36 36 36 36 38 36 23 18 20 21 24 26 26 23 19 17 18 17 16 17 18 17 19 23 23 24 29 27 22 24 20 23 27 36 48
31 31 30 30 32 33 33 34 35 34 34 35 36 29 20 19 19 23 25 25 26 25 24 22 19 17 14 13 13 11 7 6 9 13 15 17 18 16 18 18 29 30 40
30 29 30 31 33 33 33 32 33 32 28 30 31 23 17 17 19 20 22 23 23 22 23 22 22 16 8 8 9 7 5 4 4 3 7 18 16 12 16 17 19 31 34
29 30 30 31 32 31 32 32 34 28 24 26 25 17 16 14 16 18 19 20 20 21 23 24 24 22 10 6 5 5 6 4 4 6 10 18 18 17 11 12 15 19 24
29 29 30 30 30 30 31 31 32 28 25 23 19 13 12 11 12 13 15 16 16 20 25 27 28 28 20 7 4 3 3 3 4 12 11 10 13 18 20 19 19 20 22
29 29 29 28 29 30 30 29 30 26 23 23 16 11 11 9 8 9 11 11 16 20 24 25 28 30 29 21 9 4 0 2 6 10 15 15 15 15 16 18 17 16 19
30 31 28 28 28 29 28 27 28 24 21 20 16 10 8 6 6 5 5 7 12 17 21 23 25 26 27 27 24 14 6 1 4 7 10 11 12 13 13 11 12 15 18
30 28 26 26 27 27 26 26 26 23 19 18 14 10 9 5 5 4 3 4 8 13 16 19 20 22 23 24 25 23 20 15 10 4 3 8 11 15 16 15 14 13 15
27 25 24 25 26 25 25 24 24 21 17 16 13 9 8 6 5 5 3 4 6 10 12 15 16 16 18 19 20 20 20 20 19 17 14 10 5 3 8 12 14 14 15
25 22 22 24 23 23 23 22 21 20 16 15 13 8 6 6 4 4 4 5 6 7 9 11 13 13 14 15 16 17 16 17 17 17 17 17 16 15 12 8 9 13 16
22 21 22 21 21 22 22 20 19 18 15 16 12 9 5 4 4 3 3 4 5 6 7 8 9 11 12 13 13 14 14 15 15 14 15 15 14 14 14 13 13 11 8
19 20 21 19 21 21 20 18 17 16 15 14 13 9 6 4 3 2 2 2 3 3 4 5 7 8 8 9 10 10 11 11 11 12 12 11 11 11 11 10 9 8 7
18 19 17 18 20 20 18 17 15 14 14 14 12 11 7 4 3 3 2 2 2 2 2 4 6 6 6 8 9 9 10 10 11 11 10 10 10 10 9 8 6 5 4

GFSGL_700_spd_009.txt.gz
Wind_Speed
50 51 46 45 46 43 41 43 47 48 49 46 40 41 42 37 34 35 38 41 43 44 42 40 40 40 41 41 41 41 43 43 51 53 51 50 50 50 48 48 51 46 48
50 50 53 52 45 40 37 39 43 41 37 39 41 37 33 34 36 39 42 44 43 41 39 38 39 38 39 41 42 42 43 44 48 56 52 53 54 54 52 50 50 56 48
54 54 54 49 41 39 36 35 34 33 36 34 34 34 36 37 40 41 42 41 40 39 40 41 41 40 40 40 42 44 46 46 47 52 55 54 54 53 52 49 47 49 50
54 53 50 42 40 36 37 33 34 34 30 33 34 35 37 39 39 40 40 40 41 42 43 42 41 41 42 42 43 43 45 48 49 52 54 54 53 51 51 50 49 47 46
47 48 50 45 39 38 39 35 32 30 32 34 37 39 39 38 39 39 42 44 44 43 42 42 43 44 45 47 47 47 47 47 48 50 53 54 54 52 52 48 49 47 46
41 44 45 39 40 41 34 30 27 29 34 38 39 39 39 39 40 42 42 42 43 44 45 45 45 45 44 43 42 42 42 43 44 45 48 50 51 51 53 52 47 46 48
35 37 35 35 39 31 34 32 31 35 37 38 37 38 38 40 40 39 40 44 46 47 46 43 40 36 35 35 35 36 38 39 41 41 45 47 48 48 51 53 51 43 50
30 28 29 30 30 30 30 32 34 36 36 35 36 37 39 37 38 40 42 44 46 41 37 35 36 34 32 33 35 36 36 36 39 40 43 41 42 43 46 48 51 54 55
24 22 23 26 27 31 33 34 35 34 34 35 36 37 37 37 37 40 43 43 37 35 34 34 36 36 33 32 36 37 36 36 34 38 41 42 40 40 41 43 49 51 58
22 22 21 27 31 34 35 33 33 34 35 36 37 37 36 37 39 41 36 33 33 35 34 35 35 36 34 31 32 33 35 35 31 30 33 37 38 39 39 42 43 49 53
20 20 25 31 34 33 32 32 33 34 35 36 36 36 35 37 39 33 28 29 30 31 34 32 29 26 25 25 25 28 29 27 31 33 30 31 32 34 36 39 42 46 48
24 27 29 31 31 30 31 32 33 33 34 35 36 33 33 35 29 24 23 23 25 27 29 27 23 20 19 19 20 20 20 22 25 29 31 31 30 30 30 30 37 42 46
27 29 29 29 28 28 31 33 33 33 33 35 34 32 33 28 20 18 19 21 22 24 25 24 22 21 20 17 16 18 20 21 23 27 28 30 29 27 25 25 28 32 36
28 28 28 27 28 30 31 32 31 32 33 35 33 31 31 20 17 17 18 20 23 25 25 23 23 20 16 14 13 14 16 18 20 19 19 21 22 24 22 18 19 20 22
27 28 28 28 30 30 31 30 30 31 34 36 32 31 29 18 16 18 20 21 24 26 25 23 22 18 9 6 6 9 11 7 4 4 7 10 12 15 16 17 15 15 20
28 29 29 29 29 30 29 28 29 29 31 30 28 28 22 19 16 16 17 19 21 22 23 25 24 15 6 6 7 8 6 5 5 2 1 6 8 8 10 15 13 12 17
28 30 29 30 31 29 28 29 30 26 27 27 24 24 18 16 13 13 14 17 19 20 23 27 28 19 10 8 7 8 8 8 5 6 9 14 8 5 7 6 6 9 14
29 30 29 30 27 26 28 29 29 29 28 22 20 19 14 12 11 11 12 15 16 20 22 26 29 26 14 9 8 7 7 6 5 7 6 9 3 6 7 8 8 5 7
31 31 30 28 26 27 28 28 28 27 27 22 18 14 12 10 9 9 10 11 15 19 22 23 25 27 25 20 13 10 7 6 3 1 2 4 5 6 7 12 13 12 10
31 30 28 26 26 26 27 26 26 25 25 19 17 12 9 6 5 5 6 8 12 16 20 21 22 22 24 24 23 20 15 9 3 4 8 11 11 11 10 9 9 9 9
29 27 25 23 24 26 25 25 25 23 23 17 16 12 9 6 4 4 4 5 9 13 17 20 20 19 20 21 22 23 22 21 18 13 6 3 9 10 9 6 4 5 9
26 25 22 22 24 22 24 24 23 21 20 17 14 11 8 7 5 4 4 5 7 10 13 16 17 16 16 17 18 19 19 19 20 20 20 17 11 2 5 7 9 9 10
24 21 21 22 21 22 23 22 21 19 17 18 15 11 7 6 4 3 3 4 5 7 10 12 13 14 14 15 16 16 17 18 19 19 19 19 19 17 11 4 5 8 9
17 19 21 20 20 22 22 21 19 18 17 17 17 12 8 5 4 3 2 2 3 4 6 7 8 9 12 13 14 14 15 15 16 16 17 18 17 17 16 15 12 8 4
17 18 19 18 20 22 21 20 19 17 17 16 15 15 9 6 5 3 2 2 2 3 4 5 6 8 9 9 10 11 11 12 13 13 13 13 13 13 13 13 12 11 10
17 18 18 18 20 21 20 19 18 18 16 15 15 14 11 7 4 4 3 2 2 2 2 4 6 6 7 8 9 10 10 11 11 11 11 11 11 11 11 10 8 8 7

GFSGL_700_spd_012.txt.gz
Wind_Speed
49 49 49 51 52 50 45 36 33 33 35 39 38 38 37 40 41 38 37 37 39 41 41 42 44 42 41 41 42 44 47 48 54 54 50 48 47 46 44 44 46 47 50
49 50 52 53 52 45 37 36 35 34 35 38 36 35 36 35 37 37 38 39 40 42 43 42 42 40 40 41 42 44 46 47 50 54 51 49 48 48 48 48 48 48 49
53 53 53 52 48 43 40 35 32 31 29 32 34 35 36 36 37 38 40 41 41 42 42 41 40 41 43 43 44 45 46 48 50 53 54 51 50 49 50 50 50 51 50
52 51 50 49 40 42 40 34 33 34 31 30 32 34 36 37 38 39 40 40 40 41 41 43 44 43 42 41 42 43 45 47 49 53 55 55 54 52 51 51 50 48 50
49 48 44 42 40 43 40 38 37 29 26 28 32 34 36 38 38 39 39 41 43 43 41 40 40 42 43 44 46 46 47 48 48 50 53 55 55 54 53 52 52 49 46
49 43 36 32 34 39 35 32 33 33 31 31 34 36 37 37 38 39 42 43 43 43 43 43 43 45 45 44 44 44 45 46 47 48 48 48 48 49 49 49 47 49 49
41 32 25 21 26 31 33 33 32 33 33 35 36 35 36 37 38 40 41 42 43 44 44 45 42 36 33 34 34 36 39 40 43 44 45 43 42 41 39 41 41 44 45
30 23 22 22 24 27 30 32 34 35 35 35 35 35 36 37 38 39 40 42 43 43 39 33 33 33 32 35 37 38 39 39 40 41 45 44 42 38 36 36 37 39 39
26 25 25 25 27 27 32 36 36 35 34 34 35 36 37 37 38 38 40 40 40 32 29 30 33 35 35 35 39 41 41 39 36 38 42 42 41 41 37 36 37 37 40
25 25 22 22 27 32 35 35 33 33 34 35 35 35 37 38 36 36 38 36 29 29 27 28 29 32 32 30 31 32 35 31 32 34 36 39 38 37 37 37 37 38 38
22 21 25 26 31 32 32 32 32 33 34 35 34 34 37 37 34 35 30 27 27 28 28 28 28 27 26 23 23 25 26 25 26 29 31 34 35 33 32 33 35 38 38
25 25 28 30 31 30 30 31 32 34 35 34 34 33 34 30 31 27 23 22 24 27 26 27 27 27 26 24 22 19 19 20 21 23 24 25 29 29 28 28 28 32 36
26 29 30 30 29 29 30 31 32 33 34 34 34 33 30 26 25 19 18 20 20 20 23 27 29 29 26 23 19 16 15 17 20 21 21 21 22 25 27 28 27 28 30
27 28 27 28 28 30 30 31 32 33 33 33 33 32 27 24 18 15 15 15 15 18 23 29 32 30 20 11 7 8 11 14 17 16 14 15 18 20 22 25 26 23 26
27 27 26 28 29 29 30 31 30 31 32 33 33 32 28 23 15 13 14 14 17 20 23 28 28 17 9 6 5 7 7 8 7 7 6 7 11 14 16 19 19 16 15
27 26 27 29 31 31 29 28 29 29 29 31 31 29 24 23 15 12 11 12 15 19 22 24 26 14 7 5 5 5 5 5 6 7 9 6 3 2 3 8 13 11 12
25 28 30 30 30 29 27 27 27 27 27 29 28 25 23 18 12 10 9 10 15 18 19 21 23 20 11 8 6 6 6 6 6 5 5 8 6 5 3 4 6 4 7
28 30 29 29 28 26 26 27 28 28 28 25 25 21 20 15 11 8 7 9 13 15 18 19 21 23 21 13 9 7 5 3 2 4 6 4 2 4 5 4 4 3 5
30 29 28 27 25 25 26 27 26 27 26 25 21 18 16 13 10 7 6 7 10 14 17 18 19 21 22 20 17 13 10 7 3 1 2 2 1 1 3 6 8 8 8
28 27 27 26 24 25 25 25 26 25 24 23 19 17 12 9 7 7 5 5 8 12 15 16 17 18 18 19 21 21 19 16 11 6 7 8 9 7 5 6 7 9 8
27 25 24 22 24 23 24 25 24 24 23 19 21 16 11 8 6 4 3 3 5 9 12 14 15 16 17 17 18 18 18 19 19 17 14 6 4 7 6 3 2 4 8
24 22 20 21 22 23 25 24 23 22 20 20 20 15 12 8 7 5 3 2 3 5 9 11 12 14 15 16 16 16 16 16 17 18 20 19 13 4 3 5 6 3 6
19 17 19 20 20 22 24 23 22 20 20 19 19 17 12 8 7 6 4 3 3 4 6 9 11 12 12 13 14 14 14 14 15 16 17 19 19 17 10 5 3 4 6
16 17 18 19 20 22 24 22 21 21 20 17 17 19 12 9 7 6 5 4 3 3 4 6 8 9 11 11 12 12 13 12 13 13 13 15 15 16 16 15 11 5 2
18 18 18 18 19 21 22 21 20 21 19 15 16 17 15 10 7 6 6 4 3 3 3 3 5 7 8 9 10 11 12 13 13 13 13 14 14 13 12 11 11 10 9
18 17 18 18 19 20 21 20 19 20 18 15 14 14 16 13 9 5 5 5 3 2 3 5 5 6 6 8 9 9 10 11 12 12 12 12 11 11 10 9 9 8 7

GFSGL_700_spd_015.txt.gz
Wind_Speed
51 50 50 52 54 55 53 48 38 32 30 30 29 30 38 43 44 41 39 39 40 42 42 44 46 47 48 49 49 49 49 49 55 56 55 53 51 50 50 46 43 42 47
47 48 49 51 54 54 53 46 35 34 32 28 28 30 32 36 37 38 40 42 44 45 45 45 46 45 46 45 45 45 46 46 49 55 55 55 53 51 51 51 48 46 45
45 48 50 51 51 50 44 38 35 39 36 29 31 32 34 35 37 40 44 45 46 46 45 44 43 42 43 43 44 46 48 49 51 54 56 56 55 51 49 50 51 50 48
51 52 53 52 48 39 35 35 39 40 35 33 29 29 30 34 38 41 43 44 43 42 41 41 42 42 42 42 42 43 45 47 48 50 52 53 54 53 50 48 48 48 48
55 51 51 48 36 31 33 37 35 32 30 31 30 32 32 35 38 40 41 42 42 42 40 40 40 41 42 44 46 46 47 49 50 51 52 52 53 53 52 49 49 46 47
56 51 43 32 23 27 23 25 27 30 32 32 32 33 36 38 39 41 43 43 43 42 42 41 41 43 43 45 46 46 45 46 47 47 49 49 49 48 47 46 45 44 45
51 44 32 24 22 24 28 30 32 34 36 36 37 37 38 39 40 42 42 43 42 41 42 43 44 43 39 36 35 36 38 40 42 43 44 43 42 39 39 40 39 39 39
42 32 31 26 27 27 26 27 33 35 37 37 36 37 38 39 41 41 41 41 41 40 41 42 36 32 31 33 35 37 38 39 40 41 43 42 40 40 40 38 36 36 36
30 29 29 26 24 25 30 32 35 37 37 36 36 38 40 40 39 39 40 39 37 38 34 29 30 32 32 33 36 37 36 34 33 35 39 40 41 40 39 38 37 35 37
28 27 28 30 31 29 32 34 35 36 36 37 37 38 39 39 38 38 38 36 37 29 26 26 29 32 34 33 34 35 34 27 25 25 28 31 33 34 35 36 35 35 34
30 30 31 30 31 32 33 34 34 35 37 36 37 37 37 38 37 37 34 35 29 26 26 26 26 28 29 29 30 30 29 25 22 22 22 23 25 28 31 33 33 32 30
24 30 29 30 33 34 33 33 35 36 35 36 36 36 34 34 35 32 31 27 25 26 24 25 27 28 29 26 23 22 20 18 20 20 21 21 21 20 22 26 28 29 28
31 31 28 31 33 32 33 34 35 35 36 35 35 35 33 31 30 27 24 21 21 21 22 25 29 32 25 15 11 9 9 12 16 19 21 20 17 14 17 23 26 28 26
27 30 31 31 31 33 34 35 35 34 34 34 34 34 32 30 25 22 18 17 15 15 18 22 27 26 16 11 9 10 11 11 12 14 13 10 14 16 16 16 23 26 27
31 31 31 31 33 34 34 34 33 32 33 33 33 34 33 28 21 18 15 11 11 14 17 21 24 18 12 11 11 10 10 10 9 10 10 8 5 6 10 14 17 21 25
29 30 31 33 34 33 32 30 29 30 30 31 31 32 30 26 22 16 12 9 9 13 16 18 21 19 10 8 7 8 9 9 9 9 8 8 9 9 5 3 5 9 9
29 30 32 32 30 29 29 28 28 28 28 30 29 29 26 22 19 13 10 7 7 11 14 15 18 20 15 9 8 8 9 8 7 6 3 5 6 6 7 5 2 1 4
29 31 30 29 28 27 26 28 28 29 29 27 26 25 21 20 17 12 8 5 7 10 12 12 14 17 18 17 15 13 10 8 6 5 4 3 1 1 1 1 1 2 4
29 29 28 27 26 26 27 26 28 29 28 26 23 23 21 17 15 11 6 5 5 7 10 10 12 13 15 17 18 19 18 14 8 6 8 7 5 4 4 6 8 7 8
28 28 25 24 24 25 24 27 28 27 26 24 23 24 18 14 12 10 8 5 5 6 8 10 10 12 14 15 16 17 17 17 17 14 7 8 8 9 9 9 9 8 9
25 23 22 21 23 23 25 27 27 26 25 24 23 23 18 13 10 8 6 5 5 4 5 7 9 11 12 13 15 15 16 17 17 18 17 10 2 5 7 5 4 5 4
20 20 20 21 22 22 24 27 25 25 24 23 20 21 17 13 9 8 7 6 5 3 3 4 6 8 10 10 11 13 14 15 16 17 19 19 14 4 3 5 5 4 2
19 19 20 20 21 22 24 26 25 24 24 22 20 20 18 13 9 8 7 7 6 5 4 4 5 7 8 8 10 11 12 12 13 15 16 16 17 15 8 3 2 2 3
19 19 18 19 20 21 23 25 24 23 22 22 20 19 18 13 10 7 7 6 6 6 5 4 6 7 7 8 10 11 12 12 13 14 14 15 14 14 14 13 10 5 2
19 18 18 19 19 21 21 23 23 22 21 21 20 18 17 16 10 6 5 6 5 4 3 3 6 7 7 8 9 10 11 11 11 11 12 11 11 12 12 12 11 10 9
19 19 18 19 19 19 21 22 22 22 20 19 18 17 15 16 14 10 7 6 4 2 2 5 6 6 7 8 9 9 10 11 11 11 10 10 10 9 9 9 9 8 8

GFSGL_700_spd_018.txt.gz
Wind_Speed
45 42 43 47 51 55 56 54 54 52 43 34 30 32 32 26 30 34 36 38 41 39 37 39 41 42 44 46 46 47 49 51 56 57 56 55 54 55 55 51 51 50 48
40 43 50 53 53 54 57 57 53 43 36 33 35 34 31 31 32 32 33 35 38 40 43 45 46 45 45 45 45 45 46 46 49 53 50 50 49 49 50 49 47 50 48
46 51 52 54 57 57 54 48 41 35 34 37 38 33 30 30 30 33 34 36 39 42 44 45 44 43 43 42 42 44 45 46 47 50 51 50 51 49 50 50 46 47 47
50 54 56 57 56 51 43 36 32 30 33 33 32 31 30 32 32 34 35 37 40 41 41 41 41 41 42 42 42 42 43 45 47 50 50 50 51 49 49 48 46 43 45
55 58 57 57 50 40 33 31 26 26 28 29 29 36 30 30 32 35 37 40 41 40 39 39 39 40 40 41 43 43 46 47 48 50 51 49 50 51 50 47 46 43 43
58 57 54 44 34 33 29 29 33 34 33 35 35 35 35 36 36 38 40 42 43 43 41 39 39 39 40 42 43 44 44 43 42 42 42 42 41 41 41 41 40 41 40
55 49 34 34 30 30 28 29 29 31 33 34 35 35 35 36 38 40 42 43 42 40 39 40 39 39 40 39 36 34 34 35 38 40 43 41 41 37 36 37 36 35 34
44 34 31 29 32 31 31 33 34 33 35 35 35 35 36 36 39 40 41 40 38 37 39 37 38 35 30 32 34 34 35 34 33 35 38 39 39 39 38 37 35 33 32
33 31 31 31 32 33 34 32 34 34 35 35 36 37 38 38 39 40 40 38 36 37 34 33 30 29 29 31 34 36 36 33 32 32 30 31 31 32 34 35 35 33 33
33 33 34 33 34 35 33 34 35 35 35 37 37 37 38 38 38 38 38 37 36 33 29 24 26 27 28 31 34 35 35 32 29 27 25 25 25 25 25 31 32 32 31
34 33 35 36 36 32 34 36 35 35 36 37 38 37 37 37 37 37 36 36 34 31 24 24 24 24 28 32 33 31 29 26 23 22 19 19 20 22 22 24 28 30 30
36 32 34 31 33 35 35 34 36 38 39 39 38 35 34 34 35 35 35 33 30 26 24 23 24 26 28 22 15 13 13 13 12 13 16 18 20 20 18 21 23 26 28
31 29 31 33 34 35 36 37 38 38 38 37 35 35 34 32 32 32 30 28 24 22 21 22 22 25 21 13 11 12 13 13 13 13 15 16 18 18 18 18 18 19 19
31 32 32 33 33 36 37 37 37 36 34 34 34 34 33 31 30 28 23 20 18 16 16 17 19 22 15 9 10 13 14 14 13 12 12 13 13 11 12 15 15 13 17
31 31 32 33 35 36 35 34 33 32 33 34 34 34 34 31 28 23 20 16 13 12 13 15 17 19 14 11 11 12 13 12 12 11 11 9 8 8 7 8 12 14 14
30 31 32 34 34 33 32 29 28 30 31 32 32 33 31 29 25 21 16 14 12 11 12 13 15 17 14 9 9 9 9 10 10 7 6 7 8 9 10 6 4 4 3
30 31 32 33 32 30 28 29 29 28 30 31 30 29 26 27 22 18 14 12 10 10 11 11 12 14 15 15 12 9 7 7 6 5 5 5 6 7 7 5 5 4 3
30 31 31 30 29 27 27 28 29 32 31 28 27 26 27 25 19 16 12 10 10 10 10 9 10 11 12 14 14 14 14 11 8 7 7 7 7 6 5 4 4 6 4
27 27 27 26 25 26 27 27 30 31 30 28 25 25 26 22 17 14 11 8 8 8 8 8 9 9 11 12 14 15 16 17 17 14 9 10 9 8 7 7 7 8 8
24 24 24 24 24 25 26 27 29 29 28 28 27 24 24 19 14 12 10 9 7 7 7 7 7 8 10 11 12 13 15 16 17 18 17 9 8 10 10 8 7 9 10
21 21 23 25 24 24 25 27 29 28 27 28 26 25 25 19 13 9 8 7 7 6 7 6 6 7 8 11 12 13 14 15 16 17 18 18 10 5 5 6 5 6 7
20 21 23 23 22 23 24 26 28 27 26 26 25 25 23 20 14 9 9 7 6 6 6 6 7 6 8 9 10 11 12 14 14 14 15 17 18 13 7 5 5 5 4
19 20 22 22 22 23 24 25 27 26 26 24 23 24 23 21 15 10 8 7 7 6 6 6 4 5 7 8 9 10 11 12 12 14 15 15 16 16 15 11 6 5 4
18 20 22 23 23 23 23 24 25 26 25 23 22 22 21 21 17 11 7 7 6 6 5 3 3 5 6 7 8 9 10 11 11 13 14 13 13 13 14 13 12 11 9
18 20 22 22 22 22 23 23 24 24 24 23 21 20 19 18 18 13 7 7 7 5 2 2 4 5 6 7 8 9 9 10 11 12 12 12 12 12 12 11 11 11 10
18 20 22 22 21 22 22 22 22 23 22 21 20 19 17 15 15 15 13 9 7 4 3 4 5 6 7 7 8 9 10 11 11 11 11 11 11 11 11 11 11 10 10

GFSGL_700_spd_024.txt.gz
Wind_Speed
35 35 37 41 45 49 53 56 57 54 45 36 32 29 26 29 33 31 30 27 28 29 30 31 33 34 34 34 34 33 33 34 38 37 38 38 41 44 45 45 47 52 54
35 38 42 46 49 52 53 52 45 37 32 28 28 26 29 33 36 38 38 36 34 33 33 35 35 33 34 35 36 38 38 37 37 40 40 40 41 42 44 45 46 48 50
38 41 46 50 52 52 50 43 36 33 30 30 28 26 29 32 35 35 34 32 31 31 31 31 31 32 33 34 36 38 40 41 42 43 45 43 43 42 43 44 45 45 46
41 44 48 50 51 47 41 34 32 21 23 23 25 30 32 34 33 31 30 31 31 31 32 32 33 34 35 37 39 40 41 41 41 42 42 42 41 40 42 43 44 44 45
42 45 47 47 41 34 29 28 24 29 27 28 35 35 32 31 32 30 30 31 32 33 34 34 34 35 36 38 39 38 38 39 40 41 40 40 42 43 43 43 44 43 43
42 44 43 39 33 31 29 29 31 34 36 37 36 33 31 31 31 32 33 34 35 35 35 34 34 36 36 36 34 36 36 35 37 39 39 39 37 35 35 36 37 38 38
41 41 39 36 33 31 32 33 33 35 35 33 32 32 31 32 34 35 36 36 36 35 34 33 34 34 34 33 33 32 32 32 32 32 34 33 34 34 35 36 36 37 38
39 37 36 35 34 34 33 34 34 32 32 31 32 33 34 35 36 36 36 36 35 33 33 33 34 32 30 30 29 28 29 29 30 31 34 34 34 33 33 34 35 37 37
38 36 33 34 34 33 32 32 32 31 32 33 34 35 35 34 35 34 34 33 33 32 32 33 32 30 27 26 26 27 27 27 30 33 33 34 35 34 32 32 34 34 33
38 36 34 31 31 32 31 31 32 33 35 35 34 34 33 33 33 33 34 34 34 34 32 30 29 26 24 23 24 25 27 26 22 18 18 19 19 22 23 27 28 30 29
38 36 32 29 31 30 30 32 33 35 34 33 32 32 33 33 32 33 34 33 33 33 30 27 23 22 20 21 22 24 24 16 14 15 14 14 12 13 14 18 21 23 25
38 35 30 30 29 30 32 33 33 32 31 30 32 32 34 34 33 31 30 29 29 29 26 23 20 19 19 20 21 21 14 12 13 11 12 11 12 13 13 16 20 23 24
37 33 29 28 29 31 32 31 30 29 29 31 32 34 33 32 31 28 27 27 25 23 22 19 18 17 17 18 18 12 10 10 8 9 9 8 8 8 9 11 12 16 17
35 29 27 28 28 29 29 29 28 28 29 32 34 35 33 31 30 28 28 22 19 17 15 13 14 13 15 14 9 8 9 7 7 7 4 3 5 8 10 10 8 8 12
33 25 25 27 27 26 25 25 25 28 29 33 34 33 33 31 29 28 25 20 17 13 11 11 10 11 12 12 8 7 6 5 6 5 2 3 5 6 8 10 10 8 7
29 22 24 24 24 23 23 23 25 25 29 32 32 32 31 30 28 26 20 17 14 11 9 10 10 9 9 8 7 7 6 6 6 6 6 4 3 3 4 5 6 8 8
21 20 22 21 21 20 22 22 22 26 29 29 30 30 30 29 28 23 17 14 12 10 10 10 9 8 7 7 8 10 10 10 9 8 9 7 7 6 5 4 5 6 6
15 19 18 18 18 20 20 21 23 25 28 29 31 29 29 28 28 21 14 12 12 11 10 9 8 7 6 7 7 9 10 10 10 11 6 8 10 9 7 7 7 8 6
15 16 16 16 17 19 19 21 22 25 27 28 29 29 28 27 27 20 14 11 10 9 9 8 8 8 8 6 8 10 9 9 11 13 12 4 4 8 9 9 8 9 9
14 14 15 15 17 19 20 21 22 24 26 28 28 27 27 26 26 19 14 12 10 9 9 8 8 8 7 8 9 9 9 9 10 11 13 11 5 2 5 7 6 5 6
14 15 15 16 18 19 20 21 22 23 24 26 27 27 26 25 26 21 14 11 10 9 8 8 8 7 6 7 8 8 9 10 11 11 11 12 11 5 3 4 5 6 6
14 14 14 16 18 20 20 20 21 22 23 24 25 26 25 24 24 23 16 11 10 9 8 7 6 4 5 6 7 8 9 9 10 9 9 9 9 9 9 6 4 4 5
14 14 15 17 19 20 20 19 20 21 22 23 23 24 24 22 21 21 18 13 10 9 8 6 3 1 3 5 6 7 8 8 8 8 8 8 8 8 8 7 7 7 7
14 15 15 17 18 19 20 19 19 20 21 22 21 22 22 21 20 19 18 15 11 9 8 6 3 1 2 4 5 6 7 7 7 7 8 8 8 8 7 7 7 7 7
14 15 16 16 18 19 20 20 19 19 20 21 20 20 20 20 19 17 16 15 13 10 8 7 4 2 3 4 5 5 6 7 7 8 8 8 8 8 9 9 8 8 7
15 15 15 16 18 19 20 20 20 19 19 20 19 19 19 18 18 16 15 14 12 10 8 6 5 4 3 4 6 7 8 8 9 9 9 9 9 9 10 10 10 9 9

GFSGL_700_spd_030.txt.gz
Wind_Speed
38 36 37 37 38 39 40 44 47 49 47 47 45 40 32 28 28 27 34 35 34 37 37 33 29 29 27 29 30 29 28 29 32 33 28 29 32 35 34 34 36 39 39
36 38 38 40 40 41 43 46 47 48 47 45 34 33 32 33 33 38 41 39 38 32 34 32 35 33 34 30 30 30 29 28 31 35 35 32 31 32 33 34 34 36 39
35 38 38 42 42 43 47 48 46 45 43 36 35 35 34 39 45 43 40 35 38 32 32 34 34 33 32 31 31 32 32 32 33 36 38 36 34 33 33 34 36 37 38
36 39 41 44 44 47 47 45 42 40 35 34 35 34 35 37 37 37 36 34 34 34 34 35 35 35 35 36 36 34 34 36 36 37 38 37 36 32 29 29 32 31 32
35 39 41 48 46 47 44 42 40 38 37 34 32 33 33 33 33 33 36 36 35 36 36 36 36 35 35 36 36 40 39 36 36 36 37 38 37 34 33 32 34 34 36
37 40 40 41 50 48 40 35 35 34 33 34 35 32 32 32 35 38 36 33 33 35 36 35 35 34 32 31 32 35 34 32 31 33 35 37 35 34 34 36 38 39 40
42 37 30 40 48 45 38 33 36 35 36 36 33 33 33 32 34 36 34 34 36 36 37 36 35 34 33 34 34 34 33 33 34 33 34 31 31 29 31 32 33 35 36
47 42 41 44 44 44 40 36 36 36 36 36 33 31 29 29 34 36 36 36 37 38 37 36 35 33 32 32 32 33 33 34 33 31 29 26 28 26 28 30 32 35 37
47 32 39 33 41 41 45 37 38 37 37 34 29 28 30 31 33 36 37 35 34 35 33 32 30 30 29 29 30 29 29 28 25 25 26 25 24 25 25 26 27 30 33
43 36 41 35 27 42 42 40 39 35 33 31 26 28 31 33 35 36 36 35 35 33 31 30 28 26 25 25 24 25 25 23 24 23 24 23 22 17 18 21 22 24 23
43 38 40 48 34 42 39 40 37 31 31 29 27 28 31 33 35 35 35 34 33 33 32 29 24 21 21 23 23 23 24 23 21 21 19 15 15 15 13 16 19 20 20
38 46 37 34 35 35 37 37 30 32 29 28 27 28 31 34 35 35 34 34 33 34 29 25 22 20 19 18 19 20 20 19 17 12 11 12 13 13 14 15 16 16 17
40 40 44 41 39 35 35 29 29 27 26 27 28 30 33 34 34 33 32 32 31 26 23 22 20 17 16 15 15 15 13 9 8 9 8 9 9 7 6 7 9 11 12
37 37 40 36 31 32 30 22 25 24 24 27 28 30 32 34 33 33 32 31 24 20 19 17 16 15 14 13 12 9 7 8 8 8 7 8 7 6 6 4 3 7 9
34 31 31 28 31 31 20 21 21 22 25 27 28 29 32 34 33 32 35 29 22 19 17 16 14 13 11 11 10 8 4 5 7 7 8 9 8 6 4 5 6 5 6
30 26 27 27 26 18 17 18 20 22 24 25 27 27 28 32 32 31 32 26 20 17 16 15 13 12 11 10 9 9 8 6 5 8 10 11 10 9 8 7 6 8 8
31 27 25 21 15 15 16 18 21 21 24 25 26 27 28 30 31 30 31 26 18 16 14 14 13 12 11 10 7 6 6 6 5 5 6 9 12 12 12 10 9 10 10
24 22 15 14 15 16 17 18 21 23 25 26 27 28 28 30 31 30 28 25 17 15 14 13 13 12 11 9 5 4 8 7 7 7 7 3 4 11 11 10 10 10 10
20 13 13 14 15 16 17 18 21 23 24 25 27 28 29 28 30 29 28 26 19 15 14 13 12 12 10 6 7 8 8 8 8 8 10 9 4 3 5 8 9 10 11
13 12 14 14 15 16 17 19 20 23 24 25 26 25 26 26 27 28 26 25 20 16 15 13 12 11 7 3 5 7 8 9 9 9 9 9 9 6 5 5 6 9 10
12 14 14 14 15 16 16 18 20 23 24 24 25 25 25 25 25 26 26 24 22 18 15 13 11 9 6 4 4 6 8 8 8 8 8 8 8 7 7 7 6 7 8
14 14 14 15 15 16 16 17 19 21 23 24 24 25 24 24 24 25 25 23 22 20 16 13 11 9 7 6 5 6 7 8 8 8 8 8 8 7 7 7 7 7 7
15 15 15 15 16 15 15 16 18 20 22 23 23 24 24 23 23 23 23 22 20 19 17 14 12 10 8 6 6 6 7 7 7 7 8 8 8 8 8 8 8 8 8
17 16 16 16 16 16 15 16 18 20 21 22 23 23 24 23 22 21 22 21 20 18 16 15 13 11 10 8 6 6 7 8 8 8 8 8 8 9 8 9 9 9 9
18 17 17 16 17 16 15 16 18 19 21 22 22 24 24 24 22 21 20 21 19 17 16 15 13 12 11 10 9 8 7 8 8 9 9 9 9 9 9 10 10 10 10
19 18 17 17 17 17 17 17 18 19 20 21 22 23 23 23 22 20 19 19 18 17 15 14 13 12 11 10 10 9 8 7 8 9 9 9 9 10 11 11 12 12 12

GFSGL_700_spd_033.txt.gz
Wind_Speed
53 47 40 35 40 40 39 40 41 45 48 47 45 43 42 37 37 36 35 36 39 40 41 36 29 29 29 32 33 32 33 31 34 36 35 30 27 27 27 29 31 31 35
46 40 37 39 40 38 39 41 46 46 46 44 40 36 32 34 33 34 38 41 40 38 37 33 31 33 33 34 34 34 33 32 35 37 36 34 32 26 27 29 30 30 33
39 40 40 40 42 43 43 45 43 46 40 36 31 31 33 34 35 36 38 38 37 34 34 35 37 38 37 36 35 35 34 34 35 36 36 34 33 30 28 30 32 33 33
43 42 39 46 49 50 47 45 46 40 37 35 35 33 33 34 35 35 34 34 34 35 35 36 37 38 37 37 37 36 36 36 36 36 38 38 37 34 32 30 32 33 35
47 40 45 52 53 48 44 43 39 42 41 35 35 34 36 39 37 34 32 31 32 34 35 35 36 36 36 35 36 35 34 34 33 32 32 34 35 33 32 32 34 31 30
44 43 43 50 40 43 42 45 39 41 41 37 37 38 41 37 30 32 32 33 35 37 38 37 36 35 35 35 35 35 35 36 35 34 32 32 30 32 31 33 34 34 34
48 38 41 45 52 56 43 41 35 39 36 38 36 41 35 28 31 34 35 37 38 39 40 39 36 34 33 34 34 34 34 34 35 36 37 33 31 27 29 30 30 31 32
42 48 50 49 48 62 43 35 32 36 36 38 40 35 27 28 30 33 36 38 38 36 35 35 35 33 31 31 31 31 31 31 32 35 34 30 29 25 26 26 25 28 30
44 44 47 46 50 47 31 31 34 37 37 35 37 28 28 29 30 34 37 38 36 34 33 31 31 31 30 28 28 28 27 26 26 27 26 27 25 22 20 22 24 25 25
39 43 46 48 47 31 42 32 33 33 35 40 29 25 27 29 32 35 37 36 36 35 32 31 26 24 23 23 25 24 22 21 23 23 22 23 23 21 20 19 16 19 19
43 47 49 44 40 38 30 34 31 32 37 30 25 25 26 29 33 36 36 37 37 37 32 27 23 21 19 18 19 21 20 18 17 17 17 17 17 15 12 11 13 18 19
45 38 38 37 33 26 35 29 28 33 30 25 25 25 27 29 32 35 34 35 36 34 28 24 22 19 17 16 16 16 16 16 14 10 9 9 10 11 12 15 17 18 18
36 33 35 30 25 29 28 27 31 24 22 23 25 25 26 28 31 33 33 32 32 27 23 22 20 19 17 15 14 15 15 11 9 8 8 8 8 8 8 8 8 6 7
33 32 30 27 23 25 25 23 20 20 22 23 24 25 26 28 31 32 31 30 28 22 20 18 18 17 16 15 13 12 12 9 8 8 7 7 6 6 7 8 5 2 5
34 32 31 28 26 24 17 15 17 18 21 23 24 25 25 26 29 31 32 32 30 22 19 18 16 14 13 13 12 11 9 6 6 7 8 7 7 8 9 7 5 5 4
32 32 29 23 21 14 14 15 17 19 20 22 23 24 24 26 27 29 30 31 30 21 18 17 15 14 14 13 11 9 9 9 7 5 8 10 11 12 12 9 7 6 5
30 27 23 22 12 12 14 15 15 17 20 22 23 23 23 24 26 27 29 29 28 21 18 16 15 14 13 12 10 8 7 9 9 9 8 7 12 16 15 12 11 10 10
24 21 18 13 13 14 14 15 17 19 20 21 22 23 23 24 25 27 27 27 26 22 19 16 14 13 12 10 6 6 8 9 9 9 10 7 5 10 13 13 14 13 11
19 17 14 14 14 14 14 15 16 18 21 23 23 23 23 23 24 26 26 25 25 23 19 16 14 13 11 7 4 6 7 8 8 8 8 9 6 4 5 8 10 10 9
17 13 14 14 14 13 14 14 15 17 20 22 23 22 23 22 22 23 23 23 23 23 20 17 14 12 9 6 4 4 7 8 9 8 7 7 7 7 4 3 4 5 6
16 15 14 14 14 14 14 14 14 16 19 21 22 22 23 23 21 21 22 22 22 21 20 18 15 13 9 7 5 4 4 8 9 8 7 7 6 7 6 5 4 4 4
17 17 16 16 16 15 15 14 14 15 18 20 21 22 22 22 21 20 21 21 21 20 19 17 15 13 11 9 6 5 6 7 8 9 8 8 7 6 6 6 6 5 5
19 19 18 17 17 16 15 14 14 15 17 19 20 21 22 22 22 20 19 20 20 19 18 17 15 13 11 11 9 6 5 7 7 8 8 8 7 7 7 6 6 7 6
20 20 19 18 17 16 16 15 15 15 17 18 19 20 21 22 22 20 19 18 19 18 17 16 15 13 12 11 10 9 8 7 7 7 7 7 7 7 7 6 6 7 8
20 20 20 19 17 17 16 16 16 16 17 18 18 19 19 20 21 21 20 18 17 17 17 16 15 14 12 11 10 10 9 8 6 6 6 7 7 6 6 6 7 8 8
22 22 21 19 18 18 17 17 17 17 17 17 18 18 19 19 20 20 20 19 18 16 16 16 15 14 13 11 10 8 8 8 7 6 5 6 8 8 9 9 9 9 10

GFSGL_700_spd_036.txt.gz
Wind_Speed
45 50 46 41 40 39 36 40 43 44 46 45 47 44 42 43 41 38 38 36 37 38 38 38 37 36 30 34 29 34 36 38 41 41 40 37 35 28 27 28 30 30 27
45 48 42 39 43 45 41 52 44 39 38 39 35 34 36 38 39 36 35 36 37 37 35 35 34 36 37 38 38 40 40 38 39 40 39 36 35 32 29 29 28 28 31
45 41 42 43 45 43 47 51 41 44 44 40 37 35 34 34 34 34 36 36 34 34 34 36 37 39 40 40 40 40 38 38 39 41 41 40 38 36 33 31 31 30 30
42 43 44 46 49 49 43 47 46 47 46 45 38 33 31 32 36 38 36 34 32 32 33 35 37 39 40 40 40 40 38 36 36 38 38 39 38 37 37 35 34 33 32
43 45 44 49 47 45 51 43 45 46 50 47 31 31 31 33 40 37 32 30 31 33 35 37 39 40 40 40 41 40 39 38 36 36 37 37 34 31 32 32 34 34 34
40 47 45 50 53 50 46 47 53 54 40 27 25 30 33 37 37 33 32 31 33 35 38 40 39 38 38 37 37 36 37 38 37 37 37 38 35 32 30 31 32 32 33
46 49 53 53 44 43 44 51 51 33 21 29 31 32 33 34 33 32 32 33 36 38 39 38 38 38 37 37 35 34 33 33 35 36 36 35 34 31 31 28 29 31 31
47 46 43 37 39 44 47 45 34 25 30 26 30 31 32 30 32 32 32 35 37 39 38 37 36 36 36 34 33 32 30 30 29 31 33 32 31 28 29 28 27 28 27
42 39 39 42 46 45 42 38 33 31 25 26 28 31 29 30 31 32 33 35 38 37 35 35 35 33 29 27 27 26 24 20 23 26 27 27 28 26 25 24 22 24 21
38 38 40 44 39 36 33 27 25 28 23 27 31 28 29 30 31 32 35 36 38 37 37 32 27 24 23 23 23 23 22 19 19 20 22 23 24 22 20 20 18 17 14
39 37 38 34 35 32 25 29 26 21 24 28 24 26 27 30 31 32 34 36 38 37 36 29 24 22 20 19 18 19 19 17 14 13 14 14 15 16 15 15 14 15 14
36 35 35 32 32 29 25 24 26 23 23 21 22 25 27 29 29 30 32 34 35 36 32 25 23 21 20 19 18 16 16 15 13 9 7 8 8 9 10 11 13 15 15
36 36 33 31 31 30 28 27 25 20 19 20 22 24 26 27 28 29 30 32 32 32 27 23 22 21 20 18 16 15 15 13 10 9 8 7 8 9 10 10 11 11 9
37 36 32 30 30 28 24 23 17 16 18 20 22 24 25 26 27 28 28 29 27 27 22 20 20 20 19 18 16 15 13 11 8 7 7 7 7 7 7 9 8 5 4
36 34 32 31 26 23 20 15 14 15 18 21 23 24 24 25 26 27 28 29 30 29 24 20 19 18 17 16 15 13 12 10 8 6 6 7 7 8 9 9 8 9 5
33 31 30 26 22 19 14 15 15 16 18 21 23 23 24 24 24 25 26 27 29 28 24 20 19 18 17 16 13 10 8 8 8 6 4 6 8 11 12 11 10 9 8
31 28 24 21 17 14 15 15 14 17 18 19 21 22 23 23 23 24 25 26 28 27 25 21 19 17 16 14 12 8 6 9 9 9 9 5 7 12 14 14 13 12 11
28 24 21 17 15 16 16 16 15 14 14 16 19 21 22 22 22 22 23 25 25 25 25 21 18 17 15 12 9 7 8 10 10 10 9 8 4 4 9 13 15 15 14
25 21 19 17 16 16 16 16 15 15 15 16 18 20 21 21 21 22 23 23 23 23 23 22 19 16 14 11 10 7 7 8 9 9 8 8 8 5 3 4 9 12 13
21 18 18 18 18 17 16 16 15 14 14 16 17 19 20 21 21 21 22 22 22 22 22 22 20 17 13 11 9 8 6 8 10 9 8 7 6 5 5 3 3 5 7
19 18 19 19 19 19 17 17 16 14 14 15 17 18 19 20 21 21 21 20 21 21 20 20 19 18 14 12 11 9 8 6 6 9 8 7 7 6 4 4 3 2 3
21 20 20 20 20 20 19 18 17 15 15 15 16 17 18 19 20 20 20 20 20 20 20 19 18 17 15 12 11 11 9 7 7 8 8 8 7 6 5 5 5 4 4
21 20 21 21 21 20 19 19 18 17 16 16 16 16 18 18 18 19 20 20 19 19 19 18 17 17 16 14 12 10 11 10 8 8 8 8 8 7 6 6 6 5 5
21 21 22 21 21 21 19 19 19 18 18 17 17 17 17 18 18 18 19 19 19 19 19 18 17 16 16 15 14 12 11 11 11 9 7 7 7 7 6 6 6 6 6
22 22 22 22 21 21 20 19 19 19 19 19 19 18 17 17 18 18 17 18 19 19 18 18 17 16 16 15 14 13 11 10 9 9 8 6 6 6 6 6 7 7 7
22 23 23 22 21 22 21 20 19 20 20 21 20 19 19 18 18 18 18 18 18 18 19 18 17 16 15 15 14 12 11 10 9 8 7 5 5 6 7 7 8 8 8

GFSGL_700_spd_039.txt.gz
Wind_Speed
43 44 45 44 42 42 46 47 46 45 47 45 45 44 43 41 39 35 34 37 40 41 40 38 36 36 37 36 33 37 36 39 44 45 42 40 39 37 35 33 33 36 35
41 42 42 45 47 45 45 48 50 48 49 47 40 46 42 44 35 34 35 37 40 40 38 36 35 36 37 39 40 41 41 39 40 42 40 39 40 38 35 34 31 32 35
42 45 46 45 47 49 49 50 49 47 43 41 45 45 48 37 27 30 34 39 38 33 33 34 35 36 38 39 41 42 42 41 40 40 39 38 38 38 36 36 36 34 34
44 46 47 48 49 51 51 52 46 41 41 48 48 39 29 24 28 32 37 37 31 32 33 34 36 38 40 42 42 42 41 41 40 39 38 38 38 36 36 34 36 36 36
45 46 46 47 49 51 46 38 39 41 44 48 34 23 19 25 33 36 37 32 31 32 33 36 39 41 41 41 41 40 40 39 39 37 37 37 37 36 35 33 33 33 34
45 45 46 46 47 46 43 42 44 44 44 39 33 21 23 29 34 36 33 31 32 34 37 38 41 41 41 41 40 39 38 37 37 36 35 35 35 34 34 34 33 31 32
43 45 46 47 46 45 43 42 40 36 32 28 32 23 24 29 35 33 31 32 35 37 39 41 42 41 42 42 39 36 35 34 34 34 34 33 32 30 31 31 30 30 28
43 44 44 44 43 40 39 36 35 29 24 25 25 23 25 32 32 30 31 33 35 37 39 41 40 41 38 34 32 29 27 25 23 26 29 30 28 26 27 27 27 27 26
43 41 39 39 38 39 35 34 29 24 27 24 22 25 30 28 29 31 33 34 35 36 38 38 38 36 30 28 28 27 25 22 21 23 25 25 25 24 23 23 22 22 22
40 39 38 38 39 37 33 30 26 22 26 25 25 29 26 27 29 32 34 35 36 37 38 37 35 28 25 25 25 24 23 21 18 17 19 21 20 19 19 19 18 18 18
39 39 38 38 38 35 31 30 28 27 28 26 24 23 25 27 29 32 33 35 36 37 39 37 29 24 23 23 22 21 21 19 15 15 13 13 13 12 12 13 13 15 16
39 39 40 38 34 32 31 30 27 25 25 22 20 22 25 28 30 31 32 33 35 37 37 33 26 23 22 21 20 20 19 16 14 10 7 7 7 7 7 7 8 9 11
40 40 40 36 32 31 30 25 22 22 18 19 19 22 25 28 29 30 31 32 32 33 34 30 25 23 21 21 20 19 17 15 11 9 8 8 7 7 7 7 6 7 8
41 39 38 34 31 28 24 22 20 16 17 18 20 22 25 28 29 29 29 29 29 30 30 28 24 21 21 21 20 18 15 13 11 8 6 5 6 6 6 6 8 8 6
40 38 35 31 28 24 22 18 16 17 17 18 19 22 25 26 27 27 28 28 28 29 29 27 23 21 19 19 18 15 12 12 11 9 5 5 5 6 6 7 10 8 7
38 35 33 28 24 22 17 17 18 17 17 18 19 21 23 24 25 26 27 27 27 28 28 28 24 21 18 17 16 14 11 10 11 9 8 5 7 8 8 8 7 8 8
35 33 30 27 22 18 17 18 17 18 18 18 18 21 22 23 24 25 25 25 25 27 28 27 24 20 18 16 15 13 11 9 12 10 11 7 4 7 9 10 10 11 11
33 31 27 23 19 19 19 19 18 17 16 16 18 19 20 21 23 24 25 25 24 26 26 25 24 21 18 15 13 12 11 11 13 13 11 10 8 4 5 10 13 13 13
30 27 25 22 21 20 20 19 19 18 17 16 17 18 19 20 21 23 23 24 24 23 24 24 23 22 19 16 14 12 11 9 10 11 10 10 9 7 3 3 6 10 11
27 26 24 23 22 21 20 20 19 19 19 17 17 18 19 19 20 21 22 23 23 22 23 23 22 21 20 18 14 13 12 11 9 10 10 9 8 7 5 4 3 3 5
27 26 24 23 23 22 21 21 20 20 19 18 18 19 19 19 19 20 21 22 23 22 21 22 22 21 20 19 17 13 12 12 10 9 8 9 9 7 6 4 3 3 3
25 25 25 24 24 23 22 22 21 20 20 19 19 19 20 20 20 20 20 20 21 22 21 20 21 20 19 18 17 16 13 11 12 11 9 8 8 9 7 6 5 4 3
25 24 24 24 25 24 24 23 22 20 20 20 20 20 20 21 21 20 20 20 20 20 21 20 19 20 20 18 17 15 14 13 11 12 12 10 8 8 8 7 6 5 5
26 25 25 24 25 26 24 22 22 21 21 21 20 20 21 21 21 20 20 20 20 20 20 20 19 19 19 18 17 16 15 13 12 11 11 11 9 7 7 7 6 6 6
27 26 25 25 25 26 25 23 22 22 21 22 22 21 21 21 21 21 21 20 20 19 19 19 19 19 18 18 17 16 15 13 12 11 10 10 9 6 6 6 6 6 7
27 26 26 26 25 24 24 24 23 23 23 23 23 22 22 21 21 22 22 21 20 19 19 19 18 19 18 18 17 16 15 13 12 10 9 7 6 5 6 7 8 8 8

GFSGL_700_spd_042.txt.gz
Wind_Speed
40 41 42 44 46 47 49 49 51 51 52 50 43 41 39 41 42 36 39 31 31 34 37 40 36 34 33 33 34 35 37 38 42 42 40 37 38 37 38 37 33 32 34
39 41 44 46 48 49 50 51 53 54 48 42 40 39 43 46 43 29 25 28 32 35 39 35 33 33 32 34 37 38 40 41 43 46 42 40 38 36 36 34 32 33 34
40 44 45 47 47 48 50 52 51 50 48 43 42 43 42 38 24 23 26 31 35 39 36 33 33 33 34 36 38 41 42 41 41 42 42 40 38 37 35 34 32 31 33
42 45 46 47 47 48 49 49 48 45 44 43 40 37 31 28 23 22 26 33 37 35 33 33 34 35 38 40 41 42 41 40 39 39 38 38 36 33 35 34 33 32 30
44 45 46 46 46 47 47 47 44 41 37 38 34 30 28 25 22 28 31 36 35 32 32 34 35 37 39 42 43 42 42 40 39 38 36 34 33 32 32 32 34 32 30
45 45 45 45 46 46 45 42 40 37 37 34 29 26 23 24 23 29 32 32 31 33 34 35 37 37 40 40 40 39 37 35 34 33 31 31 31 29 28 30 31 32 29
44 43 43 44 45 44 42 40 40 34 34 26 24 26 28 25 25 28 28 30 32 34 36 37 38 40 40 41 38 32 30 28 29 29 30 28 28 26 25 26 27 28 28
43 42 43 43 43 42 41 40 37 31 28 24 23 25 25 26 27 26 27 30 32 33 35 37 38 39 39 37 32 30 28 25 23 24 26 26 26 24 22 23 22 24 24
42 42 42 42 41 41 40 38 35 30 29 28 27 27 27 25 25 27 29 30 32 33 35 36 38 38 36 30 29 29 27 24 22 21 22 22 21 20 19 20 19 19 18
40 40 40 41 41 41 39 36 33 31 29 28 27 27 23 23 25 27 30 32 33 34 34 36 37 36 30 27 27 26 25 23 20 17 16 17 17 15 13 16 16 17 16
40 40 40 41 41 39 36 34 32 29 26 24 24 21 20 22 25 28 31 32 33 33 34 36 35 32 26 25 24 24 23 22 19 16 13 8 9 9 8 8 10 12 14
40 40 40 41 40 38 35 32 29 25 23 21 18 18 20 23 25 29 30 31 32 33 33 34 34 30 25 23 22 22 21 19 18 15 12 8 7 7 6 6 5 4 5
39 39 40 40 38 36 34 29 24 22 19 16 18 18 20 22 25 28 29 30 30 30 32 32 32 29 25 22 21 20 18 16 16 13 9 7 6 5 6 5 2 3 1
38 38 38 38 36 34 30 25 23 18 16 17 17 18 19 22 24 27 28 28 28 28 29 30 30 28 25 22 20 19 17 15 14 13 8 5 4 4 4 3 6 3 3
37 37 36 36 34 31 28 24 19 18 18 18 17 18 18 21 23 26 27 27 27 26 27 28 28 27 23 20 19 17 15 12 14 13 11 7 4 3 2 2 7 7 7
35 34 34 33 32 28 24 21 19 19 18 18 17 17 17 20 22 24 25 26 27 25 26 27 27 27 23 19 17 16 14 11 13 13 13 9 5 5 5 5 5 7 8
34 33 32 31 29 26 24 22 19 18 19 18 18 17 18 19 21 23 24 25 26 25 25 26 26 26 24 20 17 15 14 13 12 14 12 11 7 5 8 9 9 9 8
33 31 30 29 27 24 23 22 21 19 17 18 20 18 18 19 20 21 22 23 25 25 24 24 25 24 23 22 18 15 14 12 13 14 14 12 11 8 5 6 9 9 10
31 30 29 27 26 24 23 22 22 21 20 18 18 19 18 18 19 21 22 22 23 24 24 22 24 23 22 21 20 17 14 13 10 10 12 12 11 10 9 6 4 7 9
30 30 28 26 25 24 23 22 22 22 22 21 19 19 18 19 19 20 21 21 22 22 23 22 21 22 22 21 19 18 16 14 13 11 9 10 10 9 8 7 6 3 3
30 29 29 27 26 25 23 23 23 23 23 22 21 20 19 19 19 20 20 20 21 20 21 22 21 20 21 21 20 18 16 15 12 11 10 9 8 9 8 7 5 4 3
31 29 27 27 27 26 25 25 24 24 23 22 21 21 21 20 20 20 20 20 20 19 20 21 21 20 19 19 19 19 17 16 14 12 10 10 9 7 7 7 6 5 4
31 29 28 27 27 28 27 26 27 26 24 23 22 21 22 22 22 22 21 20 19 19 18 19 19 20 18 18 18 18 17 16 14 13 12 10 10 8 6 6 7 6 5
32 31 29 28 27 28 29 28 28 26 24 23 23 22 22 22 22 22 22 21 20 19 19 18 18 18 18 17 16 17 16 15 14 13 11 10 10 9 7 5 5 6 6
33 31 29 28 28 27 28 28 27 26 25 24 23 24 23 23 22 22 23 22 21 20 20 19 18 17 17 17 16 15 16 15 14 12 11 10 10 9 8 7 5 5 5
31 29 28 27 27 26 27 28 27 26 25 25 24 24 24 24 23 23 23 24 24 23 21 19 18 17 16 16 16 15 14 14 14 12 11 10 8 7 6 6 7 7 7

GFSGL_700_spd_045.txt.gz
Wind_Speed
44 39 37 40 42 43 46 48 48 48 48 48 47 44 41 38 36 37 34 27 26 26 29 33 36 37 34 34 34 34 36 37 42 41 41 41 41 39 38 36 36 34 33
38 38 39 40 42 44 45 44 45 47 47 47 45 41 38 34 35 33 28 27 26 29 32 37 37 35 34 35 35 36 38 38 42 45 41 39 39 38 36 36 35 34 33
36 35 38 40 41 42 44 44 45 46 44 41 40 36 35 32 31 27 27 28 28 32 35 39 34 34 35 36 37 38 39 40 41 42 41 40 39 36 35 35 33 33 33
34 37 40 42 43 43 44 44 45 43 42 40 35 34 30 25 24 25 23 27 32 35 38 33 34 35 36 36 37 38 40 39 39 40 39 37 35 34 33 32 32 31 32
37 40 42 42 42 43 43 43 42 42 41 38 32 30 24 22 22 26 27 28 31 33 30 32 33 33 34 35 38 38 39 39 37 34 33 32 31 29 28 29 30 31 31
39 41 42 42 41 41 42 42 42 42 39 34 29 26 23 24 23 23 25 28 26 29 31 32 32 33 34 36 36 36 33 30 30 31 31 30 28 26 24 25 27 28 28
40 41 41 41 41 42 42 42 42 42 38 32 29 28 26 26 26 26 24 25 27 29 32 33 33 33 34 36 36 31 27 26 28 29 29 28 27 25 24 22 22 24 24
41 41 41 42 42 42 41 42 42 41 35 32 30 28 27 27 26 22 23 25 27 30 32 32 32 32 34 36 33 28 27 26 26 25 25 25 23 22 21 21 21 21 21
41 41 42 42 42 41 41 42 40 38 34 31 29 27 25 24 20 21 23 25 28 29 29 30 32 33 34 33 30 27 26 25 24 23 23 21 19 18 16 16 18 19 18
41 41 41 41 40 40 40 40 37 34 31 29 26 23 22 19 19 21 24 26 28 28 28 29 31 32 33 31 28 26 26 24 24 21 20 17 13 10 8 8 10 15 16
40 40 40 39 39 39 38 37 35 32 29 25 23 21 17 17 18 20 23 26 28 28 29 29 30 31 31 28 25 25 25 24 21 20 17 13 11 7 6 7 8 8 9
39 39 38 37 36 36 36 35 32 29 25 24 21 16 16 17 17 20 22 25 27 29 29 29 30 30 30 26 23 22 22 20 18 18 15 11 9 8 8 6 5 6 4
39 37 35 34 34 33 34 32 29 26 24 19 17 16 16 17 17 19 21 24 26 27 28 28 29 29 28 25 22 20 19 17 15 15 13 9 5 5 5 5 3 2 2
37 35 33 33 32 32 32 30 26 23 20 19 18 17 17 16 16 18 20 22 24 26 26 27 28 28 29 26 21 20 18 15 14 14 13 9 5 4 3 2 4 1 5
34 32 32 32 31 30 30 27 24 22 20 19 19 17 17 16 16 17 19 21 23 25 26 25 26 26 26 25 21 18 17 14 14 15 15 11 5 4 3 3 6 6 4
32 31 31 31 29 28 28 25 23 21 21 20 18 17 17 16 15 16 18 20 22 24 25 24 24 25 24 23 21 17 16 16 13 13 13 13 8 5 6 5 6 8 8
32 32 30 29 28 27 26 24 22 21 21 20 19 18 18 16 16 16 17 18 20 21 23 24 23 23 23 23 22 19 16 14 14 12 12 11 11 8 5 8 9 9 8
33 32 29 28 27 26 25 24 23 21 20 20 22 21 19 18 17 16 16 17 18 19 21 23 23 22 22 22 21 20 17 15 14 12 12 11 10 9 7 4 7 10 11
34 32 29 28 27 26 24 23 23 22 22 21 20 21 21 19 18 17 16 16 17 18 19 21 22 21 20 21 20 19 18 16 14 12 11 10 11 10 8 8 5 3 7
34 31 30 29 27 25 24 23 23 23 23 23 22 21 21 19 19 19 18 17 17 17 17 18 19 20 19 19 19 19 18 17 15 14 13 11 9 9 9 8 7 6 4
35 32 30 29 29 27 24 24 23 23 23 23 22 22 22 20 19 21 20 19 18 17 17 17 17 18 18 18 17 17 17 16 15 13 13 11 10 9 7 7 6 5 4
33 33 31 30 29 27 25 24 24 24 24 24 22 22 23 22 21 21 21 21 20 18 17 17 17 17 17 17 17 16 16 16 15 13 12 11 10 9 8 5 5 5 4
33 32 32 30 30 28 26 24 24 24 24 24 23 22 22 22 21 21 22 22 21 19 18 17 17 17 16 15 15 15 15 15 14 13 12 11 10 9 9 8 6 4 4
34 31 30 29 28 27 26 24 24 25 24 24 23 23 22 22 22 22 22 22 22 21 19 19 19 17 16 15 14 14 14 14 13 12 11 10 10 9 8 8 7 5 4
32 30 29 27 26 25 24 24 24 25 26 26 25 24 23 22 22 21 22 23 23 22 21 23 21 19 17 16 14 13 13 13 13 11 11 10 8 8 8 7 7 6 6
31 29 28 26 24 24 24 24 24 25 27 27 27 28 28 26 25 24 23 24 25 25 25 24 22 21 19 17 15 14 13 13 12 12 11 10 8 8 7 8 7 6 6

GFSGL_700_spd_048.txt.gz
Wind_Speed
40 34 37 35 35 39 41 43 43 43 43 43 43 42 41 37 28 29 32 35 31 27 29 30 32 35 38 38 31 33 34 33 34 37 35 36 39 37 34 34 37 33 31
35 33 32 35 38 40 41 42 43 42 41 41 41 40 39 35 29 34 30 30 27 28 32 32 35 38 42 36 35 34 34 34 33 36 39 36 37 36 35 37 38 34 30
34 32 33 36 38 40 42 42 41 41 41 40 41 40 38 32 30 25 25 25 25 26 32 35 37 39 36 35 36 37 36 38 40 43 43 41 38 34 33 33 33 32 30
33 32 33 36 39 42 41 41 41 41 40 40 41 39 33 28 25 22 23 24 27 29 32 33 34 34 35 35 35 36 38 40 41 41 39 36 33 30 29 28 27 25 24
31 32 35 38 40 41 41 41 40 40 40 40 40 36 30 28 27 25 25 24 25 28 28 30 32 33 33 33 34 35 37 38 37 33 32 32 32 27 24 23 24 23 24
31 33 37 39 40 40 40 40 40 41 41 41 38 34 31 30 28 27 25 25 24 25 27 30 31 33 33 33 33 33 34 32 29 29 29 30 28 26 25 23 25 23 24
32 35 38 39 40 40 40 41 40 41 40 39 37 34 31 31 28 25 24 22 22 25 28 30 31 31 32 32 33 33 30 26 27 27 28 28 27 25 24 24 23 23 23
34 37 39 39 40 40 41 40 39 39 39 37 35 33 31 30 25 23 20 20 22 25 28 29 30 30 31 32 33 32 28 25 25 26 27 28 27 24 21 21 22 21 21
36 38 39 40 40 40 39 38 37 37 36 36 33 30 27 25 21 18 17 19 22 24 26 28 28 29 30 31 32 30 26 24 25 25 25 25 23 18 14 17 18 19 20
37 38 39 40 40 39 37 36 36 36 35 32 30 26 23 22 18 16 17 19 21 23 24 26 28 27 29 31 31 28 25 24 24 22 20 20 18 14 11 9 10 11 13
37 38 39 39 39 36 34 34 34 34 33 31 28 25 22 17 17 17 17 19 21 23 24 25 26 27 29 29 28 25 24 24 21 18 18 18 14 12 12 11 10 10 11
37 38 39 38 36 33 33 32 32 32 30 28 25 21 18 18 17 17 17 18 20 22 23 24 25 26 28 28 27 23 21 21 19 17 16 15 11 9 9 9 9 8 9
37 38 39 36 33 32 32 31 30 29 27 25 21 20 19 19 18 16 17 18 19 20 22 24 24 25 26 26 26 22 20 19 17 16 15 13 9 5 5 6 5 6 9
38 38 35 33 32 32 31 30 28 27 25 23 21 21 20 19 19 18 17 17 18 19 20 22 23 23 25 25 26 23 20 19 17 15 15 14 8 6 5 5 5 1 5
36 35 33 33 32 32 29 28 27 26 24 23 22 21 20 19 19 18 17 17 17 18 19 21 22 22 23 24 24 24 21 18 17 16 15 14 11 7 6 6 7 7 4
34 33 32 32 32 31 28 28 27 25 24 23 22 22 20 20 19 18 18 17 17 17 18 19 20 21 21 22 22 22 21 18 17 16 14 14 13 8 7 8 8 11 10
32 32 33 33 31 29 28 28 27 25 24 22 22 22 21 20 20 20 19 18 17 17 17 18 18 19 20 20 21 21 21 19 17 15 14 13 13 11 6 7 10 11 11
33 33 34 34 31 30 29 28 27 26 24 22 23 22 22 22 21 20 20 19 19 17 17 17 17 18 19 19 19 20 20 19 18 16 14 12 12 11 9 6 5 10 12
34 33 35 34 31 30 30 29 28 26 25 23 22 22 22 22 21 21 21 20 19 19 18 18 17 17 18 18 18 18 18 18 17 16 14 13 11 11 9 7 6 3 6
37 36 34 34 32 32 31 29 28 27 26 24 22 22 22 22 21 20 21 21 20 20 19 19 18 17 17 17 17 17 17 17 17 16 15 13 11 10 9 8 5 4 2
39 37 35 33 34 33 31 30 29 27 26 25 23 22 22 22 21 20 21 22 21 21 21 20 19 18 17 17 16 16 16 16 16 16 15 14 12 10 9 7 6 5 3
38 39 38 35 34 33 31 30 29 27 26 25 23 22 21 22 21 20 20 21 22 22 21 21 20 19 18 18 16 16 15 15 15 14 14 13 12 11 9 8 6 4 3
38 41 36 34 32 31 30 28 27 26 26 26 26 25 23 22 22 22 21 21 22 22 21 21 21 20 20 20 18 16 15 14 14 13 13 12 12 10 9 8 7 6 4
38 37 34 32 30 29 28 27 25 24 24 25 25 25 26 24 23 22 22 22 23 22 21 21 22 22 23 21 19 17 16 14 13 13 12 12 11 10 8 8 7 6 5
40 37 33 32 30 28 26 25 24 23 23 24 25 26 25 25 26 26 26 25 24 24 23 23 23 23 25 22 21 19 17 15 14 13 12 11 11 9 8 7 7 7 6
40 35 31 29 28 27 25 23 24 25 25 25 25 26 27 27 27 26 26 27 28 27 26 25 24 24 24 21 21 21 19 17 15 14 13 12 12 11 10 9 8 8 7

GFSGL_700_spd_051.txt.gz
Wind_Speed
34 38 36 39 35 34 35 36 39 41 42 42 42 41 40 39 39 34 30 30 36 36 37 34 33 34 35 36 39 36 31 30 35 38 37 35 35 37 39 39 39 41 39
44 33 40 37 34 34 37 38 40 41 41 41 41 41 40 39 37 35 31 30 28 28 29 27 29 32 36 38 33 28 31 32 35 39 38 40 39 38 40 40 39 34 36
38 38 39 36 34 35 37 39 41 41 41 42 42 41 40 38 35 31 29 28 27 28 26 28 33 33 36 35 35 37 37 38 38 39 41 41 44 39 37 33 32 30 30
36 36 34 34 33 35 38 40 41 41 42 43 42 40 37 36 33 30 29 29 29 27 27 30 31 30 33 35 37 37 38 39 39 41 42 41 38 34 31 30 28 26 26
35 33 32 33 34 37 40 40 40 41 42 42 40 40 41 36 34 29 29 29 28 28 28 27 28 31 33 35 34 34 34 37 38 39 38 34 32 30 27 26 27 27 24
33 32 31 33 36 38 39 40 41 42 41 40 38 38 36 35 34 28 28 25 26 27 26 26 28 31 34 34 34 33 32 35 35 35 32 31 30 28 25 24 26 27 27
32 30 31 34 37 38 38 39 40 41 41 38 38 36 34 27 31 29 27 24 24 23 24 26 28 30 32 31 32 34 34 34 32 30 30 29 29 27 29 30 27 26 26
30 29 32 36 37 37 38 40 41 40 40 37 38 35 32 26 30 27 25 24 21 21 23 26 27 28 31 29 31 32 33 31 28 27 28 29 29 28 27 24 20 20 21
30 29 34 36 38 38 40 40 39 38 38 36 34 34 31 29 27 24 24 20 20 20 22 24 26 26 28 29 31 32 31 27 25 25 26 25 23 23 21 16 11 15 18
26 31 35 37 38 40 41 38 36 36 37 35 33 31 30 28 28 22 19 20 20 20 21 23 26 24 26 28 30 31 29 25 24 23 21 20 21 20 15 13 12 16 18
28 33 35 37 39 41 40 38 35 35 35 32 31 30 28 26 23 19 20 20 20 20 21 22 23 25 26 27 28 29 27 24 22 21 20 19 18 16 14 14 14 16 15
31 34 36 39 39 38 37 36 35 35 34 31 30 28 26 24 22 21 20 20 20 20 21 21 22 23 24 25 26 27 25 22 22 20 19 19 18 14 10 9 10 11 12
33 36 38 37 36 36 36 37 36 33 31 30 29 27 25 24 24 23 20 20 20 20 21 21 21 22 22 24 25 25 24 21 20 20 19 18 18 13 9 8 7 6 8
36 38 37 37 35 34 34 35 35 33 31 29 27 25 24 23 23 24 23 20 19 20 21 20 20 21 21 22 24 25 25 23 21 19 18 17 18 14 11 9 7 6 4
37 37 38 38 36 34 34 33 32 31 31 29 27 26 26 24 24 23 23 23 22 22 21 20 20 20 21 22 22 23 24 23 22 20 18 17 17 17 11 10 9 10 7
37 37 37 37 36 35 35 35 32 30 30 27 26 26 25 24 24 24 23 23 23 23 22 22 20 20 20 20 21 22 22 23 22 20 18 17 16 16 14 10 11 11 14
37 37 37 36 36 35 35 34 33 31 31 29 26 25 24 24 24 23 23 23 23 23 22 21 20 20 19 19 20 20 21 21 21 20 19 17 15 14 15 12 10 13 13
40 40 39 38 37 36 34 34 34 33 32 30 28 27 23 23 23 23 22 23 23 23 22 22 21 20 19 19 19 19 19 20 20 20 19 17 16 13 13 12 11 9 12
42 43 40 39 37 35 34 34 34 34 33 31 29 27 26 24 23 23 22 23 22 22 22 22 21 20 20 19 18 18 19 19 19 19 18 17 15 14 12 12 11 10 7
44 44 42 41 37 37 37 36 35 34 33 31 30 27 25 27 25 23 21 21 21 21 21 22 23 22 21 20 19 18 18 18 17 17 17 17 15 13 12 10 10 9 8
45 44 41 39 39 40 38 35 34 34 33 32 30 27 25 25 26 23 22 22 22 21 21 22 23 22 22 21 19 19 19 18 17 17 16 16 15 13 12 10 9 8 7
45 44 42 41 38 39 36 34 33 33 31 30 28 26 26 26 25 24 22 21 21 21 21 22 22 23 22 22 21 20 20 18 17 16 15 14 14 13 11 10 9 7 6
43 44 47 43 37 37 36 34 32 31 29 27 25 25 26 26 26 26 24 22 21 21 22 22 21 22 23 22 22 22 21 19 17 16 15 14 13 13 11 10 9 8 7
40 44 48 39 31 34 33 33 30 29 28 27 25 25 25 25 24 24 24 25 25 24 24 23 22 22 24 24 22 22 22 20 18 16 15 14 13 12 11 9 8 7 7
38 38 31 30 32 31 32 32 29 26 24 25 25 25 25 26 26 26 25 25 24 25 26 26 25 25 25 24 24 23 22 20 20 18 16 15 13 12 11 10 8 7 7
33 36 31 33 30 30 32 31 29 29 28 26 27 26 26 26 26 26 26 26 26 25 24 26 27 26 25 24 23 22 21 20 20 20 18 16 15 13 12 11 10 9 9

GFSGL_700_spd_054.txt.gz
Wind_Speed
31 31 33 39 39 35 37 37 36 36 37 40 41 40 40 40 40 39 37 36 34 33 31 32 32 32 33 35 35 38 42 37 37 41 42 41 40 43 45 42 40 42 42
29 31 34 40 39 38 38 36 36 38 40 40 41 41 41 39 39 36 36 34 33 32 31 31 31 31 29 32 39 38 36 37 39 45 44 43 43 44 46 44 40 36 34
31 33 41 38 39 37 34 35 36 38 40 40 40 41 41 39 35 35 35 32 31 31 31 30 31 29 32 34 31 34 36 39 40 41 43 41 42 42 43 39 33 32 30
34 37 37 39 37 35 33 34 36 39 40 40 41 42 40 42 38 35 34 32 30 29 28 27 28 32 30 29 32 34 37 37 38 39 40 40 40 38 35 33 32 28 28
34 36 38 39 39 35 32 34 38 39 39 41 41 41 36 36 39 39 35 29 29 29 28 28 30 29 29 30 32 33 34 35 35 36 37 38 37 33 31 30 31 29 25
34 38 39 38 34 31 34 33 37 39 40 41 42 38 35 35 37 35 33 31 31 28 28 30 26 26 29 31 31 33 33 35 35 37 37 35 32 31 30 30 31 32 32
38 39 39 32 33 31 30 34 37 39 41 41 41 37 35 35 35 33 28 31 32 28 28 26 24 25 27 28 30 31 32 33 35 36 34 30 30 30 31 30 28 29 26
42 40 34 30 27 29 32 36 38 40 39 37 39 34 35 36 35 31 25 32 29 27 24 23 24 26 26 28 29 29 31 32 32 30 28 27 28 27 26 27 25 20 11
50 39 28 25 27 31 36 39 40 38 36 36 36 33 34 35 34 30 27 27 26 23 22 22 24 24 24 27 28 29 29 30 30 27 26 25 24 22 23 23 16 15 11
38 27 24 27 31 35 39 40 40 36 35 36 33 33 33 34 32 27 25 24 24 23 20 22 23 23 24 26 27 29 29 30 29 24 22 21 21 20 20 17 16 16 17
23 26 29 31 34 37 38 39 39 38 37 36 35 33 32 31 30 27 24 24 24 23 21 21 23 22 23 25 27 28 29 29 27 25 23 21 20 20 17 14 13 14 15
27 29 29 32 33 36 38 38 38 38 37 36 35 33 30 28 27 26 23 22 24 23 22 21 21 22 23 23 25 26 27 27 27 24 22 21 20 20 15 11 10 11 13
25 29 31 34 36 36 35 35 35 36 36 36 33 31 29 27 26 26 25 22 21 22 23 22 21 22 22 22 23 24 23 24 25 25 22 21 20 19 16 11 10 11 8
28 31 33 35 36 36 36 35 34 35 35 35 32 31 30 28 25 25 26 24 22 21 21 22 21 21 22 22 21 22 24 24 24 24 23 21 19 18 18 12 10 11 9
30 33 35 37 39 40 39 38 36 33 32 31 31 31 31 30 27 27 25 25 25 26 24 22 21 21 21 21 21 21 22 22 23 23 23 21 19 17 16 15 10 11 14
34 36 38 38 40 40 40 38 36 34 32 30 29 30 29 28 28 27 25 25 25 26 26 24 22 22 21 21 20 20 20 21 21 23 23 22 20 18 15 15 13 11 14
39 41 42 42 41 40 39 39 38 34 33 32 31 30 29 27 26 26 26 25 24 26 25 24 23 22 22 20 20 19 19 20 20 21 22 21 20 18 16 14 14 12 11
43 44 44 45 44 43 40 38 36 36 37 34 31 30 28 27 25 25 25 25 24 24 24 23 22 22 21 20 20 19 19 19 20 20 20 21 19 18 16 14 13 13 10
45 47 47 46 44 42 39 38 38 37 37 32 30 28 27 26 25 25 24 24 24 23 23 22 20 21 21 20 19 19 18 18 18 19 19 19 19 17 15 15 13 12 11
48 47 40 41 42 40 41 39 39 37 35 30 32 30 28 28 26 25 23 23 22 21 20 21 20 21 21 20 20 19 18 18 18 17 18 17 17 17 15 14 13 11 10
47 36 40 44 41 42 39 34 34 37 34 32 31 29 28 26 26 25 25 25 23 22 21 20 19 20 20 20 19 20 19 18 18 18 17 17 16 15 15 13 12 11 9
50 46 41 45 39 43 42 40 32 34 31 29 27 26 25 24 26 25 23 23 22 21 20 20 20 19 20 20 19 20 20 18 18 17 16 15 15 14 13 12 11 10 9
49 45 41 34 40 42 43 34 28 29 28 25 26 26 26 26 24 25 24 23 21 22 22 22 21 19 20 21 20 19 21 20 18 17 16 15 14 13 12 11 10 9 8
44 39 36 32 31 33 32 28 27 27 26 25 24 25 27 27 26 25 24 24 24 23 22 22 23 23 21 21 21 20 21 21 20 18 17 15 14 13 11 10 9 8 7
42 36 27 26 32 34 36 29 28 28 29 29 29 30 31 29 26 26 26 25 26 26 25 23 22 22 22 21 21 20 21 21 21 19 18 17 15 14 12 10 9 7 7
36 28 27 31 34 32 30 30 29 28 28 28 29 29 28 27 25 25 25 22 23 24 24 24 23 21 20 21 22 21 20 19 19 19 19 18 17 15 13 12 10 9 8

GFSGL_700_spd_057.txt.gz
Wind_Speed
28 29 28 30 32 40 39 39 35 35 35 34 35 37 38 40 38 38 37 36 36 36 36 36 34 34 34 34 34 33 35 38 43 42 40 40 41 41 41 41 40 39 39
31 34 33 35 38 37 40 35 35 37 37 35 37 38 40 40 36 36 37 35 34 35 34 34 34 33 33 33 34 32 34 37 37 41 41 41 40 40 40 40 39 40 38
36 31 33 34 36 41 34 33 34 34 33 36 35 38 42 40 39 37 35 35 35 33 32 32 31 31 31 29 29 27 28 31 34 39 41 39 40 38 39 38 37 36 33
33 37 35 40 38 37 31 32 33 35 36 33 36 40 41 38 38 37 36 35 36 33 30 30 30 31 29 29 25 26 29 32 34 36 37 37 37 35 36 35 33 30 30
36 35 39 37 41 38 41 34 34 36 31 32 39 42 39 36 36 35 36 36 36 32 31 33 33 30 29 26 25 26 29 31 33 35 35 35 35 33 32 29 29 30 27
35 35 37 39 44 41 41 40 32 29 31 36 40 40 37 35 35 34 34 34 32 25 34 36 35 29 25 24 25 27 29 32 34 36 36 36 32 30 28 29 31 30 29
34 38 39 42 41 43 36 27 28 30 33 36 38 39 36 33 35 33 33 32 29 25 32 38 30 25 23 23 24 26 27 29 32 34 34 31 29 27 28 27 24 25 25
38 42 44 49 36 22 27 28 31 33 34 36 37 36 34 34 34 33 32 31 29 29 29 27 25 24 21 22 23 24 25 27 30 31 32 30 27 25 25 25 24 25 19
43 46 43 28 23 27 27 30 32 34 35 36 34 33 34 34 33 31 31 30 28 27 24 24 25 24 21 22 22 24 25 25 28 29 30 27 26 25 25 25 23 22 18
48 37 26 24 23 25 29 31 34 36 38 37 34 33 34 32 32 30 30 28 26 25 23 23 24 23 21 22 22 23 23 25 26 27 27 24 23 22 22 23 21 19 14
30 25 23 22 23 26 30 33 36 38 39 37 35 35 34 34 31 30 28 26 25 25 24 23 23 22 21 21 21 22 23 24 26 27 26 24 21 20 19 20 16 15 13
23 20 19 23 27 28 30 32 35 36 37 36 35 35 35 33 30 29 26 25 24 24 23 23 22 22 21 21 21 22 23 23 24 24 24 24 21 19 18 18 14 13 12
16 19 23 26 30 33 33 34 34 35 36 37 36 34 33 30 28 27 27 26 24 25 23 22 21 21 22 21 21 21 21 22 22 22 23 23 22 19 18 18 14 13 10
20 23 27 30 32 35 37 38 39 38 37 35 34 34 33 31 29 28 28 27 26 26 24 22 21 22 23 22 20 20 20 20 21 22 22 23 23 20 18 18 16 12 12
25 27 30 34 36 38 39 40 40 38 37 35 31 31 32 32 30 31 30 29 27 26 26 24 22 21 22 21 19 19 19 19 19 20 21 21 22 21 19 17 16 13 13
31 33 35 37 38 41 42 42 40 37 33 32 31 32 31 31 30 29 29 29 27 27 27 25 23 22 23 22 20 18 18 17 18 19 19 20 21 21 19 16 15 15 11
38 40 42 45 47 47 48 44 38 35 32 31 30 32 31 28 27 27 27 28 28 25 25 23 23 23 22 22 20 19 17 17 17 17 18 19 19 20 20 17 15 13 13
41 44 46 47 48 49 47 40 38 37 36 34 28 29 28 27 26 24 24 25 25 24 24 23 21 21 21 21 20 19 17 17 16 16 17 18 18 18 18 17 15 13 12
44 47 49 50 49 43 41 43 43 38 41 33 31 28 26 28 27 25 23 24 23 22 21 21 20 19 19 19 19 19 17 16 16 15 16 17 17 16 16 17 15 14 11
49 50 49 49 48 44 40 44 41 44 41 38 39 33 29 28 26 25 24 24 24 21 20 20 18 17 17 17 18 17 16 16 15 14 15 15 15 15 15 15 14 13 12
52 54 52 50 46 42 39 40 38 41 32 36 37 31 28 27 24 24 23 22 24 21 21 20 19 17 16 16 16 16 16 16 15 14 15 15 14 14 14 13 13 12 11
55 54 52 48 44 39 32 28 33 33 29 28 28 26 24 24 24 25 24 22 22 22 22 21 21 19 17 15 15 15 16 15 15 15 15 14 13 13 12 11 11 10 10
52 50 48 44 39 32 25 24 32 28 29 27 26 26 23 16 22 24 25 24 25 23 20 21 21 21 21 20 17 14 15 16 16 14 16 15 13 12 12 11 9 8 8
48 46 43 37 29 21 15 22 26 27 27 31 30 29 29 28 26 24 25 26 25 25 25 24 23 22 21 21 20 18 16 16 17 16 16 15 14 13 11 10 9 7 6
43 41 37 30 24 28 29 35 37 35 32 30 30 29 28 27 28 29 31 31 27 23 25 27 27 25 22 20 19 19 18 17 17 17 16 16 14 14 13 11 10 8 7
40 38 35 30 29 30 32 32 30 28 27 27 27 26 25 25 25 25 26 26 24 22 21 24 23 21 21 20 18 18 18 17 16 16 16 15 15 14 14 14 12 11 9

GFSGL_700_spd_060.txt.gz
Wind_Speed
22 22 24 31 35 35 32 31 41 45 45 38 37 37 37 40 36 37 40 42 41 40 39 39 39 38 37 37 37 35 31 38 34 37 39 39 39 41 42 41 41 41 41
26 30 31 35 41 33 38 45 40 44 47 42 42 38 40 38 34 39 41 41 39 38 38 37 36 35 34 34 33 31 29 30 32 33 35 36 37 39 41 41 38 38 39
30 34 37 35 40 37 45 48 41 48 42 39 42 43 32 32 37 41 41 40 39 37 36 36 35 32 31 31 29 27 28 27 30 32 34 35 37 37 39 38 37 35 34
34 37 39 38 39 42 41 43 47 45 44 41 30 30 32 36 39 39 38 39 38 36 35 35 34 31 31 32 29 28 25 27 29 30 32 34 35 34 36 36 32 30 27
38 38 39 38 40 41 46 46 50 45 30 26 30 34 37 38 38 38 38 38 37 36 36 35 33 34 39 37 30 25 25 28 28 30 31 34 34 34 34 31 30 28 26
36 37 38 42 40 44 47 47 39 27 23 27 31 35 36 37 37 36 37 37 37 35 34 32 29 34 38 35 26 24 26 27 27 29 31 33 33 34 32 29 29 28 27
37 38 42 46 45 47 44 36 28 23 24 29 32 34 36 37 37 36 36 37 36 35 33 31 30 31 30 25 24 24 25 26 28 29 30 32 32 32 30 28 26 26 25
39 41 43 46 49 41 33 27 21 24 27 30 32 33 36 38 38 37 38 37 34 33 32 31 30 29 26 24 24 23 23 25 26 27 29 30 30 30 28 28 26 25 23
38 41 46 47 37 32 25 21 24 27 30 32 33 35 36 37 37 36 36 35 32 32 31 30 29 28 26 24 23 23 22 23 24 26 28 29 30 29 28 28 26 27 20
42 45 38 38 29 22 20 24 26 30 33 35 36 36 36 35 35 35 35 33 31 30 29 28 28 27 26 24 23 22 22 22 22 23 25 27 28 27 26 26 26 25 18
42 38 35 28 23 23 24 26 30 34 36 37 38 38 37 36 36 36 35 34 31 30 28 27 28 27 25 23 23 22 22 21 21 22 23 25 25 26 25 24 24 25 16
38 31 27 22 24 26 28 29 32 34 36 38 39 38 37 35 37 36 34 33 31 30 28 27 26 26 24 24 23 23 21 20 20 21 23 23 23 23 23 22 21 22 18
25 22 22 25 27 30 32 34 36 38 39 40 39 38 36 35 34 34 33 32 31 31 28 27 26 25 25 24 24 23 21 21 20 20 21 21 21 22 23 21 19 20 17
22 24 26 28 30 34 36 39 41 42 43 43 41 38 35 33 32 33 34 33 31 30 29 27 26 24 24 24 25 24 22 21 20 20 20 20 20 21 22 22 19 17 16
25 27 30 33 35 38 40 43 44 45 42 42 40 38 35 33 31 33 34 33 31 30 30 28 26 24 22 23 24 23 22 21 20 20 19 19 19 20 20 22 20 17 17
30 32 35 39 42 45 48 50 49 48 44 38 36 36 34 33 31 31 30 31 30 28 29 26 25 24 23 23 23 22 21 20 19 19 18 18 18 19 19 20 19 17 16
36 39 43 45 48 50 52 53 54 51 45 39 34 32 35 36 32 31 30 28 28 27 28 25 24 23 24 23 22 21 19 20 19 19 17 17 17 17 18 18 18 16 14
40 43 46 48 50 51 52 53 52 51 47 39 38 44 37 31 31 30 32 30 28 25 25 24 23 22 23 22 21 20 19 18 19 19 17 16 16 16 17 17 17 15 13
44 47 49 51 52 52 52 51 48 45 44 42 38 32 34 28 31 31 29 31 27 27 24 23 22 21 20 20 19 19 18 18 19 18 16 15 15 16 16 16 15 15 13
47 49 51 53 53 51 49 46 42 39 37 32 33 33 35 33 29 26 25 27 26 25 21 21 22 21 20 19 18 17 17 17 17 17 16 15 14 15 15 14 13 13 12
50 52 53 52 50 48 46 42 37 31 23 28 31 25 23 26 25 23 24 23 22 22 22 21 22 21 20 18 16 16 16 16 16 16 16 16 14 14 14 12 11 11 11
52 53 52 49 46 44 42 36 27 23 21 30 34 26 24 24 23 22 20 21 22 21 20 19 18 18 19 21 19 17 14 15 15 16 16 16 15 13 13 11 11 10 9
50 48 46 44 43 41 36 28 22 20 16 19 19 21 25 29 30 26 22 22 24 23 23 23 23 22 18 18 19 20 19 15 15 16 16 17 16 14 13 12 10 9 8
46 45 43 41 40 38 35 30 26 31 36 33 32 36 36 30 31 31 30 31 33 30 25 26 26 24 23 23 23 22 20 19 18 16 15 17 16 15 14 13 11 9 8
43 42 41 40 38 36 34 32 30 30 34 37 36 33 30 28 27 27 29 28 27 27 28 28 28 23 25 25 23 21 21 20 20 18 16 16 16 16 15 14 13 11 9
40 39 38 37 35 34 33 32 30 29 28 28 27 27 27 26 25 25 23 22 22 23 23 24 24 19 20 20 19 19 20 20 20 18 17 16 15 15 15 14 14 13 12

GFSGL_700_spd_063.txt.gz
Wind_Speed
16 18 19 26 27 29 38 39 42 42 41 45 51 46 53 47 44 39 34 35 39 43 45 46 45 44 42 40 38 35 33 32 33 32 34 38 36 35 36 38 40 42 43
18 22 28 28 31 35 44 38 45 41 47 45 47 47 47 40 31 31 35 40 42 44 45 44 42 41 39 37 34 30 30 31 32 33 33 32 32 33 36 39 40 41 42
26 27 31 31 33 34 35 35 42 42 43 48 52 43 36 26 28 33 37 40 43 45 44 44 41 39 38 37 34 32 34 34 33 31 30 30 31 32 35 37 38 37 35
26 30 29 33 33 34 37 37 40 42 44 48 45 39 29 28 32 36 39 41 43 44 44 43 41 39 37 35 31 34 37 34 28 28 28 29 30 32 34 37 35 34 29
31 26 28 30 34 35 38 41 45 46 46 44 36 28 27 31 35 38 40 42 44 45 44 43 41 38 36 33 31 36 36 28 27 28 28 29 30 31 34 35 35 31 27
27 27 31 37 36 39 43 45 47 46 43 35 30 28 31 33 36 38 41 43 44 43 42 41 39 36 34 33 33 31 27 27 27 28 27 28 29 31 33 34 34 31 27
29 32 35 37 39 43 45 49 45 44 37 30 30 31 32 34 37 40 42 43 43 43 42 39 37 35 33 32 31 28 28 27 27 28 27 28 28 31 33 32 31 30 28
30 33 36 39 43 46 48 44 44 37 31 31 31 32 33 36 38 40 42 43 42 41 40 37 35 34 32 32 31 28 27 26 27 27 27 27 28 29 31 32 31 29 27
32 36 40 41 45 45 42 41 33 31 31 31 33 35 37 38 39 40 42 41 40 39 37 35 34 32 32 31 30 29 27 25 26 26 26 27 28 28 30 31 31 29 26
34 39 41 45 40 42 36 33 31 32 33 34 37 39 42 43 43 43 43 42 39 37 36 34 32 32 31 31 29 28 26 25 25 25 25 26 26 27 28 30 30 29 26
38 42 40 41 40 35 31 30 32 34 36 39 42 44 45 45 45 44 43 43 40 38 36 33 32 33 31 29 29 27 25 25 25 25 25 24 25 25 26 27 28 28 26
38 37 41 38 33 31 33 34 36 38 41 43 46 47 47 46 46 43 41 41 40 39 36 34 33 33 32 29 28 26 25 25 25 25 24 23 24 24 25 25 24 24 24
40 37 34 31 32 35 36 38 41 42 45 47 49 51 50 47 43 39 40 40 39 39 37 35 33 32 32 29 28 28 27 26 25 24 24 23 23 23 24 24 22 23 22
31 30 30 32 33 35 38 41 44 46 49 51 52 52 51 48 41 36 37 37 36 37 35 33 32 32 32 29 26 27 28 27 25 24 23 23 22 22 23 24 22 21 20
28 29 31 34 37 39 43 46 50 52 54 55 56 54 50 48 41 38 35 34 36 35 34 33 30 29 29 28 26 25 27 27 25 24 23 22 21 21 21 22 22 21 21
30 32 35 39 42 46 49 51 52 53 54 56 56 54 51 44 39 44 36 34 35 35 34 32 29 26 26 25 25 26 25 25 24 24 23 22 20 20 20 20 20 21 21
34 38 41 44 47 50 52 54 58 57 57 56 54 50 46 43 40 36 37 34 32 34 35 31 27 25 23 24 25 25 24 22 24 22 22 21 20 19 19 18 19 19 19
38 41 44 47 49 52 55 57 58 57 55 50 45 44 41 37 37 33 31 32 30 32 32 32 27 26 24 23 24 23 23 21 22 21 22 21 20 18 18 16 17 17 18
41 43 46 48 51 54 56 55 52 49 46 44 39 32 27 25 27 31 31 30 32 32 30 29 27 27 23 23 23 23 22 20 20 21 21 21 20 18 17 15 15 17 15
43 45 48 51 53 53 51 49 47 44 41 37 29 21 29 29 25 23 24 27 27 24 24 24 24 23 19 20 21 22 21 20 18 19 20 21 19 17 15 14 14 15 14
44 47 50 51 51 50 48 46 44 43 38 31 28 24 27 32 31 23 20 21 22 24 24 24 21 23 20 20 21 21 20 18 18 18 19 19 18 17 15 14 13 14 12
46 48 49 49 47 45 44 43 41 38 35 32 30 24 22 22 24 23 24 25 23 25 25 22 21 22 23 19 20 19 20 19 17 18 19 19 18 16 15 14 13 12 11
47 47 47 45 44 42 41 40 38 36 34 32 34 34 30 32 31 32 34 32 28 29 29 29 27 24 23 24 21 19 19 18 17 18 17 18 18 17 16 14 13 11 10
46 46 45 43 42 41 40 38 36 35 34 33 31 31 35 37 33 32 31 31 33 32 31 30 33 31 29 29 27 24 22 22 20 20 20 18 17 17 16 16 13 12 10
44 44 43 42 41 39 38 36 35 34 33 32 31 29 29 30 29 27 27 27 27 25 25 26 27 27 27 28 27 25 26 25 23 23 22 20 18 16 17 17 14 14 12
43 43 41 40 39 38 36 34 33 32 31 30 30 29 28 27 26 25 24 23 23 23 22 20 21 22 23 23 23 19 19 20 23 24 23 20 18 17 16 16 15 15 14

GFSGL_700_spd_066.txt.gz
Wind_Speed
15 18 18 17 18 26 19 27 24 27 31 38 38 45 46 41 47 47 41 34 33 36 40 42 42 45 46 46 45 43 40 38 38 33 32 34 36 35 32 31 32 33 35
12 16 18 19 25 23 33 30 31 35 29 44 38 41 42 46 45 41 34 34 36 40 40 41 43 45 45 45 44 42 40 38 36 35 35 36 32 29 30 31 31 33 36
18 24 22 21 27 21 35 26 35 37 38 37 41 46 43 42 36 31 32 36 38 39 41 43 44 46 46 44 42 39 38 37 35 36 39 32 29 28 29 29 31 33 35
22 25 29 22 18 26 24 32 35 36 39 41 45 44 42 35 31 33 36 37 38 40 42 44 46 46 44 42 40 37 36 35 35 38 34 29 29 28 29 30 30 32 33
27 31 32 25 25 28 30 32 36 39 41 44 42 42 38 31 34 37 37 38 40 42 44 46 46 45 43 41 38 35 35 33 34 33 30 29 28 28 29 29 31 32 31
29 36 25 27 29 31 33 44 35 43 45 41 44 38 33 34 38 38 39 41 43 45 46 46 46 45 43 39 36 35 33 32 31 31 29 28 27 28 29 29 31 33 33
21 24 26 28 31 35 40 41 41 43 42 45 37 34 35 37 38 39 41 44 46 46 47 47 47 45 42 37 35 34 32 31 31 30 28 27 27 27 27 28 29 31 30
21 24 27 30 36 39 45 40 45 44 42 35 33 36 37 38 40 42 44 47 47 47 47 47 47 45 39 36 35 33 32 31 30 30 28 26 27 27 28 29 29 30 29
25 27 31 36 34 39 42 43 42 39 34 33 35 37 40 41 44 46 48 50 50 49 47 46 45 41 36 35 34 32 32 30 30 29 27 26 27 27 28 28 28 29 29
27 31 33 34 41 42 40 40 36 32 33 36 39 42 44 45 47 49 50 52 53 51 48 44 42 39 36 34 34 33 32 29 30 27 26 26 27 27 27 27 27 29 30
29 33 35 38 38 39 36 33 33 35 39 40 43 45 48 50 51 53 54 54 52 50 45 40 38 37 36 34 33 32 31 30 28 27 26 26 26 27 26 26 26 27 28
31 38 38 36 35 34 34 34 37 40 42 44 47 50 52 53 54 54 55 53 50 47 42 37 34 34 34 34 33 32 32 31 29 28 27 26 26 26 25 25 25 25 26
31 33 36 32 32 33 35 37 40 42 46 50 53 56 57 58 58 56 51 49 46 43 39 37 34 32 31 33 32 31 33 32 29 29 26 25 26 25 23 24 23 24 24
29 29 30 30 31 33 36 40 44 47 51 54 57 60 62 63 62 58 54 45 41 44 41 36 35 33 31 30 30 30 29 30 30 29 26 25 25 24 22 24 22 22 22
27 27 28 31 34 37 40 43 46 49 53 56 59 60 61 61 58 54 51 46 38 40 44 39 35 29 30 29 28 28 27 27 29 28 26 25 24 24 21 22 21 21 22
27 29 32 34 37 40 44 46 47 50 53 55 55 55 55 53 52 48 43 39 35 38 36 33 29 29 29 27 27 26 26 25 24 26 25 24 24 22 20 21 21 20 21
30 32 35 38 41 44 47 50 53 51 53 53 51 50 49 49 46 40 33 28 27 28 27 27 28 30 27 25 25 24 25 24 23 25 22 23 23 21 19 19 19 19 19
32 35 38 40 43 46 49 51 53 55 56 54 48 46 44 40 36 26 22 21 21 24 27 30 32 28 25 29 26 25 24 24 22 23 20 21 21 20 18 18 18 18 17
34 37 39 42 45 47 49 51 52 51 51 49 47 42 39 32 30 27 25 23 26 26 27 27 23 22 23 23 25 22 24 24 22 21 19 20 20 19 18 18 17 17 15
36 39 42 43 46 48 49 50 49 49 47 45 43 42 38 32 30 26 26 28 26 24 22 22 24 23 22 22 21 22 17 20 21 20 19 18 19 18 18 17 16 15 13
38 41 42 44 46 47 48 48 47 46 44 42 40 38 37 35 31 26 22 21 22 24 23 21 22 22 18 21 20 22 22 21 19 18 17 17 17 16 17 16 15 14 12
40 41 43 45 46 46 46 46 45 43 41 40 38 35 34 33 32 36 38 36 32 29 27 26 26 26 25 22 21 21 19 22 19 17 17 17 17 16 15 15 15 13 11
40 42 43 45 45 45 44 44 42 41 39 37 36 35 34 33 32 30 31 30 32 31 31 30 30 29 30 29 26 26 21 19 21 18 17 18 17 16 15 15 15 13 11
41 42 43 44 44 44 43 42 40 39 37 36 34 33 32 32 31 29 28 28 27 27 27 28 29 31 30 32 30 27 26 25 21 22 22 20 18 17 15 15 15 14 12
42 43 43 43 43 42 41 40 38 37 35 33 32 31 30 29 29 28 27 26 25 25 24 24 23 23 23 23 25 27 29 26 23 23 20 21 21 19 17 15 15 15 13
43 43 43 42 42 42 41 39 37 36 34 32 31 30 30 30 30 29 27 26 25 23 23 22 21 21 21 18 20 21 23 26 22 21 22 24 23 20 17 16 15 15 14

GFSGL_700_spd_069.txt.gz
Wind_Speed
17 18 20 22 22 17 20 18 22 26 34 34 26 31 42 36 40 43 42 42 38 33 34 37 37 39 40 42 44 45 44 43 42 40 39 36 36 36 38 33 29 29 29
10 9 11 15 19 21 21 23 17 27 28 28 32 35 33 37 41 42 41 37 33 34 37 38 39 41 42 44 46 46 45 43 42 39 37 35 35 36 34 30 29 28 28
18 17 17 21 23 28 21 36 23 18 29 29 36 34 39 41 40 41 36 32 34 37 38 39 40 42 44 46 47 47 44 42 39 38 36 35 35 34 31 29 28 28 28
25 25 20 27 30 32 16 26 28 33 28 35 33 38 38 40 41 36 33 34 37 38 39 40 42 44 46 47 47 46 43 41 37 36 35 34 34 32 31 29 28 28 27
23 24 26 32 35 26 14 28 28 29 39 39 41 36 41 40 36 33 34 36 38 39 40 42 45 46 47 48 47 45 42 38 36 35 34 34 32 32 30 29 28 27 26
22 23 23 29 24 18 28 32 28 39 40 37 39 41 38 34 33 33 35 38 40 42 44 45 47 48 49 48 46 44 40 37 35 35 33 33 31 31 29 28 28 27 26
22 20 16 23 24 29 31 29 43 33 34 43 42 38 34 32 33 35 38 42 44 46 48 49 49 49 48 47 45 42 38 35 34 34 33 31 31 29 29 28 27 27 26
21 18 19 23 25 30 31 39 31 38 39 40 36 33 33 33 36 39 42 45 47 49 51 52 51 50 47 44 43 40 35 34 33 33 32 31 30 29 28 27 26 26 26
19 18 20 26 29 34 33 34 38 39 38 33 32 33 35 37 39 43 46 49 52 53 53 53 50 48 43 40 40 35 33 32 32 32 31 29 28 28 27 27 25 26 25
22 25 25 24 29 32 34 39 36 33 32 32 34 36 39 42 44 47 50 54 56 57 57 55 50 42 39 37 36 32 31 29 31 31 30 28 28 27 27 26 25 26 25
24 24 29 28 28 35 33 33 30 30 32 34 37 39 42 45 48 50 52 56 59 58 57 55 47 36 37 34 33 30 28 27 30 31 29 28 26 26 27 27 25 25 24
26 26 30 30 31 31 28 29 29 33 36 38 41 43 46 49 52 53 55 57 57 57 53 49 45 33 35 34 33 29 25 27 30 31 30 29 26 27 28 26 25 24 23
27 27 28 30 28 27 27 30 32 35 38 41 45 48 51 53 55 58 58 56 53 51 48 42 41 35 40 34 31 29 24 28 31 32 32 29 27 26 27 25 23 22 21
25 28 27 25 26 27 30 33 35 38 41 44 48 51 52 55 57 57 56 53 50 46 41 37 34 34 37 34 26 25 26 25 28 29 29 29 29 26 25 24 22 21 20
27 23 24 25 27 29 31 34 37 40 44 47 49 52 54 56 55 54 52 50 46 41 38 30 26 30 32 25 19 23 25 24 26 26 26 26 27 26 24 23 20 20 19
23 23 25 27 29 31 33 36 39 41 44 46 48 51 52 52 52 51 47 42 34 26 24 22 24 25 20 19 20 22 22 22 23 24 24 24 24 24 22 21 19 18 18
23 26 28 30 32 34 36 39 41 42 43 45 48 50 51 51 49 46 42 36 30 24 21 19 18 15 19 23 26 23 24 23 23 23 22 22 22 23 19 19 18 17 17
26 28 30 33 35 37 39 41 43 45 46 47 48 49 49 47 45 42 39 33 26 22 21 24 25 24 25 25 24 25 25 23 23 24 23 21 21 19 17 17 17 15 16
29 31 33 35 38 39 41 43 44 45 46 47 48 48 45 43 40 38 36 33 30 27 26 25 25 23 20 19 20 20 20 20 21 23 21 19 20 18 15 16 16 15 14
31 33 35 37 39 41 42 43 44 45 46 48 48 48 46 42 38 36 33 29 28 29 27 22 21 22 20 21 22 18 18 19 21 19 18 17 18 17 14 15 14 14 13
33 35 37 39 41 42 42 44 44 45 46 46 45 43 41 39 37 35 33 32 30 27 33 31 28 23 22 22 21 19 21 16 20 21 20 16 15 14 13 13 13 13 13
35 37 39 40 41 42 43 43 44 44 44 44 42 39 37 35 33 31 30 30 30 28 27 26 31 31 26 25 25 24 23 18 19 17 20 17 16 14 13 13 13 13 12
37 38 40 41 42 42 43 43 43 43 42 41 39 37 35 32 30 29 28 28 28 27 27 26 25 24 27 29 29 27 25 23 22 18 19 21 18 15 13 12 14 13 12
38 40 41 42 42 42 42 42 42 41 40 39 38 36 33 31 30 29 29 28 27 27 27 26 24 23 22 24 26 30 31 30 27 22 22 18 22 19 15 14 13 14 13
40 41 42 42 42 42 42 41 40 40 38 37 36 35 32 31 30 30 30 30 29 28 26 26 25 23 21 21 21 21 25 28 34 32 28 22 21 23 18 15 15 14 14
41 42 42 42 42 42 41 40 39 38 37 36 35 33 31 30 30 31 31 31 30 29 28 26 25 24 21 19 19 20 21 20 23 25 26 24 22 20 20 18 16 15 14

GFSGL_700_spd_072.txt.gz
Wind_Speed
21 21 22 23 25 27 27 26 25 27 30 23 31 36 21 26 28 33 35 37 39 40 38 35 34 36 37 36 38 41 43 44 45 46 40 33 41 41 38 38 37 35 31
20 17 17 18 22 23 24 26 29 31 25 17 29 33 24 31 30 34 37 39 39 37 34 34 35 35 37 39 41 43 45 45 40 47 44 35 35 40 39 38 36 33 30
23 20 19 19 20 24 28 34 33 34 27 16 27 29 24 23 33 34 40 37 34 33 33 34 35 37 39 41 43 45 45 42 39 40 44 39 39 38 39 38 34 33 30
25 25 26 26 29 25 23 33 35 36 28 22 32 30 25 27 35 36 36 33 32 32 33 34 37 39 41 43 45 47 47 47 46 45 42 40 37 32 33 32 30 28 29
23 25 26 28 27 28 34 36 31 20 28 23 34 31 30 36 34 32 31 31 32 34 35 38 41 43 44 45 47 48 46 48 47 43 40 37 31 26 26 25 30 30 28
25 27 29 30 30 28 29 34 35 30 21 29 28 32 34 34 30 30 32 33 34 36 39 42 45 48 50 50 50 48 46 46 42 33 32 33 30 28 28 29 29 30 28
29 31 32 32 30 23 25 29 29 24 31 30 33 33 33 30 30 31 33 36 38 40 43 47 49 51 53 54 52 50 47 42 39 34 34 34 34 34 35 34 31 30 28
33 33 31 27 23 23 25 27 31 29 30 35 36 33 32 29 30 33 35 39 43 45 48 50 53 54 53 49 47 44 42 39 36 33 32 32 33 32 33 33 31 29 28
32 28 25 23 22 24 26 24 30 33 36 33 32 30 31 32 33 35 40 44 47 49 51 53 55 55 51 46 43 40 38 35 34 31 31 32 31 30 30 30 30 28 26
24 24 22 23 22 20 28 31 29 33 34 30 29 31 33 34 37 39 42 46 50 53 55 55 54 53 49 38 41 36 34 30 30 31 30 28 28 29 27 27 27 27 25
23 23 19 21 27 30 31 31 33 31 29 29 31 33 35 37 40 42 44 48 51 54 55 55 54 50 48 40 38 37 32 28 29 28 27 28 29 28 28 29 26 26 24
23 21 24 26 28 29 30 30 29 29 30 32 33 35 37 40 42 44 45 47 50 52 53 53 51 47 43 39 32 35 38 32 27 25 27 28 30 30 31 29 27 25 24
22 24 25 28 29 29 29 27 28 30 32 34 36 38 41 42 44 45 48 51 52 53 53 51 46 41 37 34 31 33 33 28 23 23 27 30 32 30 31 30 28 25 24
25 27 28 27 29 26 27 28 30 32 34 36 38 40 42 44 46 47 50 52 53 52 49 44 39 36 30 26 28 25 26 22 19 20 24 26 27 26 28 29 29 25 24
26 26 28 25 25 26 27 30 32 34 35 38 40 42 43 44 46 49 51 53 53 49 45 38 31 25 23 20 21 20 19 19 19 19 22 23 23 24 25 26 26 23 22
26 25 23 24 25 27 30 32 32 35 38 40 41 42 44 46 47 49 50 50 48 44 39 32 26 23 21 18 17 19 19 21 22 22 21 20 20 22 23 23 23 21 20
22 23 24 26 28 29 31 33 36 39 38 39 41 43 45 46 47 48 48 47 45 40 36 31 27 26 23 22 19 20 24 24 22 23 24 22 21 21 22 23 21 19 18
21 23 26 28 30 31 33 35 37 38 40 41 43 43 44 45 46 47 46 44 40 38 34 30 29 28 27 26 25 24 21 22 22 22 23 25 23 22 21 21 18 18 17
23 26 28 30 32 34 35 37 39 40 41 42 43 44 44 44 44 44 43 41 38 35 32 30 29 30 31 29 25 21 20 20 21 20 21 21 21 20 20 20 17 17 16
25 28 30 33 35 36 38 39 40 42 42 43 44 44 45 45 44 43 41 38 36 33 30 28 28 29 31 28 25 23 22 22 18 19 19 21 20 19 19 19 17 16 15
28 31 34 35 37 38 39 41 42 43 44 44 44 45 44 44 43 42 39 37 34 32 29 28 27 26 26 32 33 27 24 22 21 21 15 21 20 19 17 16 16 15 14
31 34 35 37 39 39 40 42 43 44 44 45 45 44 43 42 41 39 36 34 32 30 29 27 26 25 25 24 26 31 29 28 24 22 18 17 18 19 17 15 14 15 14
34 36 38 39 40 41 42 43 44 45 45 45 45 44 42 40 38 36 34 32 31 30 29 29 27 26 25 24 24 24 29 28 28 25 20 19 16 20 18 16 13 13 14
37 39 40 40 41 43 44 45 45 46 45 44 43 42 40 38 36 34 33 31 30 30 30 30 29 28 26 24 23 22 23 26 29 27 26 22 20 15 19 18 15 13 13
40 41 42 43 44 45 46 46 46 45 44 42 41 39 37 36 34 33 31 31 30 30 30 30 30 29 27 25 24 22 20 22 24 28 30 30 26 21 18 20 19 15 13
41 43 44 45 45 46 46 45 44 43 41 40 38 36 35 33 32 31 30 30 30 30 30 29 29 28 27 26 24 22 20 19 20 22 26 29 30 29 23 19 22 18 15

GFSGL_700_spd_075.txt.gz
Wind_Speed
25 25 28 27 29 31 30 30 29 32 35 30 30 33 35 37 35 29 27 29 33 34 38 38 39 36 36 36 37 39 41 41 44 48 42 40 44 43 37 47 47 45 41
36 34 30 28 28 26 26 26 26 29 31 30 36 29 20 29 25 26 25 30 34 36 36 35 36 36 37 36 38 41 44 43 42 47 49 47 39 43 41 42 48 44 42
38 36 32 28 24 24 24 25 28 29 35 43 38 16 25 26 26 24 27 33 34 33 33 34 34 34 36 37 40 43 44 44 46 45 48 43 44 46 39 44 40 39 33
36 34 32 31 30 27 27 29 28 32 29 44 43 34 26 35 32 26 31 32 34 32 33 33 34 35 37 39 42 44 46 47 47 45 46 47 49 46 36 32 34 31 32
30 30 33 31 30 28 29 30 31 30 32 22 29 21 23 29 30 30 32 31 32 33 34 34 36 39 42 43 44 46 47 48 49 50 48 48 42 33 32 30 31 36 30
29 29 31 31 30 30 31 32 32 29 33 32 27 27 30 30 34 30 30 32 34 34 35 37 39 43 46 49 52 53 53 49 48 43 43 40 38 34 36 37 38 40 40
31 30 31 32 32 33 31 30 28 30 29 28 27 30 33 33 34 31 32 34 35 35 37 40 42 44 46 49 50 51 49 47 46 44 41 37 34 34 36 40 38 34 33
32 33 33 35 34 31 30 26 27 28 31 32 31 34 34 33 32 31 33 35 37 38 41 42 44 46 48 50 51 52 43 42 43 45 42 36 33 32 30 31 33 36 36
32 35 34 32 29 26 26 24 29 30 30 33 32 34 34 29 34 34 33 36 39 40 41 42 45 48 49 50 51 51 51 45 42 43 40 34 33 32 30 31 33 34 33
26 27 26 25 26 27 27 28 27 32 34 34 33 32 31 31 35 35 35 38 40 42 43 44 47 49 50 50 50 49 48 45 34 37 35 34 30 28 27 28 29 28 29
24 24 26 27 27 28 27 31 32 32 32 32 30 30 32 33 35 37 37 38 41 43 44 46 48 50 51 51 48 46 44 40 36 38 34 29 27 29 28 27 26 28 27
26 27 27 28 25 29 31 31 31 32 32 31 30 31 33 34 37 40 39 40 41 44 45 46 48 49 49 47 44 40 36 33 31 31 32 32 29 29 27 30 35 31 30
26 26 27 26 28 30 31 31 32 32 30 32 33 34 35 36 39 41 40 42 43 44 46 47 48 47 45 42 36 32 29 25 29 31 32 28 26 25 27 34 31 28 29
26 26 27 29 30 31 31 31 29 29 31 33 35 36 37 38 41 42 42 43 43 44 46 46 46 43 38 30 28 27 24 23 24 24 21 20 21 23 25 25 26 27 29
27 28 30 31 30 31 30 28 30 30 32 34 36 38 40 41 42 44 44 45 45 45 46 46 45 41 37 31 26 24 22 20 19 19 19 18 20 20 21 23 25 25 27
30 31 31 31 30 28 28 28 31 34 34 35 37 39 42 43 44 44 44 45 45 45 45 45 43 39 36 32 29 26 20 21 22 24 24 24 24 21 22 21 23 23 24
33 33 31 27 26 26 28 31 35 35 35 37 39 41 42 44 45 45 45 45 45 45 44 44 42 38 35 32 29 29 28 25 15 25 24 24 23 23 22 22 23 23 24
32 29 24 23 25 28 30 32 34 36 39 42 44 42 42 42 44 45 45 45 45 43 43 41 40 37 33 31 31 32 31 29 29 27 23 21 23 25 25 22 23 22 23
26 23 24 24 25 29 32 34 37 38 39 40 42 44 46 44 45 45 45 44 44 43 41 39 37 34 32 30 30 31 29 28 27 25 26 24 23 21 21 21 21 22 21
25 25 25 25 28 31 33 36 38 40 41 42 43 44 45 45 45 45 45 45 43 41 39 37 34 31 29 29 28 28 29 28 27 27 25 22 20 21 22 20 20 20 21
26 25 26 28 30 33 36 39 41 43 43 44 45 46 45 46 46 45 45 44 42 40 38 35 33 30 28 28 27 26 25 26 31 27 22 25 22 22 23 21 19 18 18
25 26 28 30 34 36 39 42 43 44 45 45 46 46 47 46 45 44 43 42 40 37 35 34 32 31 29 28 27 26 24 24 26 31 28 22 20 16 15 18 19 17 16
29 30 32 34 37 40 42 43 44 45 46 46 47 47 46 46 44 43 41 39 37 35 33 32 31 30 30 29 28 27 25 23 23 26 28 28 22 20 18 18 19 18 16
32 34 36 39 41 42 44 45 46 47 47 47 47 46 45 44 42 40 39 37 35 33 32 31 30 30 29 29 28 27 26 24 23 22 25 27 27 21 17 13 18 19 16
37 39 42 43 44 45 46 47 47 47 47 47 46 44 43 41 39 37 36 35 34 32 30 29 30 30 29 29 27 26 25 24 22 21 21 25 27 26 21 17 12 16 19
42 44 45 46 46 47 47 47 47 47 46 44 43 41 40 38 36 35 34 33 31 29 28 28 28 29 28 28 26 25 24 23 22 21 20 21 26 29 27 23 18 16 18

GFSGL_700_spd_081.txt.gz
Wind_Speed
26 28 28 26 27 27 26 28 26 26 26 27 26 23 28 25 27 29 30 30 32 32 26 36 34 31 33 33 32 31 32 33 37 38 37 36 40 43 45 46 47 48 45
21 26 28 32 30 33 28 25 26 27 29 28 27 26 28 22 22 23 27 31 31 31 29 30 30 32 33 32 31 32 33 31 36 41 41 40 42 45 48 48 49 50 47
24 24 31 35 38 34 31 22 26 25 26 27 26 30 24 25 25 32 31 36 37 31 31 30 31 32 31 30 31 32 33 34 37 41 43 44 45 47 49 50 50 49 48
27 27 28 30 34 29 30 27 27 29 30 28 33 29 26 29 30 35 34 35 32 29 29 31 30 30 30 31 32 33 35 37 38 40 43 45 46 47 49 49 50 46 46
28 28 26 26 27 24 28 26 30 31 31 35 36 29 29 26 37 32 36 32 28 30 31 31 30 30 30 32 35 37 39 40 41 42 46 48 49 50 51 48 46 45 45
26 24 23 24 26 28 31 31 33 31 37 35 32 31 35 34 39 28 30 30 30 31 30 30 29 30 31 34 37 39 41 41 42 45 48 51 51 52 52 48 44 45 47
26 26 27 28 28 32 32 32 33 35 33 33 34 39 40 32 37 27 29 30 30 30 30 30 30 32 34 37 39 40 41 41 43 47 49 50 52 51 52 49 42 51 43
30 31 31 32 33 35 33 31 33 31 33 36 34 38 31 41 34 29 29 30 30 29 29 31 34 35 37 40 42 43 43 42 43 45 48 50 51 50 49 47 43 42 42
23 24 26 29 31 31 34 32 29 27 30 34 33 38 39 34 31 31 29 29 29 30 32 34 36 38 40 41 43 45 45 44 44 46 47 48 47 47 44 41 34 35 35
20 20 22 24 27 27 25 23 25 28 33 34 35 34 30 31 32 31 30 31 31 33 34 35 36 39 41 43 44 46 47 46 47 46 45 45 44 41 38 37 33 30 32
21 23 24 24 24 22 22 23 28 33 31 31 32 32 33 35 34 31 30 30 32 35 36 36 38 40 42 43 44 46 47 48 47 47 45 43 41 37 34 27 26 31 32
25 26 25 24 22 22 24 28 31 31 29 30 33 34 37 37 33 30 30 31 34 37 38 39 41 42 43 43 44 45 46 46 46 45 43 41 38 33 30 27 28 27 28
26 26 25 24 25 27 30 32 30 30 31 34 34 37 36 34 32 30 31 34 36 38 40 41 43 44 44 43 44 44 45 45 43 42 41 38 34 29 27 28 27 23 23
29 28 27 29 30 33 33 32 32 33 35 36 35 31 34 35 31 31 32 34 37 39 41 42 43 44 45 44 44 44 44 44 43 41 39 35 29 28 23 23 23 23 23
33 32 32 33 34 34 34 35 36 38 37 35 36 34 32 32 30 31 33 36 38 42 44 45 45 45 46 45 43 43 42 42 40 38 36 33 30 27 26 25 24 23 22
38 37 36 36 36 38 40 40 37 36 36 35 33 34 31 31 31 33 35 38 41 44 45 46 47 47 47 46 45 44 43 41 39 36 34 32 31 32 27 20 24 25 25
42 39 38 39 41 43 43 40 36 33 33 33 33 33 33 33 33 33 37 41 44 46 47 47 47 47 46 46 45 44 42 40 37 35 33 31 30 33 31 20 24 24 23
39 41 42 41 37 33 34 35 36 37 35 32 30 32 34 34 33 36 39 43 45 45 46 46 46 46 46 45 43 41 39 36 34 32 31 29 29 29 40 34 29 19 21
36 32 28 29 32 34 34 33 32 33 34 33 34 37 38 39 40 41 43 46 47 47 47 46 45 45 44 42 40 38 36 33 32 30 29 27 26 26 29 26 23 17 22
24 27 29 31 31 30 31 32 32 32 34 36 37 38 40 42 44 45 46 48 48 48 47 46 45 44 42 40 37 35 33 31 29 28 28 26 24 22 23 22 24 26 25
25 26 28 29 30 30 31 32 34 35 37 39 40 41 43 44 45 46 47 48 47 47 46 45 42 40 39 36 34 32 30 29 28 27 26 25 23 21 22 21 22 23 20
25 26 27 29 31 33 35 37 38 39 40 42 43 45 46 47 48 48 48 47 46 44 42 40 38 36 34 32 31 30 28 27 26 26 25 24 22 21 19 23 21 23 21
27 30 32 34 36 37 39 41 42 44 45 46 46 46 46 46 46 45 45 43 42 40 37 35 33 31 31 30 29 28 27 26 25 25 24 22 21 20 19 20 21 20 21
32 35 37 39 41 42 43 44 45 45 46 47 47 46 45 44 43 42 40 38 36 34 33 31 30 30 29 27 26 25 25 25 25 24 23 21 20 19 18 19 24 18 22
36 38 40 42 44 45 46 46 47 46 46 45 43 42 41 39 38 36 35 33 32 30 29 29 29 28 27 25 24 23 24 24 24 24 22 20 18 18 18 18 23 22 21
41 43 44 45 45 45 45 45 44 43 42 41 39 38 36 35 34 33 31 30 29 28 27 26 25 25 23 22 22 23 23 22 22 21 21 19 17 18 18 17 22 24 20

GFSGL_700_spd_084.txt.gz
Wind_Speed
16 20 23 25 26 26 28 29 27 27 27 29 29 28 23 25 25 24 22 20 20 21 29 26 27 29 31 36 36 37 38 39 41 39 39 37 38 38 38 40 42 45 46
17 18 18 21 26 29 30 35 37 34 29 26 28 29 28 27 25 25 24 22 28 26 30 31 37 32 32 35 35 38 38 37 39 41 39 39 40 39 39 41 44 46 49
19 20 22 24 25 26 31 37 40 29 16 26 28 28 26 28 30 32 31 21 28 34 32 39 35 33 33 35 37 38 38 37 38 40 42 42 42 41 43 44 46 48 50
21 22 23 23 22 26 30 33 35 17 20 21 26 26 29 30 31 31 32 27 32 36 39 37 34 33 35 36 37 37 37 38 38 40 43 44 44 43 45 46 49 50 53
19 22 24 24 26 28 33 27 21 20 22 24 27 29 35 37 35 37 29 30 36 42 33 33 34 34 36 37 37 37 37 39 40 43 45 45 45 46 47 49 51 52 53
20 22 23 23 26 26 25 26 26 27 27 29 31 34 37 36 33 37 37 35 34 38 33 33 34 37 37 36 38 39 39 40 43 45 46 47 47 49 49 51 53 54 55
23 22 22 26 29 29 29 30 31 33 34 36 38 38 39 38 34 37 39 33 32 32 33 34 35 37 37 37 38 39 40 42 44 47 48 49 51 50 51 52 53 54 53
27 26 30 31 33 34 36 36 36 37 40 38 38 40 46 35 38 45 34 30 31 35 36 36 36 36 37 39 39 40 41 42 43 46 48 49 50 50 51 52 52 52 50
29 29 27 28 29 31 33 35 36 35 32 35 33 30 35 41 41 36 37 35 36 39 39 38 36 37 39 40 41 43 44 44 45 46 48 48 47 47 49 50 49 48 48
25 24 23 24 24 26 28 30 30 30 31 33 34 33 36 43 34 40 42 40 39 38 36 35 38 38 38 41 43 44 46 47 48 48 47 47 47 46 46 47 45 44 42
22 22 23 24 26 26 26 26 27 26 30 29 33 36 35 41 42 40 42 39 35 35 34 36 37 39 40 42 43 45 47 49 50 50 49 47 46 46 45 45 42 39 35
24 24 25 26 26 27 26 25 24 24 26 31 35 40 41 42 43 45 42 36 35 36 39 37 38 39 42 43 45 46 47 48 50 49 49 48 47 46 44 42 39 36 30
27 28 29 30 30 29 27 26 26 30 35 39 36 40 42 43 46 43 39 34 37 42 39 39 39 40 42 44 45 46 47 48 49 49 48 47 46 45 43 39 37 32 30
31 31 32 32 32 30 29 30 32 36 38 39 42 44 46 47 42 39 43 46 45 43 40 38 40 42 43 45 46 47 48 49 49 48 47 46 44 43 40 37 34 30 29
34 35 35 35 33 33 34 36 38 41 43 45 48 48 46 43 43 45 45 45 43 41 40 41 42 43 44 46 47 49 49 48 47 47 46 44 43 41 38 36 33 31 29
35 36 36 36 35 37 42 43 45 48 49 44 39 40 43 44 44 44 44 41 39 42 41 42 44 45 46 47 49 49 49 47 47 46 44 43 41 40 37 33 33 30 29
38 39 38 35 34 36 38 40 41 39 39 41 42 41 40 40 40 40 40 42 43 43 44 45 47 47 48 48 49 49 49 48 46 45 43 41 40 38 33 30 30 33 25
32 32 32 33 33 35 35 34 34 36 37 37 37 38 40 40 40 40 42 43 43 44 46 46 47 47 48 49 49 49 48 47 45 43 41 39 37 34 30 28 27 31 38
30 32 31 29 26 27 29 32 34 35 36 37 38 39 40 41 42 44 45 45 46 47 47 47 48 49 49 48 48 47 45 43 41 39 37 35 33 30 28 27 25 24 22
22 20 21 24 27 29 31 32 34 35 37 39 40 41 43 44 46 47 48 49 48 49 49 49 49 48 47 46 45 43 41 39 37 35 33 31 30 28 27 25 23 22 27
20 22 25 27 29 31 32 34 36 38 40 42 44 45 47 47 48 49 50 50 50 50 50 48 47 46 45 43 42 40 38 35 33 32 30 28 27 26 25 24 21 21 21
23 25 27 29 32 34 37 39 41 43 45 46 47 48 49 50 50 50 51 50 49 48 47 46 44 42 40 38 37 35 33 31 30 29 28 26 25 24 23 22 20 20 20
27 29 32 35 37 40 42 44 45 47 48 49 49 49 49 49 49 48 48 47 46 45 43 41 39 37 36 35 33 32 31 29 27 26 25 23 22 22 22 20 19 18 19
32 35 37 40 42 44 45 46 47 48 48 49 48 48 48 47 46 45 44 43 41 40 38 36 36 35 33 31 30 29 28 26 25 24 23 22 20 20 20 19 19 17 21
36 38 40 41 43 44 45 47 48 48 48 48 47 46 45 43 42 41 39 38 36 35 34 33 32 31 30 28 26 25 23 23 23 23 22 20 18 18 18 18 19 16 21
37 39 41 43 44 46 47 48 48 48 47 46 44 42 40 39 38 36 34 33 31 30 29 29 28 27 26 24 22 21 21 21 21 21 20 18 16 16 17 18 19 16 21

GFSGL_700_spd_087.txt.gz
Wind_Speed
23 24 23 22 22 24 25 27 28 29 30 31 33 36 38 40 33 21 26 28 29 28 26 34 31 26 29 35 34 34 35 39 43 43 44 41 39 39 38 40 41 42 44
19 19 20 22 23 25 26 29 31 34 35 39 39 38 39 33 30 32 28 30 31 30 28 27 32 32 33 37 40 37 38 40 43 45 43 41 41 40 40 42 42 43 45
16 18 20 20 22 22 24 26 26 30 36 44 45 43 32 26 29 29 31 32 34 31 34 27 38 40 35 36 45 41 40 41 42 44 43 42 42 41 42 43 44 46 47
14 16 19 22 21 22 22 24 25 29 28 18 12 17 25 29 32 31 32 35 36 36 39 36 32 35 45 40 44 43 42 42 43 43 44 44 44 43 44 46 49 48 50
15 15 16 19 22 24 25 25 26 25 27 21 20 24 24 28 32 32 36 36 33 39 38 37 38 37 43 45 42 42 44 44 43 43 44 45 45 45 46 49 51 51 51
18 19 20 22 24 24 23 24 26 26 27 27 28 28 29 31 35 39 37 39 35 47 37 44 46 43 44 43 43 44 45 44 43 44 45 46 46 47 49 51 52 52 55
23 21 23 25 25 26 29 29 29 32 32 34 34 36 37 39 33 40 46 43 37 38 37 43 43 43 43 43 45 47 44 43 44 46 46 47 48 49 51 52 52 53 53
25 26 25 26 28 29 29 31 34 38 39 40 39 37 37 34 42 40 45 41 37 37 39 42 40 41 43 45 46 45 43 42 45 47 48 49 50 50 51 52 53 53 53
27 28 27 27 28 30 31 33 33 35 35 36 37 31 35 42 36 48 39 40 40 43 42 42 41 43 45 46 44 43 44 44 46 48 48 48 48 50 50 51 51 52 52
28 28 28 30 30 28 27 28 30 32 33 32 28 31 32 38 34 44 41 42 44 43 42 44 48 47 43 43 44 47 48 48 48 47 47 47 48 48 48 48 48 50 50
26 26 28 27 26 27 28 29 30 32 32 30 26 29 35 37 38 41 49 42 45 52 50 52 52 47 45 46 49 54 53 47 48 50 49 47 46 48 48 48 47 47 47
25 26 26 27 29 29 30 31 30 29 29 27 29 34 36 40 44 41 45 49 53 57 50 48 47 49 52 52 53 51 49 50 50 48 47 46 47 47 48 48 47 46 45
27 28 29 30 32 32 32 32 32 31 30 29 32 37 40 42 45 49 53 59 56 51 49 50 52 54 52 55 54 52 50 47 48 47 46 47 47 48 49 47 46 46 45
28 31 33 34 34 34 34 33 32 32 31 35 39 42 45 47 52 55 56 52 51 52 52 51 52 55 57 55 51 48 48 48 48 47 47 47 47 47 47 47 46 45 44
29 30 31 32 33 34 33 31 32 34 39 42 46 49 50 48 46 48 49 51 52 52 52 52 52 52 49 50 50 49 49 48 48 47 46 46 47 48 47 46 45 43 42
28 27 27 29 31 29 26 26 33 37 39 41 42 44 46 47 49 49 49 49 49 49 49 50 48 50 51 50 49 48 48 48 47 47 48 48 48 47 46 43 42 40 39
27 26 26 27 27 26 27 29 33 36 39 42 43 43 44 46 48 49 48 48 48 48 49 50 49 49 49 48 48 49 49 48 49 50 50 48 47 45 42 40 39 36 34
25 25 27 28 30 31 32 33 35 35 35 37 40 42 44 45 45 46 47 48 48 48 49 50 50 50 50 51 50 49 49 50 50 49 47 45 43 41 39 37 35 33 30
27 28 29 30 29 28 28 30 32 34 37 38 40 42 43 46 47 48 49 50 51 51 52 52 52 52 51 51 51 50 49 48 47 45 42 40 38 36 34 32 31 29 27
27 25 24 25 27 29 31 33 35 37 39 41 43 45 47 48 50 52 53 54 54 54 54 54 53 51 50 49 48 47 45 44 42 40 37 35 33 32 31 29 27 26 25
21 23 24 27 29 31 33 36 38 41 44 46 48 50 52 53 54 55 55 55 54 53 53 52 50 48 47 45 43 42 40 38 36 34 33 31 30 28 27 26 25 24 22
22 24 27 30 33 36 39 42 44 47 49 50 52 53 53 54 54 54 54 53 52 51 50 48 47 45 42 40 38 37 34 32 31 30 29 28 26 26 26 24 23 22 20
26 29 33 36 38 41 43 45 46 48 50 51 53 53 53 53 52 52 50 49 48 46 44 42 41 39 37 35 34 33 32 30 29 28 26 24 23 23 23 22 21 19 18
32 34 37 39 41 42 45 47 48 50 51 52 52 52 51 49 48 46 45 43 41 39 38 36 35 34 32 31 30 30 29 28 26 24 24 22 20 21 21 20 19 18 16
33 35 38 39 41 44 46 47 49 49 50 50 49 47 44 41 39 37 36 35 34 33 32 31 31 30 29 28 27 26 24 23 22 22 21 20 19 19 18 17 17 16 16
34 37 39 41 43 44 46 46 46 45 44 42 39 37 34 32 31 31 30 30 30 29 28 28 27 27 26 24 23 21 20 20 20 20 19 18 16 16 16 15 15 15 16

GFSGL_700_spd_090.txt.gz
Wind_Speed
19 21 20 20 21 22 22 21 22 23 24 27 31 35 39 41 44 46 49 49 50 36 37 38 35 36 38 33 37 32 37 37 39 38 39 39 39 39 39 40 39 41 42
17 22 25 22 29 28 26 25 27 28 30 31 34 37 41 43 49 50 50 36 43 26 31 36 36 35 36 37 42 32 47 39 40 47 43 41 40 40 41 40 39 41 42
15 23 20 22 25 28 28 29 30 30 31 33 34 29 41 51 36 50 53 40 29 34 34 36 37 36 38 36 42 40 39 47 49 48 47 43 43 42 43 43 43 43 44
6 9 15 21 21 23 24 25 26 26 29 28 29 35 23 22 25 25 26 28 34 34 38 40 39 38 43 36 34 46 42 48 47 49 46 46 46 45 45 45 46 45 47
10 11 11 10 12 17 21 23 25 27 28 27 26 25 27 27 27 29 33 35 36 39 40 42 39 48 45 51 46 50 48 46 48 46 48 50 48 46 46 47 48 47 49
15 15 15 17 17 18 20 22 23 23 25 27 27 26 27 29 30 33 37 40 40 40 41 45 46 47 52 48 52 46 43 48 47 49 50 50 48 47 44 46 48 51 53
22 21 21 21 21 22 23 23 25 27 28 29 31 33 34 34 35 39 40 40 46 48 39 46 51 53 46 40 49 49 53 50 50 51 51 49 49 47 51 48 49 52 55
25 24 25 27 28 26 26 26 27 29 31 33 33 36 38 39 40 37 36 42 49 36 44 54 49 44 41 44 51 52 50 51 52 53 53 47 47 50 50 54 51 54 53
28 27 28 29 30 28 28 29 30 31 33 33 33 34 35 34 36 38 35 40 43 38 50 37 44 48 47 49 50 52 54 52 54 53 46 48 53 51 50 50 52 52 49
25 26 28 29 30 31 31 32 33 32 30 32 33 35 35 33 33 34 35 43 42 39 48 47 48 51 52 50 54 55 56 53 49 51 54 54 55 54 51 52 51 48 46
20 22 26 29 29 30 32 31 30 30 32 32 33 33 31 29 27 32 37 43 44 47 48 50 51 52 53 55 55 57 56 55 57 58 57 58 56 53 51 50 47 44 43
19 21 24 26 27 28 29 30 31 32 33 32 32 29 31 28 32 35 40 44 50 53 50 49 52 53 53 54 56 58 57 57 57 57 58 56 53 50 47 45 43 42 42
18 19 22 24 26 28 30 32 32 32 32 31 30 30 30 34 39 45 48 50 46 46 48 46 48 53 55 56 55 54 55 56 57 55 52 50 48 47 45 43 42 41 41
19 21 22 24 25 27 28 28 30 31 33 31 31 34 38 42 44 45 43 41 41 45 49 53 54 54 54 52 51 51 52 51 49 50 49 48 46 44 43 43 44 44 45
24 25 26 27 28 28 29 29 28 26 26 29 34 36 37 38 40 44 47 50 52 54 54 53 52 51 51 51 51 51 51 50 49 48 46 45 44 45 45 44 45 45 45
26 27 27 27 27 26 25 24 25 26 28 31 34 37 40 43 46 48 50 50 52 53 53 52 52 51 51 50 50 49 48 48 47 46 46 47 46 46 45 44 44 43 42
28 27 26 25 24 24 24 25 27 29 32 34 37 39 41 42 44 47 49 50 51 51 52 53 52 51 51 50 49 49 49 49 49 48 48 47 45 44 43 41 41 40 38
25 25 25 25 26 27 28 29 29 30 31 34 36 39 42 43 45 47 49 50 51 52 53 53 53 53 53 53 52 51 50 49 48 46 45 43 42 41 39 38 37 35 34
25 26 25 25 25 25 26 28 30 32 34 36 39 41 44 47 50 52 53 54 55 56 56 55 55 54 53 52 51 49 48 46 44 43 41 39 38 36 34 33 31 29 28
25 23 21 22 24 25 27 30 32 35 38 41 43 45 47 49 50 52 53 54 55 55 55 54 53 51 50 48 46 44 42 41 39 38 36 34 32 30 28 28 27 26 24
19 21 22 23 26 29 32 35 37 39 42 44 45 48 50 51 53 53 54 54 54 53 52 50 48 46 44 41 39 38 36 35 33 32 30 29 28 26 25 25 24 23 22
20 22 25 28 30 33 35 37 40 42 44 47 48 50 51 51 51 51 51 50 49 47 46 43 41 39 37 35 34 32 30 29 28 27 26 25 24 22 23 22 21 20 19
23 25 28 30 33 36 38 40 42 43 44 45 46 46 46 46 46 45 43 41 39 37 35 34 32 31 30 30 29 28 27 25 24 23 22 21 19 19 20 19 19 18 17
25 28 31 33 35 37 38 39 40 42 43 44 44 44 42 40 38 35 33 32 30 30 30 30 29 28 27 26 25 24 23 22 21 20 19 17 15 16 17 17 17 16 15
28 30 32 34 35 36 37 39 41 42 41 40 38 36 35 33 32 31 30 30 29 28 28 28 28 27 25 24 23 22 20 19 19 18 16 16 15 15 16 15 14 13 12
30 31 32 33 34 36 37 38 37 36 34 33 32 32 31 30 30 29 28 28 27 27 27 26 25 25 23 22 21 20 18 18 17 17 16 15 14 14 13 12 12 11 10

GFSGL_700_spd_093.txt.gz
Wind_Speed
18 17 16 16 15 16 16 16 17 20 21 24 26 28 31 35 38 43 47 51 53 55 54 57 57 49 51 45 48 43 40 45 42 38 37 38 45 42 41 40 42 44 45
15 19 22 21 20 22 22 22 24 25 25 26 29 33 35 39 42 48 52 51 53 54 49 49 44 52 43 46 48 43 43 44 46 45 37 43 42 42 47 44 43 44 46
16 19 21 22 22 29 24 25 28 28 29 30 31 33 35 36 42 43 40 43 45 48 44 58 63 49 34 43 39 44 46 47 48 44 46 44 43 49 48 45 44 44 47
13 13 15 18 23 18 21 25 30 30 31 32 34 37 40 38 43 36 36 35 33 30 33 32 35 41 40 55 44 50 50 49 46 46 45 52 51 50 47 46 49 49 47
7 7 6 11 14 19 24 26 25 26 28 32 33 34 35 36 34 34 35 33 36 36 36 38 42 44 47 45 51 53 51 54 50 54 51 54 48 48 49 51 53 51 50
11 11 13 14 17 18 19 23 25 28 30 31 32 31 32 33 32 32 34 37 40 41 42 44 42 48 46 45 52 58 55 54 55 52 54 50 53 56 49 51 55 54 55
19 21 21 21 23 26 26 26 25 26 28 29 30 32 32 34 34 35 37 41 43 45 45 46 45 51 49 47 58 47 62 49 45 53 51 51 50 50 53 53 55 53 53
23 25 27 28 28 28 31 29 29 28 30 31 31 32 32 33 32 37 39 40 42 45 44 45 46 47 42 40 47 54 49 47 50 52 51 50 52 55 57 56 55 56 58
26 28 31 30 30 31 32 30 31 31 31 31 31 30 33 35 34 35 37 37 39 38 44 45 45 42 32 36 44 51 53 57 59 58 55 53 56 59 59 61 56 56 57
27 27 27 27 28 29 31 30 30 30 31 32 33 34 34 33 35 36 36 34 35 37 39 44 40 43 51 51 51 54 56 55 52 51 54 57 58 59 56 53 52 54 53
19 17 18 20 24 27 28 29 30 31 33 34 33 34 34 34 35 35 35 31 32 37 41 43 46 49 49 48 48 46 45 47 51 55 58 58 55 52 51 52 53 51 48
16 16 18 20 22 24 26 27 28 29 30 30 32 33 33 33 33 35 34 31 36 40 43 45 46 46 45 45 47 51 55 58 59 57 54 53 51 50 49 47 46 44 43
15 16 18 21 22 23 25 26 28 29 30 30 30 30 32 33 35 35 36 39 42 41 41 42 43 46 50 54 56 57 57 55 53 51 50 49 48 47 46 44 43 41 39
16 19 20 20 21 23 25 26 28 29 29 28 28 27 29 32 34 35 36 38 40 43 46 48 51 52 53 53 53 53 52 51 50 49 48 47 46 45 44 42 41 40 41
18 19 20 21 24 25 26 26 27 26 25 25 26 27 30 33 35 38 41 44 46 48 49 50 51 51 52 52 52 52 51 50 48 47 46 45 44 43 43 44 44 44 45
18 19 21 23 23 23 22 22 21 21 21 24 27 29 32 35 37 39 41 43 46 48 50 51 53 53 53 53 52 51 50 49 48 48 48 47 47 46 46 45 44 43 42
17 21 22 21 20 20 19 19 20 21 22 24 26 28 31 34 37 39 42 45 48 51 52 54 55 55 55 54 54 53 52 52 51 50 48 46 45 44 42 41 40 39 38
19 18 20 21 21 19 18 19 20 23 25 28 31 34 36 39 42 44 47 50 52 53 54 56 56 56 55 54 54 52 51 49 47 46 44 42 40 39 38 36 35 34 33
17 19 20 19 17 17 19 21 23 26 30 32 36 39 42 45 48 50 51 52 53 54 53 53 53 52 51 50 48 47 45 43 42 40 39 37 36 34 32 30 29 28 27
18 18 16 16 18 20 23 25 28 30 33 36 39 41 43 44 46 47 49 49 50 49 49 48 46 45 43 41 39 38 36 35 34 33 32 30 29 28 26 25 24 24 23
15 15 17 19 22 24 26 28 31 34 36 37 39 41 42 43 44 44 43 42 41 39 38 36 35 33 32 31 30 30 29 28 28 27 26 25 24 23 22 22 21 21 20
15 17 20 22 24 26 29 31 32 34 35 37 39 39 40 39 39 38 37 36 34 33 32 31 30 29 28 28 27 26 26 25 24 24 23 22 20 20 20 19 19 18 17
17 19 22 24 27 28 30 31 32 34 35 36 36 36 35 34 34 33 32 31 30 30 30 29 28 27 27 26 26 26 24 23 22 21 19 17 17 17 17 16 16 15 15
20 22 24 25 26 28 29 31 33 34 34 33 33 32 31 30 29 29 29 30 30 30 30 29 28 27 26 25 24 23 22 21 20 18 16 15 14 15 15 14 15 14 13
20 22 23 25 27 29 31 32 32 31 31 31 30 29 28 28 28 29 29 29 28 28 28 27 26 25 23 23 22 21 20 19 18 16 15 14 13 13 14 13 12 11 11
21 23 24 26 28 29 29 29 29 29 29 28 27 27 27 27 27 27 27 27 27 26 26 25 25 24 23 22 21 20 19 18 18 17 15 14 13 13 12 11 10 9 8

GFSGL_700_spd_096.txt.gz
Wind_Speed
12 12 11 11 10 10 10 11 12 14 15 17 18 20 22 24 26 31 34 38 43 47 49 53 57 59 64 64 61 62 63 65 56 52 59 48 48 47 48 44 44 43 44
16 19 17 16 16 15 14 13 14 15 16 18 20 23 25 28 30 34 37 39 44 49 53 52 45 54 56 62 61 55 47 53 67 62 58 47 59 51 51 52 51 48 47
17 18 20 22 22 19 17 19 20 20 21 23 25 27 29 31 34 37 40 42 46 50 51 48 46 46 43 39 40 46 52 54 50 53 56 52 55 60 58 57 55 49 55
18 20 22 20 22 25 25 26 29 25 26 28 30 31 33 36 39 42 45 46 48 51 47 45 49 47 43 39 41 45 47 50 56 56 62 58 59 63 61 56 61 57 55
16 16 14 16 19 23 27 24 27 29 28 32 33 37 39 42 43 43 45 45 48 46 49 48 45 44 45 44 46 49 52 56 51 53 52 55 60 58 61 61 58 56 52
14 14 15 16 18 18 19 21 27 29 31 31 32 33 35 37 38 39 39 41 43 44 44 46 48 47 49 49 49 52 54 55 59 59 50 54 56 60 58 56 53 53 56
19 20 20 21 21 22 24 25 27 29 29 30 31 33 36 37 36 38 41 42 44 46 46 48 49 51 52 51 55 50 56 56 51 51 48 53 58 56 56 55 58 61 59
26 25 25 26 27 28 30 32 33 32 34 34 34 35 37 38 40 41 43 41 40 43 45 47 49 50 53 54 50 52 50 49 45 45 48 50 52 56 61 61 57 56 57
28 30 31 30 30 30 30 31 31 31 32 34 35 36 38 40 41 38 39 42 44 44 45 46 46 45 47 46 44 47 46 46 48 47 49 53 54 52 50 52 54 57 59
31 30 28 28 30 30 29 31 33 33 32 33 35 39 40 39 39 41 44 44 43 45 45 43 43 43 44 45 44 44 47 48 50 50 50 50 50 52 54 57 59 59 56
31 28 27 29 26 25 24 27 30 32 33 34 35 36 38 42 45 40 39 40 42 43 42 42 43 44 46 46 45 46 48 50 51 52 54 57 60 61 61 59 57 55 52
26 25 25 24 24 24 26 29 30 32 33 35 36 38 38 38 37 36 37 38 38 38 40 41 43 44 45 47 49 51 53 56 58 60 61 60 58 56 55 53 52 50 49
20 21 24 25 21 24 26 26 28 29 31 32 33 34 34 34 35 34 34 35 37 38 40 42 45 48 50 53 54 56 56 57 57 56 56 55 54 54 52 51 50 49 47
23 24 23 20 22 22 23 24 26 28 29 31 32 33 33 33 32 32 35 37 39 42 44 47 49 50 51 53 54 57 56 56 55 55 55 54 53 52 51 51 49 48 47
24 22 18 17 20 22 23 24 26 28 27 27 27 27 28 29 31 34 37 38 40 42 44 47 50 52 53 55 56 57 59 58 57 57 55 54 53 53 52 51 51 49 48
20 16 15 18 20 21 22 23 23 22 22 22 23 25 27 29 31 34 37 40 43 46 49 50 52 53 54 54 54 54 53 54 55 54 52 52 51 51 50 48 46 45 45
23 13 13 16 17 17 19 21 19 18 18 20 22 25 28 32 35 38 41 44 44 47 49 50 51 52 51 52 52 51 51 50 50 49 49 47 46 45 44 42 40 40 39
10 11 13 14 17 18 17 16 17 18 21 24 26 29 32 34 37 39 42 44 46 48 47 48 49 50 49 48 47 45 44 43 42 41 40 39 38 37 36 35 33 33 32
10 11 12 15 15 13 14 16 19 22 25 28 31 33 35 38 39 40 42 43 43 44 44 43 41 39 38 37 36 35 35 34 34 33 33 32 31 31 30 29 27 26 26
10 12 12 12 12 14 17 19 22 24 27 29 31 33 35 37 39 40 40 40 39 38 36 34 33 32 31 31 31 30 29 29 29 29 29 28 28 27 26 25 24 23 22
9 8 9 12 14 16 18 21 23 25 27 29 30 32 34 36 37 37 36 34 33 31 30 29 29 29 29 28 27 27 26 27 27 27 26 26 25 24 23 22 21 20 19
7 9 12 14 16 18 20 22 24 26 28 29 31 32 34 33 32 31 30 30 29 29 29 28 28 28 28 28 27 27 26 25 25 24 23 23 22 21 21 19 18 18 17
9 11 14 16 18 20 21 23 24 26 28 29 30 30 30 29 28 28 28 28 27 27 27 27 28 28 28 27 26 25 24 23 22 22 21 20 20 19 19 18 18 17 16
11 13 16 17 19 20 22 24 25 26 27 27 28 27 26 26 27 27 27 26 26 27 27 28 28 28 27 26 25 24 23 22 21 20 19 19 19 19 18 17 17 16 14
13 15 16 18 20 21 22 23 24 25 26 26 25 24 25 26 27 27 26 26 25 26 26 27 27 26 25 25 24 24 23 22 21 20 19 18 18 18 17 16 15 12 12
14 16 17 18 20 20 21 23 24 25 24 24 23 24 26 26 26 25 25 24 24 24 25 25 25 25 25 25 25 25 24 23 22 21 19 18 17 16 15 13 11 10 9

GFSGL_700_spd_099.txt.gz
Wind_Speed
8 8 8 9 10 9 8 9 10 11 13 14 15 17 19 20 21 25 29 30 32 35 38 40 42 45 49 54 55 49 50 53 58 54 55 59 61 54 54 63 57 49 53
12 13 13 13 13 13 13 12 12 11 12 13 14 16 19 20 22 23 25 27 30 33 35 40 45 47 51 55 50 52 56 47 50 51 44 45 49 50 52 56 64 50 57
17 16 17 18 17 15 15 15 15 14 15 16 16 18 20 21 24 27 29 31 33 36 39 44 46 48 51 53 52 53 55 51 48 51 47 48 52 52 54 58 61 67 63
16 18 20 19 20 20 20 19 19 19 17 17 18 22 24 26 29 32 34 36 39 41 43 45 50 54 54 48 54 60 57 48 50 52 52 55 56 55 60 59 62 62 66
19 19 21 22 21 21 22 24 24 24 24 26 25 25 26 31 35 38 39 41 41 41 42 46 48 41 51 52 52 54 54 55 54 52 59 54 64 54 57 53 53 54 58
12 15 16 17 18 19 18 20 24 24 24 25 27 30 32 35 33 34 35 39 41 41 42 44 46 47 48 50 51 53 53 52 54 53 58 62 61 52 56 53 50 51 54
15 14 16 16 16 17 18 20 21 24 29 31 32 33 34 34 32 33 34 36 39 41 44 44 44 53 49 53 55 54 55 55 58 60 56 55 57 53 50 50 50 52 54
23 21 22 23 23 24 25 27 28 30 32 33 33 33 35 36 33 34 37 38 40 42 42 48 48 54 54 56 54 55 54 54 53 53 52 53 53 50 49 47 47 48 50
32 30 29 29 29 28 27 27 29 30 32 32 34 35 37 38 37 39 40 42 46 46 46 48 54 56 54 55 53 51 51 52 52 51 50 50 48 46 47 50 52 55 57
33 31 30 32 31 31 30 28 28 30 32 33 33 35 37 38 39 40 41 45 45 47 50 53 53 51 51 51 50 50 51 50 49 50 51 53 55 57 57 57 58 59 60
28 34 33 32 31 27 27 27 27 26 27 29 31 33 35 38 39 40 42 44 46 48 47 47 48 48 48 48 48 50 52 53 55 57 58 60 62 63 62 63 61 59 57
41 38 32 31 30 28 26 25 25 26 28 30 32 34 36 39 42 43 43 42 42 42 43 44 45 45 47 50 51 54 55 56 58 59 59 60 61 61 61 60 59 58 56
35 32 31 28 25 24 23 22 23 26 27 29 31 33 35 36 37 38 38 38 39 38 40 42 44 46 48 51 53 55 57 59 60 59 60 60 61 62 61 61 60 59 57
35 34 26 23 19 23 24 25 25 24 26 29 32 34 35 36 36 35 34 34 35 37 39 42 45 47 50 53 55 57 59 61 62 61 60 60 59 58 59 58 59 57 57
30 26 24 24 27 30 31 27 22 24 28 30 31 30 30 29 29 29 31 33 36 39 42 45 48 50 51 52 54 55 55 56 56 56 55 54 53 51 50 50 49 49 49
27 23 21 17 20 19 16 18 24 25 26 27 26 25 24 26 28 31 33 36 39 41 45 47 49 50 50 51 51 50 48 47 45 44 44 44 43 42 42 41 39 38 38
20 24 19 15 16 17 17 21 22 22 21 20 20 22 24 27 30 33 37 40 37 42 45 47 47 47 45 44 43 42 41 41 40 39 38 37 37 36 36 35 34 33 33
16 13 11 12 13 15 17 17 15 15 16 18 20 23 26 28 31 34 36 39 43 43 41 41 41 41 41 40 40 39 38 37 36 35 34 33 33 33 33 32 31 31 30
9 11 12 14 15 15 13 11 12 15 18 21 23 25 28 30 32 34 36 37 37 38 38 39 39 39 38 37 36 36 36 35 34 33 33 32 31 31 30 30 29 28 27
8 8 8 9 9 9 11 13 15 18 20 23 25 28 30 32 33 33 33 34 34 35 36 36 35 34 34 34 34 34 33 33 33 32 31 30 30 29 28 27 26 26 24
7 7 8 7 8 10 12 15 17 20 22 24 26 28 30 31 32 33 33 33 34 34 33 31 31 31 32 32 33 33 32 31 31 30 29 28 27 27 26 25 24 23 22
6 6 7 8 9 12 14 16 18 20 22 24 26 27 28 29 30 31 32 32 32 31 29 28 29 30 31 32 32 31 31 30 29 28 27 27 26 25 24 23 23 22 21
6 7 9 10 11 13 15 17 19 21 23 24 25 26 27 28 28 29 30 30 29 28 27 27 28 29 30 30 30 30 30 29 28 27 26 25 25 25 24 23 22 21 20
7 8 9 10 12 14 17 18 20 21 22 24 25 26 26 27 27 28 28 28 27 26 26 26 27 28 28 28 29 30 30 30 29 27 26 25 24 24 23 22 21 19 18
8 9 10 12 15 16 18 18 19 21 22 23 24 25 25 26 26 26 27 27 26 25 25 24 25 26 26 28 28 28 28 28 28 27 25 24 23 22 21 20 19 16 16
9 10 12 14 16 17 18 19 20 21 22 23 24 24 24 25 25 26 26 26 25 24 24 23 24 25 26 27 26 25 24 25 25 25 25 24 22 21 20 18 16 15 14

GFSGL_700_spd_102.txt.gz
Wind_Speed
4 5 5 7 10 11 13 13 13 16 19 20 19 19 23 22 21 22 23 24 30 29 28 29 30 31 34 38 41 44 47 48 52 53 52 49 51 51 47 45 43 38 45
7 7 7 7 7 9 11 12 12 12 12 13 15 15 17 18 19 20 21 20 23 25 27 30 30 32 36 38 42 45 48 49 53 58 50 54 52 50 52 48 49 48 52
10 10 10 11 11 11 11 11 11 11 11 11 11 13 13 14 15 17 19 21 24 25 27 30 33 35 38 41 44 50 54 55 48 48 55 53 51 55 54 53 55 55 51
14 13 13 14 14 14 14 14 14 14 14 14 13 14 15 17 18 19 22 24 27 28 29 33 36 39 41 41 45 46 44 39 49 56 56 53 56 51 56 53 53 55 58
15 15 15 16 16 17 18 17 17 16 16 15 16 17 19 21 24 23 24 28 31 32 34 37 38 40 41 48 44 43 49 52 51 48 55 60 58 59 55 58 60 58 53
15 15 16 16 17 18 17 17 18 20 20 20 22 24 26 26 26 28 30 31 31 32 35 36 39 41 44 46 47 51 49 47 50 54 60 61 58 56 56 55 56 56 57
18 15 14 14 15 16 17 18 19 19 21 23 25 27 28 29 29 30 32 32 32 31 35 40 40 43 46 50 47 57 54 57 60 59 57 55 54 54 55 56 55 54 55
22 20 18 19 20 19 20 18 22 23 24 26 28 29 30 31 31 32 32 33 33 35 39 43 42 45 44 53 54 50 59 59 56 54 54 54 54 54 53 53 53 54 54
26 24 26 26 26 24 24 24 26 27 28 29 30 32 33 33 33 33 31 33 36 41 44 40 44 46 51 49 51 53 53 51 50 50 50 50 51 53 54 55 56 57 59
28 29 31 31 32 31 30 30 30 28 28 30 30 31 32 32 31 31 33 37 41 36 39 47 51 47 49 50 50 50 51 51 51 52 53 54 55 55 55 57 57 56 57
33 28 31 37 38 36 35 32 30 30 30 28 28 26 26 27 30 32 32 34 42 44 44 47 50 48 47 47 47 48 49 51 52 54 55 56 58 58 58 59 59 59 59
41 34 31 32 32 35 35 33 32 29 27 25 23 23 26 27 32 36 38 40 42 43 43 43 43 41 42 44 46 48 51 53 55 55 57 58 59 59 59 59 59 57 56
37 37 38 38 36 40 38 30 26 25 24 24 24 25 28 32 33 32 34 36 36 36 37 36 37 40 43 47 50 52 54 56 57 57 56 56 55 55 54 54 53 52 51
36 37 39 38 35 33 31 31 26 25 25 23 23 25 27 27 28 29 30 30 31 32 35 38 39 42 45 48 50 52 54 54 55 54 53 51 49 48 46 45 45 44 44
36 34 32 30 26 26 28 25 23 22 23 23 23 23 23 24 24 24 26 28 30 33 36 39 41 43 45 46 47 48 49 49 48 47 45 45 44 43 41 41 40 39 39
26 26 26 27 28 28 21 24 24 22 17 17 18 20 22 23 21 23 26 29 32 36 39 41 42 43 45 46 46 45 44 42 41 41 40 41 41 41 40 39 38 36 36
28 22 23 24 21 22 23 15 11 12 14 15 15 16 19 21 23 27 29 31 34 36 39 41 42 42 43 43 41 39 39 39 39 40 40 40 39 39 37 36 34 33 32
26 24 20 16 13 9 8 8 8 8 11 14 16 18 20 22 25 28 32 34 35 37 38 39 39 38 37 36 36 36 37 38 39 39 39 38 37 36 34 33 31 31 30
14 12 7 6 8 8 8 9 10 10 12 14 15 17 19 23 26 29 32 33 35 36 36 36 35 34 34 34 35 36 38 39 38 37 36 35 34 33 31 30 29 28 27
8 5 4 5 6 7 7 8 9 11 12 14 17 20 22 25 26 28 30 31 32 33 33 33 33 32 32 33 34 36 36 36 35 34 34 33 32 30 29 28 27 27 26
1 3 4 4 4 5 7 8 9 12 15 17 20 22 24 25 27 27 28 29 30 30 30 30 30 30 31 32 34 34 34 34 34 33 32 30 29 29 27 26 26 26 26
1 1 2 4 5 7 8 10 12 14 16 18 21 22 24 26 27 27 27 27 27 29 29 29 29 29 30 31 32 32 32 32 32 32 30 29 28 27 27 26 25 24 24
3 3 5 6 7 8 10 12 14 16 18 20 21 22 23 24 24 25 25 27 28 28 28 28 28 28 29 30 30 31 30 30 30 31 30 28 26 25 25 24 24 23 22
4 4 5 7 9 10 11 13 15 17 19 20 21 21 21 22 23 24 25 26 27 27 27 26 26 26 27 27 28 28 27 27 27 28 30 29 27 25 23 22 22 21 20
5 5 7 8 10 12 14 16 17 18 18 18 18 19 21 22 23 24 25 25 25 25 25 25 25 24 24 25 26 24 23 24 25 27 28 28 28 27 24 22 20 18 17
5 6 8 10 11 13 15 15 16 17 17 18 19 20 21 22 23 23 24 24 24 25 24 24 23 22 22 23 23 21 22 20 21 23 27 29 30 30 27 22 19 16 15

GFSGL_700_spd_105.txt.gz
Wind_Speed
5 4 6 6 8 8 12 15 15 16 20 21 21 19 18 14 15 17 17 19 22 24 25 28 28 29 30 29 30 34 37 39 45 46 45 44 47 40 43 40 44 47 46
8 6 4 5 6 8 10 11 11 13 18 19 18 18 21 22 20 19 17 18 21 21 20 26 28 29 29 30 32 34 37 38 44 47 45 49 52 41 48 57 51 47 51
9 7 6 5 6 7 8 10 11 11 11 11 12 14 15 16 16 16 17 18 18 19 23 28 31 31 31 33 34 35 38 39 43 41 50 37 55 47 51 49 58 54 57
11 9 9 8 9 10 10 10 11 11 11 12 13 12 13 13 13 15 18 20 20 25 28 29 31 32 33 33 33 38 39 41 45 48 41 43 57 53 56 56 62 59 57
14 12 11 10 11 13 14 13 13 13 13 14 14 15 16 17 20 20 21 22 24 25 25 27 29 31 32 35 40 40 40 43 42 46 54 52 60 55 61 63 62 58 55
16 14 14 14 13 13 14 16 16 15 17 19 20 20 20 21 20 22 23 25 26 26 28 34 37 38 39 38 44 54 43 44 49 48 53 60 55 63 62 58 58 57 56
20 18 15 15 15 16 16 17 19 19 18 20 22 23 24 24 23 24 24 27 31 34 34 34 38 40 52 54 53 39 45 41 45 54 56 58 62 57 56 56 57 57 57
23 21 19 16 17 19 20 20 20 19 21 21 22 24 24 26 26 27 29 31 31 30 32 35 42 48 52 52 37 38 49 48 50 53 53 53 53 53 55 56 57 57 58
24 25 23 22 21 20 22 24 25 25 26 27 29 29 28 32 31 32 30 27 32 35 37 44 50 49 33 43 46 47 50 53 55 51 50 49 50 52 54 55 55 56 58
24 24 28 24 24 27 28 28 29 30 30 31 31 30 30 30 29 29 33 37 39 42 44 41 32 40 41 42 45 47 46 45 44 45 48 50 52 53 55 57 58 58 59
24 23 24 29 31 33 36 34 32 33 32 30 29 29 30 32 32 34 33 32 37 42 34 39 43 47 45 43 40 40 41 43 46 48 50 51 52 52 52 53 52 53 54
26 28 26 32 27 31 38 32 28 29 33 30 31 33 32 29 30 35 39 32 28 36 42 40 38 36 36 37 40 42 44 47 48 49 50 51 51 51 50 50 49 49 48
24 27 31 35 38 36 34 38 35 38 38 34 32 29 28 33 31 26 30 38 38 30 29 30 32 35 37 40 43 45 47 48 48 48 49 49 49 48 49 48 46 45 44
29 29 29 37 40 41 43 39 38 35 35 35 27 29 30 29 31 33 30 25 23 26 28 30 32 35 38 41 43 45 46 47 47 48 48 47 46 45 45 45 45 45 42
30 30 34 34 32 35 36 36 34 37 33 28 28 27 27 29 24 20 21 21 23 25 28 31 33 35 37 39 41 42 43 43 43 44 44 44 44 44 44 43 43 42 42
28 31 31 33 34 35 35 39 42 32 29 26 22 20 15 14 14 15 18 21 24 27 30 32 34 35 37 39 40 40 40 41 41 41 41 42 43 43 43 41 40 38 37
17 18 24 32 33 38 35 31 20 19 12 12 12 11 12 11 13 18 20 23 26 29 30 32 34 36 37 38 38 38 38 37 38 39 41 42 42 41 39 37 35 34 33
27 33 34 34 26 16 11 8 7 7 7 8 9 8 10 14 18 21 23 24 25 28 30 32 33 34 35 35 35 35 35 36 38 39 40 39 39 38 35 33 32 32 31
18 14 9 6 6 4 4 5 7 9 9 8 9 11 15 18 19 20 22 24 27 29 30 31 31 32 32 32 33 34 35 36 37 37 38 38 37 36 32 30 29 29 29
10 11 10 7 4 4 6 7 5 5 6 9 11 13 14 16 19 21 23 24 25 27 29 30 31 31 31 31 31 32 33 34 35 35 35 35 34 33 30 27 27 27 27
6 5 4 4 3 2 2 4 6 8 9 10 12 13 15 17 20 21 22 24 26 28 28 29 29 28 28 28 29 31 32 33 32 32 32 32 31 30 26 25 25 25 26
7 6 4 3 3 3 6 7 7 9 10 12 13 15 16 18 19 21 23 24 25 26 26 26 26 26 26 26 27 29 30 28 27 28 27 28 29 29 27 24 24 24 24
6 5 5 4 5 5 5 6 7 10 12 13 14 16 17 19 19 21 22 24 24 24 24 24 24 24 25 26 26 27 26 24 25 24 25 28 31 32 30 26 23 22 22
7 5 4 4 4 4 6 8 9 11 13 15 16 17 18 20 21 22 22 22 22 22 22 22 23 24 24 24 24 25 23 23 22 22 25 28 30 31 30 26 23 21 20
2 4 4 4 5 6 8 9 11 12 14 15 16 17 19 20 20 20 20 20 21 21 22 22 22 22 22 22 22 22 21 21 21 22 25 27 30 32 31 26 22 17 16
3 5 6 7 8 8 10 11 12 13 15 16 17 18 19 19 19 19 20 20 21 21 21 21 21 21 21 20 21 21 19 20 20 21 24 26 28 31 29 24 20 15 12

GFSGL_700_spd_108.txt.gz
Wind_Speed
7 6 6 6 4 7 9 10 15 16 14 16 19 36 40 32 38 24 20 19 20 19 20 21 21 24 26 28 28 32 36 37 40 34 34 33 36 39 42 42 35 40 40
10 7 8 7 8 6 10 10 13 16 16 16 16 20 28 25 19 22 20 13 16 17 20 23 23 23 27 30 33 34 34 33 37 40 39 39 35 41 46 48 38 44 53
14 11 9 9 8 9 8 11 12 12 15 17 17 22 24 25 23 23 20 20 19 19 22 24 25 28 29 32 32 33 34 35 38 40 44 42 45 50 46 46 47 52 53
16 14 11 10 10 10 9 10 11 13 13 15 16 17 20 21 20 20 22 22 21 26 27 26 27 28 29 31 34 37 38 39 41 44 48 48 53 49 50 54 51 54 57
18 14 12 13 13 14 14 13 14 14 15 16 16 18 18 19 20 20 21 23 25 24 24 28 28 28 32 36 36 36 39 40 48 47 50 49 50 52 56 54 62 58 57
20 17 15 16 17 16 17 17 16 18 19 19 19 19 19 19 19 19 20 23 25 27 28 30 32 32 32 40 49 44 43 44 51 55 47 48 47 57 58 58 58 60 61
26 22 20 19 19 20 19 19 21 21 20 20 19 19 19 20 21 23 25 26 27 27 32 32 32 39 41 45 44 54 56 52 53 43 50 48 54 55 55 56 57 57 59
29 27 26 24 22 22 23 23 23 22 21 21 21 23 24 24 23 24 26 29 29 28 32 35 44 46 45 48 52 56 37 37 48 47 46 48 50 51 52 54 55 57 59
23 27 29 29 27 24 24 23 23 23 23 24 25 26 26 27 28 28 26 26 33 37 41 42 43 56 52 46 44 35 41 42 44 44 44 45 47 50 52 54 55 58 60
21 22 23 30 29 27 28 28 27 27 28 29 30 29 27 27 28 31 33 30 32 32 39 46 52 45 41 34 40 37 35 39 41 42 45 47 49 50 53 55 57 59 59
24 19 21 24 30 32 32 32 31 31 31 31 30 30 31 32 33 33 33 36 40 41 43 45 37 33 34 33 32 35 38 41 43 44 45 46 48 50 51 52 53 54 55
19 19 19 23 21 20 24 26 27 28 29 32 33 34 31 37 38 37 44 45 38 36 41 36 33 31 30 30 35 39 39 41 43 45 46 46 47 48 48 49 49 50 51
20 21 21 22 21 28 28 28 26 26 35 31 34 42 42 42 45 50 37 31 39 36 31 29 25 27 27 30 36 39 40 42 43 44 45 47 48 49 50 50 49 49 48
22 20 22 22 26 28 29 34 36 41 42 43 43 52 46 46 47 38 32 30 24 18 18 20 22 26 31 35 37 39 41 42 43 44 45 45 46 46 47 49 50 49 47
26 28 29 31 32 31 30 37 39 44 45 51 47 41 32 31 17 14 13 15 14 16 19 22 26 29 33 35 36 38 39 41 42 42 43 44 45 46 47 48 48 47 47
32 32 32 33 31 29 28 35 43 47 42 29 29 25 17 12 12 10 11 12 15 18 21 25 27 28 30 33 35 36 37 38 40 40 42 43 44 45 46 46 46 44 42
20 19 20 22 26 35 35 49 51 43 34 25 16 11 10 8 9 10 13 15 20 22 22 24 25 27 30 32 33 34 35 36 38 39 40 42 43 44 44 44 42 40 36
13 16 22 22 25 30 28 22 14 11 10 11 10 7 6 7 10 12 15 18 19 20 22 23 25 28 30 31 32 33 33 35 36 37 39 40 41 42 42 40 38 35 33
18 21 21 21 19 12 9 9 9 8 8 8 5 5 8 8 11 14 17 17 19 21 23 25 27 28 29 29 30 30 31 32 34 36 37 37 38 39 38 36 33 30 30
13 14 14 14 15 13 11 10 8 5 2 4 4 7 9 10 13 15 17 19 20 20 22 25 26 27 26 26 27 28 30 31 32 32 32 34 35 36 36 34 31 28 28
10 13 13 12 12 11 8 6 4 3 6 7 7 7 10 12 15 16 17 19 20 22 24 24 24 24 24 25 27 27 28 29 29 28 30 30 30 31 32 33 30 28 28
13 13 12 13 9 6 4 3 7 7 6 7 8 10 12 14 15 16 18 20 21 22 22 22 23 23 24 24 24 25 26 26 26 26 26 27 28 31 32 32 31 27 25
12 11 6 5 4 4 5 5 4 5 7 9 10 12 13 15 17 18 19 20 21 21 22 22 22 22 22 22 23 24 24 24 24 23 23 25 27 30 32 30 28 24 22
8 7 5 2 2 5 4 5 7 8 9 11 13 14 15 17 18 18 19 20 20 21 21 22 22 22 22 22 22 23 24 23 21 20 21 24 26 29 29 28 26 21 18
6 5 4 6 6 7 7 8 9 9 11 12 13 14 15 17 18 19 20 20 20 21 21 21 21 21 21 22 23 23 22 21 19 19 20 23 24 27 28 27 23 18 15
6 6 6 5 6 7 8 9 10 11 12 13 15 15 16 17 19 20 20 20 20 20 20 20 21 22 22 22 21 21 20 19 18 19 19 21 21 23 26 27 22 16 11

GFSGL_700_spd_111.txt.gz
Wind_Speed
13 9 7 7 7 9 10 7 13 12 7 13 32 28 40 48 40 44 43 35 21 34 38 32 30 27 27 33 27 28 29 28 33 33 31 32 34 34 36 36 37 38 42
15 10 8 7 6 8 6 8 7 11 11 14 13 20 26 36 38 41 40 37 34 36 36 22 18 19 22 26 29 25 30 33 38 38 32 34 35 38 41 43 42 44 45
16 13 10 8 8 9 10 9 9 10 12 10 11 18 27 34 36 24 28 26 18 18 25 22 20 23 28 27 28 32 36 37 36 37 35 41 39 44 48 47 46 44 51
19 16 12 10 9 10 11 11 11 8 7 10 11 14 15 19 36 29 25 26 26 23 24 24 25 26 28 32 36 33 33 34 37 38 38 40 42 50 46 48 50 53 58
23 19 14 12 11 11 10 12 14 14 12 12 13 16 20 23 26 27 26 29 29 30 30 30 31 31 32 30 33 32 36 39 38 38 46 47 46 51 52 55 55 53 55
27 24 20 16 15 14 13 12 13 15 17 17 16 17 17 18 22 25 27 26 26 27 28 29 28 28 30 32 33 36 36 41 46 41 45 51 54 53 57 53 54 56 58
29 28 25 22 19 18 17 18 18 16 16 16 17 18 19 21 23 24 26 26 28 29 28 28 30 32 32 36 33 40 52 49 49 48 55 41 43 45 47 48 50 53 56
29 31 29 26 25 24 23 21 21 20 20 19 19 20 21 22 24 25 27 27 27 28 31 32 33 38 36 42 47 46 51 53 55 47 41 45 41 43 45 49 52 53 56
29 28 29 29 28 27 27 25 24 24 24 24 24 24 25 26 27 27 27 28 29 29 33 39 34 38 39 43 44 47 57 41 36 39 41 40 43 45 47 51 53 56 58
27 32 29 27 30 28 29 29 28 27 27 27 28 29 30 30 30 29 29 32 32 33 35 35 41 42 43 47 52 46 38 40 35 35 37 41 45 48 51 53 56 57 59
14 21 30 23 17 22 27 29 30 30 31 31 32 32 33 33 31 29 28 30 34 38 42 43 52 49 52 49 41 38 34 30 30 35 40 44 46 48 50 52 54 56 57
20 20 29 28 20 16 16 22 28 31 34 35 34 32 28 29 30 32 35 37 40 45 51 48 43 38 37 31 32 26 25 31 35 39 41 43 45 47 48 49 51 53 55
21 23 26 22 22 29 19 21 24 22 23 32 27 28 28 33 38 35 46 47 47 57 42 33 31 25 21 22 24 28 31 33 35 37 41 43 45 46 47 49 51 51 51
23 21 20 13 16 18 21 23 32 32 38 41 28 38 39 39 43 47 52 46 36 27 23 20 18 19 19 22 25 27 30 34 36 39 41 43 44 45 47 50 51 51 49
22 23 21 21 23 24 27 28 32 29 33 39 50 50 51 49 43 37 26 11 14 16 16 15 14 18 22 24 26 29 31 34 36 38 39 39 41 43 46 47 49 49 49
31 31 29 29 29 26 28 30 33 47 44 50 41 30 27 17 19 16 15 15 14 12 14 16 17 19 22 24 27 30 32 34 35 36 37 39 42 43 44 45 45 45 42
28 31 32 30 26 25 27 33 40 41 46 41 25 21 15 13 12 13 13 13 10 12 14 17 19 20 23 26 28 30 31 33 34 35 37 38 39 41 41 41 41 40 36
11 11 16 17 19 24 25 31 32 29 21 14 11 11 11 12 13 5 6 10 11 14 16 17 19 21 24 25 27 28 30 32 32 33 35 36 37 38 38 39 39 38 35
13 14 16 17 21 24 21 17 14 13 14 13 11 12 11 7 6 7 9 11 13 14 15 17 20 22 23 25 27 28 28 29 30 31 33 33 33 34 35 37 37 35 33
10 9 9 11 13 14 15 15 15 14 14 13 11 4 3 5 8 9 11 13 14 15 17 19 21 23 24 24 25 25 27 27 28 29 29 29 30 31 33 35 35 33 30
16 17 15 15 16 16 16 16 14 9 4 1 0 4 6 7 10 12 13 15 16 17 18 20 22 22 22 23 24 25 25 26 27 27 26 26 27 29 31 33 34 32 28
11 13 15 15 15 13 11 9 5 3 1 5 6 7 8 9 11 12 13 14 16 18 20 21 21 22 23 23 22 23 24 24 24 24 24 24 25 27 29 31 32 29 25
11 10 11 11 9 7 4 4 2 5 6 6 7 8 9 10 12 13 15 17 18 19 20 21 21 21 21 21 22 23 22 22 22 22 21 21 23 24 26 28 29 25 20
9 10 8 6 6 4 3 5 7 7 7 7 8 9 10 12 13 14 15 17 18 19 20 20 20 20 21 21 21 21 21 21 21 21 21 20 21 21 23 26 27 23 17
8 8 8 7 5 6 7 7 7 7 7 8 10 11 11 13 14 16 17 18 19 19 20 20 20 21 21 21 21 21 21 21 22 22 20 19 20 21 21 24 25 20 15
10 7 5 6 6 6 6 6 6 7 8 10 11 13 14 15 16 17 18 19 19 19 19 20 20 20 20 21 21 22 21 21 22 21 20 18 19 20 19 21 23 20 13

GFSGL_700_spd_114.txt.gz
Wind_Speed
23 17 13 12 12 12 15 15 11 16 15 25 27 33 49 41 54 45 47 42 40 44 38 40 37 43 34 34 31 32 31 28 29 27 24 29 32 32 33 30 33 36 41
22 16 12 11 10 10 14 14 10 12 13 8 14 19 31 22 45 44 38 39 34 42 31 33 30 31 32 28 21 22 27 29 32 22 30 34 36 34 34 36 38 44 46
23 17 13 10 9 10 10 10 8 10 9 8 7 18 20 18 28 37 36 34 35 35 19 28 30 33 32 26 25 26 24 26 27 30 36 37 35 37 38 41 40 46 46
24 19 15 12 10 9 9 9 8 9 9 7 8 12 15 21 20 11 29 23 18 37 40 24 25 26 29 26 25 25 28 33 35 37 36 38 36 39 44 44 43 52 49
27 23 19 16 13 11 10 9 9 10 11 12 10 10 12 13 15 16 28 22 27 27 26 27 27 26 29 29 28 33 34 34 35 40 37 38 40 43 41 44 47 50 50
30 26 23 18 16 14 12 12 10 9 8 9 10 13 13 17 18 26 28 22 24 28 29 31 31 32 32 33 32 34 32 37 35 38 40 46 47 44 50 49 45 48 45
32 29 26 23 20 17 16 16 15 13 12 10 10 11 14 16 22 27 27 29 27 30 31 30 31 31 30 30 30 33 32 38 36 41 42 46 50 49 49 45 45 45 47
31 32 29 25 24 21 20 18 17 17 16 15 14 15 15 17 19 22 24 26 27 28 28 29 29 26 28 33 31 36 39 40 43 46 45 50 48 44 42 41 42 46 51
26 25 27 26 26 25 24 22 20 19 19 19 18 18 19 20 22 23 24 26 28 29 29 29 28 33 32 33 40 42 45 49 45 43 45 39 39 38 38 43 45 47 48
35 26 20 15 23 27 27 26 25 23 23 23 23 23 24 24 25 25 26 27 28 29 29 29 29 32 35 40 41 43 50 47 41 37 35 32 32 37 39 42 45 47 50
22 39 32 28 26 25 28 29 27 27 27 27 27 28 29 29 27 26 25 26 28 30 30 34 33 36 41 45 52 53 47 36 28 26 27 30 34 37 41 45 46 47 50
21 19 20 29 38 35 24 22 24 25 26 28 30 29 28 27 26 27 31 28 28 31 34 41 46 48 49 51 39 27 24 23 24 26 28 31 35 38 40 41 43 47 51
15 23 23 28 22 41 26 15 15 12 14 17 19 22 26 27 27 30 31 34 34 44 44 45 45 36 25 20 22 23 22 23 25 27 29 32 34 36 39 41 44 45 47
16 15 26 25 31 28 29 24 27 22 26 24 29 29 29 28 32 35 41 39 49 42 43 29 19 19 20 20 16 18 20 22 25 27 30 33 36 37 38 40 42 42 42
16 20 22 19 11 10 15 18 21 25 24 26 29 29 27 32 37 45 44 34 29 20 14 16 18 18 15 15 18 19 21 23 25 28 31 32 34 36 38 39 42 43 44
24 21 25 24 24 21 23 23 29 33 31 35 34 37 40 37 36 27 19 15 14 17 18 12 9 11 13 15 17 19 22 24 26 27 29 31 32 34 36 38 40 40 39
28 29 28 25 24 24 25 23 28 28 43 35 42 33 25 17 15 14 15 17 18 14 6 9 11 13 14 16 18 21 23 24 26 27 29 30 32 34 36 37 37 37 32
26 26 26 25 26 24 22 22 25 26 31 32 28 17 14 13 14 15 17 13 5 8 8 11 13 15 16 18 20 22 23 23 24 26 27 29 31 33 34 34 34 33 30
12 17 21 21 20 21 22 23 25 21 16 11 11 15 14 15 14 11 3 3 5 9 11 13 14 15 17 18 19 20 22 23 24 26 28 29 29 30 31 32 32 31 28
17 18 17 17 16 14 13 14 15 16 16 15 14 15 14 9 2 1 3 6 8 10 11 12 14 15 17 18 20 21 22 23 24 25 26 27 27 27 28 29 30 29 26
14 14 16 17 19 19 19 19 18 16 14 15 15 10 5 3 3 6 7 7 8 10 12 13 15 16 17 18 20 21 22 23 23 24 25 24 24 24 26 26 28 28 25
15 16 17 15 15 16 15 14 14 14 11 7 4 3 4 6 6 6 7 8 10 12 13 14 16 17 18 19 20 21 21 23 23 23 23 23 22 21 22 23 25 27 23
9 8 9 11 12 13 13 12 10 8 6 5 6 6 5 5 5 6 8 9 11 12 14 15 17 18 19 19 20 21 21 22 21 22 22 21 20 19 20 20 23 25 21
8 9 11 11 11 10 8 7 6 6 8 7 6 5 5 5 7 8 9 11 13 14 16 17 17 18 19 20 21 21 20 20 20 20 20 20 19 18 18 18 21 23 20
7 8 8 9 8 9 7 7 7 7 6 6 5 5 6 7 8 10 12 14 15 16 17 18 19 19 20 20 20 20 20 20 20 20 20 20 19 17 17 17 18 20 19
8 8 8 7 6 6 7 7 6 5 5 5 5 7 8 9 11 12 14 15 16 17 18 19 19 19 19 20 20 20 20 20 20 20 21 20 19 17 16 17 17 17 17

GFSGL_700_spd_120.txt.gz
Wind_Speed
25 29 26 31 29 25 24 23 18 19 20 21 21 23 26 30 30 36 43 47 50 47 45 44 44 43 43 44 44 45 47 48 52 52 47 36 46 49 37 39 36 35 32
28 29 27 32 29 24 23 22 18 20 20 22 25 27 26 29 35 43 46 44 52 49 45 44 45 44 45 47 54 57 63 49 45 41 40 39 42 46 36 35 37 32 35
32 31 31 35 30 23 22 22 18 22 21 19 21 25 25 32 39 35 45 45 42 50 48 47 47 44 52 43 39 46 35 41 32 33 36 36 35 35 36 35 35 35 40
31 30 37 32 28 23 23 23 20 22 19 19 21 23 23 28 29 33 36 49 49 50 48 47 48 57 51 25 30 28 28 24 27 34 26 28 29 30 35 34 39 40 43
27 32 38 33 28 25 24 23 21 19 15 16 20 22 23 22 24 27 21 37 41 37 51 48 50 40 45 30 24 21 25 27 36 25 30 30 31 29 30 37 39 45 46
26 36 36 33 29 26 24 24 21 18 15 14 17 16 17 18 12 19 11 19 24 31 40 29 39 35 38 23 23 24 20 24 22 31 30 29 28 31 36 42 45 48 50
28 35 35 32 31 27 25 25 23 19 16 14 13 11 14 13 11 15 14 7 17 18 22 26 22 30 31 25 27 23 29 26 28 26 31 35 39 41 42 44 47 52 53
32 32 33 34 33 28 27 26 25 22 18 15 12 10 9 10 15 15 11 16 17 16 19 24 20 20 24 24 21 21 25 27 30 34 35 38 39 41 46 48 50 50 50
32 35 34 36 34 31 29 28 26 24 21 18 15 12 10 9 12 16 11 20 16 16 10 21 23 23 19 20 22 24 29 32 33 35 36 39 43 46 49 52 43 40 39
28 36 39 39 36 32 32 30 27 26 24 22 19 17 15 13 12 13 15 15 14 15 15 20 19 22 25 27 28 29 30 32 34 38 40 43 44 43 40 36 34 32 32
24 33 38 42 36 35 35 32 29 27 25 24 23 21 19 18 17 17 18 21 22 22 21 23 26 26 25 26 27 32 33 37 39 39 44 42 34 33 32 29 28 28 29
20 25 35 36 35 37 35 33 31 28 27 25 25 24 23 22 20 19 19 19 20 21 21 22 23 23 27 28 30 34 37 40 44 33 28 28 29 25 23 24 26 28 30
15 26 31 40 37 37 35 33 30 28 26 25 25 25 23 23 21 19 19 21 20 18 18 20 29 30 31 37 41 41 31 23 23 26 25 19 18 22 24 26 27 29 30
7 16 25 37 43 36 34 31 25 23 21 21 24 24 23 21 18 16 15 15 19 20 23 28 33 37 32 30 29 27 23 23 22 16 14 17 20 22 23 25 26 27 29
13 7 21 31 37 38 30 24 21 20 19 26 23 23 26 25 21 17 15 18 26 29 32 33 29 26 24 21 20 19 18 15 13 13 15 18 19 21 22 23 24 25 25
9 12 16 11 25 35 38 35 32 27 27 29 27 21 23 28 29 23 18 20 25 29 26 22 18 15 14 15 15 12 11 11 13 14 15 17 19 20 21 22 24 25 25
13 11 13 25 23 29 30 31 39 29 26 25 25 27 30 25 26 21 18 22 18 16 15 15 14 12 12 12 11 10 10 11 13 14 16 17 19 20 21 21 23 23 23
18 15 14 11 24 20 24 27 28 28 29 34 35 30 25 23 20 14 11 12 13 14 14 13 11 9 9 9 9 9 10 12 13 15 17 18 19 19 20 20 21 21 21
8 18 15 11 18 22 20 25 29 25 25 25 24 25 22 18 15 15 15 16 15 13 12 10 8 8 8 8 9 10 11 13 14 16 17 18 18 19 19 18 18 18 19
12 14 14 13 11 9 13 15 15 15 15 15 17 19 21 22 19 17 15 14 13 12 8 7 7 8 8 10 10 10 12 13 14 15 17 18 18 18 18 18 18 18 18
10 12 14 13 13 13 12 13 15 17 19 21 22 20 20 19 18 17 15 12 10 8 8 8 8 8 10 10 10 12 13 14 15 16 17 17 17 18 18 17 17 17 16
6 10 12 14 15 16 17 18 17 16 16 17 17 18 19 19 18 15 12 10 9 8 8 7 9 10 10 11 12 13 14 15 16 16 16 17 17 18 18 18 18 17 16
14 12 12 14 15 16 17 18 18 18 17 18 18 18 17 15 12 10 10 10 9 8 9 10 11 10 11 12 13 14 15 16 16 16 17 17 18 18 18 18 18 17 16
9 10 10 11 12 13 14 14 14 16 17 17 16 13 10 10 11 11 11 10 10 10 10 10 11 11 12 13 14 15 16 16 17 18 18 19 19 19 19 18 18 17 16
4 5 6 7 8 10 13 15 17 16 15 12 10 10 11 11 10 10 9 9 9 10 10 10 11 12 13 14 15 16 17 18 19 20 20 20 20 20 20 19 18 18 17
3 4 5 7 8 10 11 12 11 10 9 9 10 10 10 9 9 10 10 10 10 10 10 11 12 14 15 16 17 18 19 20 21 22 22 22 21 21 20 19 19 18 18

GFSGL_700_spd_123.txt.gz
Wind_Speed
26 31 31 28 32 34 33 27 25 25 26 26 21 22 21 21 19 19 27 30 41 51 52 47 43 42 42 44 40 38 37 37 37 35 35 38 38 43 47 47 39 41 46
27 30 33 34 28 34 31 28 25 25 26 24 22 22 21 23 20 21 23 27 39 52 47 43 43 43 47 44 39 40 39 39 40 43 44 45 48 50 41 41 38 41 50
29 30 33 34 31 36 34 32 26 25 26 23 22 22 25 25 25 25 23 28 33 48 47 50 48 48 49 41 40 42 45 43 49 56 51 53 52 39 45 39 42 40 37
29 29 31 35 34 38 35 31 27 25 25 23 23 21 25 27 24 25 27 37 38 43 46 47 48 49 42 41 39 44 53 53 42 44 41 41 36 36 37 37 33 33 36
24 25 30 33 35 39 36 32 27 26 25 23 23 23 25 23 24 24 27 32 42 41 50 53 47 49 46 43 44 50 47 27 34 34 29 30 30 31 31 33 37 35 35
23 26 29 32 35 37 36 33 28 26 25 24 22 21 19 22 24 24 27 30 32 43 46 48 49 51 57 51 48 51 41 28 26 30 31 31 33 30 32 36 33 35 39
28 26 30 34 36 36 37 33 30 27 24 23 18 17 16 18 19 17 19 24 20 16 32 32 41 45 49 38 43 29 28 30 29 24 24 26 29 32 32 37 41 43 46
29 29 31 34 29 37 38 33 30 27 24 23 18 17 13 15 19 14 12 11 20 16 23 27 27 26 32 33 28 30 26 29 25 26 29 31 32 33 38 41 43 45 48
27 29 33 33 31 39 38 33 30 28 26 24 20 18 14 11 13 14 13 13 14 14 14 18 15 20 19 20 28 32 24 21 25 28 30 33 34 37 42 43 44 46 46
24 31 35 35 33 41 36 30 32 30 28 26 23 20 17 14 14 18 15 20 18 15 12 14 19 23 19 18 18 18 22 24 26 29 30 34 38 41 42 42 41 37 36
27 34 35 35 41 39 31 35 34 32 31 29 26 22 19 16 15 14 14 15 16 11 13 11 12 14 15 17 17 21 22 26 30 32 33 37 40 40 36 34 33 31 28
27 16 33 37 45 37 38 39 38 34 32 30 28 26 23 21 18 16 16 17 17 17 16 17 19 19 22 24 23 25 27 30 32 37 39 37 34 32 30 27 23 24 25
27 23 26 43 43 40 46 44 43 35 34 31 29 28 26 24 22 21 20 19 19 20 21 22 22 22 23 23 26 27 29 34 34 30 27 25 24 22 20 20 22 23 24
25 19 15 27 40 44 43 45 42 41 37 33 31 29 27 26 25 26 26 25 27 26 23 21 21 22 24 28 33 33 26 24 22 20 19 18 17 16 18 19 21 23 24
19 20 11 20 33 40 48 45 40 38 35 32 30 28 27 28 28 29 30 27 24 26 26 27 28 31 32 30 25 22 17 16 16 16 15 14 15 16 17 20 22 23 23
15 16 8 11 21 38 40 43 43 38 33 30 30 25 26 30 30 32 36 39 38 37 36 34 31 29 24 19 16 15 13 13 13 13 13 13 15 16 18 19 21 21 22
12 14 14 16 11 22 37 46 44 44 41 38 38 36 34 31 34 34 37 37 35 32 29 20 17 16 15 14 13 13 12 12 11 11 12 14 15 16 18 19 20 20 20
7 12 9 9 6 8 17 31 40 47 43 43 37 33 30 26 25 25 24 22 20 18 17 16 14 13 13 13 12 11 10 10 10 11 13 14 16 17 19 19 20 21 21
5 8 10 3 6 4 9 14 22 29 33 26 28 32 28 27 23 22 19 20 19 16 14 14 14 13 11 10 10 9 9 10 11 12 14 15 16 17 18 19 20 21 21
7 7 8 7 8 10 11 14 16 19 24 24 26 27 26 23 22 21 22 20 18 17 16 14 12 11 10 9 8 8 9 11 12 14 15 16 17 17 18 19 20 20 20
5 7 9 8 9 10 10 10 9 10 17 19 21 20 19 19 19 19 17 17 15 14 14 12 11 10 9 8 9 9 10 12 14 14 16 17 17 18 19 20 19 19 19
2 3 7 8 9 11 14 16 17 17 16 16 17 18 19 19 18 18 18 16 14 13 11 10 9 8 9 9 9 10 12 13 14 16 16 18 19 19 19 19 20 20 19
10 7 6 7 10 12 13 13 13 14 14 15 15 15 16 18 21 19 16 14 12 11 10 8 9 9 9 10 11 12 13 14 15 17 18 19 19 19 20 20 20 20 20
11 11 10 10 10 11 11 12 13 14 14 15 15 16 17 17 16 13 11 10 10 10 9 10 10 10 11 11 12 13 15 16 17 18 19 20 20 21 21 21 21 21 21
4 5 5 4 4 6 7 9 10 12 14 16 17 17 15 12 10 10 11 11 10 10 11 11 11 11 12 13 13 15 16 17 18 19 20 21 22 22 22 22 22 22 22
1 1 2 3 4 6 9 11 13 15 16 15 14 11 10 10 11 10 11 11 11 11 11 12 12 12 12 13 15 16 18 19 20 21 22 23 23 23 23 23 23 23 22

GFSGL_700_spd_126.txt.gz
Wind_Speed
21 24 26 25 25 27 34 35 35 34 29 26 25 23 23 24 25 23 11 14 25 27 38 42 52 55 45 44 42 38 35 34 34 31 29 30 31 31 36 34 37 37 39
23 22 27 25 28 29 31 36 35 34 30 28 26 23 22 22 25 21 15 15 16 25 26 55 61 49 45 48 46 44 37 41 33 32 34 36 36 35 36 39 40 45 46
24 23 23 27 29 31 30 35 37 34 30 29 27 24 21 24 25 22 18 14 17 18 30 32 40 51 48 45 47 47 43 40 36 36 38 36 36 36 40 50 51 51 45
26 24 23 23 27 32 33 35 37 35 32 29 27 25 23 23 24 24 24 21 19 25 18 35 47 45 48 44 48 46 45 37 40 41 40 38 40 52 49 47 35 35 37
29 25 22 22 24 31 35 37 38 38 33 30 27 24 24 25 21 18 20 18 21 23 32 26 50 48 42 45 47 38 35 37 45 47 49 53 55 41 32 30 27 30 30
28 28 23 22 23 26 32 36 39 38 35 31 27 25 23 24 21 20 18 16 20 23 31 39 50 50 43 50 42 34 38 43 48 55 47 34 25 26 26 29 31 31 32
29 28 25 22 26 27 33 36 37 39 36 30 26 23 21 22 19 21 20 22 23 22 27 35 44 37 45 45 42 47 50 39 39 41 36 26 28 27 28 29 30 29 33
28 27 28 23 27 27 33 35 35 40 35 29 27 23 20 20 19 20 18 18 18 14 22 25 30 44 40 50 47 50 44 37 34 23 24 27 26 28 26 28 32 35 36
27 24 27 26 27 31 32 35 39 39 33 30 26 22 21 20 17 17 17 16 14 15 21 18 19 20 44 48 35 39 39 36 42 25 27 28 27 28 29 32 34 38 43
26 26 27 27 28 35 35 38 41 38 33 30 27 24 23 20 17 15 15 15 13 9 13 18 21 28 33 20 17 23 28 25 23 24 21 25 28 29 31 34 38 42 40
29 29 27 28 26 37 38 38 41 39 34 31 28 26 24 22 19 16 16 15 16 12 7 11 16 18 19 20 21 19 16 20 22 20 22 24 28 32 33 34 36 36 32
30 30 27 26 28 37 40 39 41 37 35 32 29 29 26 25 23 20 18 17 19 16 12 13 13 17 18 15 14 16 15 19 23 24 26 29 31 34 34 31 29 26 23
26 28 25 25 31 34 38 39 40 39 34 32 33 31 29 27 25 23 22 21 18 15 16 15 15 14 17 18 20 19 21 26 28 27 29 32 31 27 24 21 19 20 20
21 22 22 24 26 31 41 44 47 40 35 34 33 32 30 29 27 25 24 25 25 25 26 25 22 21 20 20 24 24 27 30 33 30 27 23 19 17 16 16 16 18 20
17 16 16 15 20 31 43 44 42 47 38 43 31 30 30 29 28 27 26 25 25 24 26 24 22 22 24 26 26 29 30 29 23 20 18 14 13 14 14 16 17 18 19
13 13 15 16 19 19 40 46 49 51 41 42 36 33 29 30 29 26 25 27 27 27 29 29 29 27 26 28 27 23 20 19 17 14 12 13 13 14 15 16 17 18 19
12 14 14 18 23 13 22 37 46 46 49 41 45 31 38 32 35 35 34 32 33 37 35 38 31 23 21 20 19 17 14 12 11 11 12 12 12 14 14 16 17 18 18
11 11 8 15 17 8 12 24 36 45 44 47 47 43 43 40 42 43 41 40 40 37 28 25 22 19 17 16 14 12 10 10 11 11 11 11 12 13 14 15 17 18 19
7 5 6 7 9 8 2 10 22 32 41 48 45 45 37 36 31 28 23 23 23 24 23 21 19 16 13 12 11 10 11 10 10 10 10 11 12 13 14 16 17 18 18
6 5 2 3 4 3 4 2 4 12 20 25 32 35 37 29 25 22 20 22 20 19 19 18 16 14 13 12 12 11 10 10 9 9 11 12 12 14 16 18 18 19 20
6 4 2 4 4 4 5 7 10 10 13 17 17 18 20 19 19 20 21 19 18 17 17 16 15 14 12 12 10 9 9 9 9 10 11 12 14 16 17 18 19 20 20
9 6 4 5 7 8 9 7 7 9 10 10 12 15 18 18 18 18 18 17 17 17 15 14 12 11 10 9 8 8 8 9 10 10 12 14 15 17 18 19 20 20 20
16 14 11 9 9 10 10 10 10 10 10 12 12 14 15 16 16 17 17 17 16 14 12 11 11 9 7 8 9 10 9 9 10 12 14 15 16 18 19 20 20 20 21
14 15 14 12 11 10 10 9 9 9 9 9 10 11 13 15 16 16 15 14 13 11 11 9 8 8 9 9 10 9 9 11 13 14 15 16 18 19 20 21 22 22 22
7 8 8 8 8 8 7 7 7 7 7 8 9 10 9 11 13 14 14 12 12 11 11 9 8 9 9 10 10 10 11 12 14 15 17 18 19 20 21 22 23 23 23
4 4 3 2 2 2 2 2 3 4 5 7 8 10 12 13 12 11 11 12 10 8 8 9 9 10 10 10 10 11 12 14 15 17 18 19 21 22 23 24 23 24 25

GFSGL_700_spd_129.txt.gz
Wind_Speed
21 22 22 21 27 26 26 26 27 36 35 32 31 32 30 27 25 25 23 24 21 15 25 37 45 41 44 55 46 39 35 33 33 26 27 28 28 25 25 29 28 32 30
20 21 23 23 23 27 28 28 32 33 37 34 33 33 31 27 24 23 22 24 24 21 16 33 30 37 40 53 50 44 38 38 36 28 26 26 27 28 30 29 31 36 36
28 24 22 23 23 26 29 31 34 37 36 35 34 33 30 27 23 22 23 25 24 21 13 18 28 33 43 51 45 50 46 39 36 35 34 31 30 31 30 31 32 34 38
30 30 26 23 22 24 28 32 37 39 41 39 36 32 31 26 24 23 23 24 24 24 22 13 12 30 45 42 54 38 44 44 41 41 47 34 32 33 34 36 34 38 42
37 33 31 27 23 24 25 30 34 38 39 37 37 34 33 28 24 19 20 24 27 24 22 19 21 22 35 56 56 51 42 48 50 50 48 39 40 37 39 38 35 38 43
38 33 31 29 26 22 20 24 31 37 38 37 39 36 33 29 23 20 19 21 23 23 23 22 25 25 31 47 60 60 53 52 55 54 50 39 44 37 44 41 47 34 30
38 32 29 30 28 24 23 23 29 36 38 36 39 37 33 29 24 22 22 22 23 22 25 21 27 38 30 41 57 50 46 53 49 46 43 43 40 42 43 36 27 27 29
35 30 28 28 27 24 22 24 31 31 35 35 37 38 32 30 26 23 22 20 23 25 26 26 28 32 37 40 53 42 40 43 41 39 39 45 42 48 34 27 30 32 29
28 28 28 27 27 25 21 27 28 33 36 38 36 38 34 29 26 22 21 22 22 22 22 25 25 28 40 51 50 45 39 42 40 44 50 40 35 29 29 28 28 26 30
24 27 28 28 27 26 26 24 37 34 38 40 36 36 34 29 26 23 22 21 22 20 18 14 18 29 27 35 50 39 48 41 41 40 45 41 37 29 25 26 28 29 30
27 27 28 30 30 29 28 22 41 39 34 38 38 36 33 29 27 24 22 20 19 15 12 10 15 21 24 21 33 46 40 41 40 41 36 34 27 24 24 23 25 31 32
29 30 30 31 32 30 29 25 36 38 38 44 41 37 34 30 28 26 23 21 20 18 17 12 11 14 18 24 31 34 26 27 30 28 25 22 22 21 22 25 29 31 31
28 31 28 28 31 28 29 27 31 44 47 42 38 38 36 31 30 29 26 23 22 22 21 17 15 18 18 21 23 22 22 19 18 19 21 21 23 23 26 33 31 28 23
32 36 26 26 22 25 24 28 31 45 49 42 40 42 37 32 32 31 29 27 25 24 23 20 17 19 22 22 19 20 19 24 25 24 26 29 28 28 29 25 22 18 17
30 26 21 17 19 22 22 24 26 36 49 47 39 41 36 31 30 30 29 28 27 27 23 21 20 22 20 19 20 25 31 30 23 27 32 31 26 22 20 19 15 16 17
23 20 18 15 16 20 21 22 23 35 45 42 41 48 34 32 28 28 29 29 28 28 30 28 28 28 25 26 26 26 29 31 31 29 25 22 20 16 12 12 14 15 16
17 15 16 17 17 22 23 17 20 33 43 46 39 43 39 32 32 35 31 28 29 32 29 33 29 32 26 30 33 33 29 26 23 20 18 14 9 10 13 13 13 14 16
14 14 14 12 17 15 18 14 15 27 41 49 51 47 38 37 38 37 38 34 36 35 36 36 35 36 31 30 24 21 20 19 19 16 11 12 12 12 11 12 13 15 16
10 9 10 10 11 9 9 6 8 15 27 37 47 53 50 48 44 44 38 39 40 39 36 33 27 24 22 21 21 21 20 17 13 13 12 11 10 10 11 12 13 15 15
9 7 6 7 6 3 6 6 2 4 13 24 32 39 45 39 39 33 28 29 24 23 24 25 24 22 22 22 21 17 12 12 12 11 9 9 9 10 11 12 13 15 16
12 9 6 4 2 4 6 8 7 1 4 10 17 22 25 24 26 26 26 25 23 23 23 23 22 22 21 18 15 13 11 11 10 9 8 8 9 10 11 12 14 15 17
17 14 11 9 8 8 10 10 8 4 6 11 15 17 19 18 18 20 22 22 23 23 23 22 21 19 16 14 12 11 10 10 9 9 9 10 10 10 12 14 16 17 17
18 17 15 14 14 15 15 15 14 13 12 10 13 16 19 17 17 19 19 18 18 18 19 18 16 13 11 10 12 12 11 10 10 9 8 10 11 13 15 16 16 17 17
14 15 15 15 14 14 14 14 14 13 12 11 13 14 16 15 15 16 17 17 17 17 16 14 13 12 12 10 9 9 9 8 8 9 10 12 13 13 14 16 16 18 20
10 10 10 11 11 11 11 11 11 11 10 9 9 9 10 12 13 14 15 15 14 14 13 13 12 10 7 7 8 8 9 10 11 12 11 12 13 15 16 18 20 21 22
7 7 7 6 6 6 6 7 7 7 7 5 6 7 8 10 12 13 14 15 15 14 11 9 7 7 8 9 11 11 11 11 10 11 12 14 15 17 18 20 22 23 24